     2              OBSERVATION DATA    GPS                 RINEX VERSION / TYPE
teqc 2002Apr3 20041109 01:32:55UTC                          PGM / RUN BY / DATE
                                                            COMMENT
L2: 1 -> 1; 5 -> 5; 60 -> 9                                 COMMENT
L2: 1 -> 1; 5 -> 5; 60 -> 9                                 COMMENT
L2: 1 -> 1; 5 -> 5; 60 -> 9                                 COMMENT
L2: 1 -> 1; 5 -> 5; 60 -> 9                                 COMMENT
L2: 1 -> 1; 5 -> 5; 60 -> 9                                 COMMENT
Original Marker Name: 0467                                  COMMENT
Campaign Name: CSRC/Caltrans post-San Simeon                COMMENT
4-Character Station Name: 05KL                              COMMENT
6-Character Antenna Code: TRZEPH                            COMMENT
Vertical Measurement Point: BPA                             COMMENT
Vertical Offset to Rinex Ref. Point: 0.0000                 COMMENT
Radial Measurement Point: RRP                               COMMENT
Radial Offset to Rinex Ref. Point: 0.0000                   COMMENT
Antenna Height from Field Measurement: 2.0000 m             COMMENT
Original XYZ: -2652403.5713 -4479845.9521 3672774.9995      COMMENT
New XYZ position is based on association with SCEC monument COMMENT
E1F1A1Z0+0011. Position of that monument is believed to be  COMMENT
valid to within 1 m horizontally; vertical accuracy         COMMENT
should be no worse than 3-times this value.                 COMMENT
                                                            COMMENT
Revised Rinex header created by UCSD GPS archive for        COMMENT
GSAC on 11-Feb-2005 (2005:042) 22:02:38 GMT                 COMMENT
For assistance contact dagnew@ucsd.edu                      COMMENT
or anderson@python.ucsd.edu                                 COMMENT
                                                            COMMENT
HPGN D 05KL                                                 MARKER NAME
0467                                                        MARKER NUMBER
L. Scott CALIF DEPT TRANSPORTATION DISTRICT 5               OBSERVER / AGENCY
0440100467 TRIMBLE 5700 NP 2.01 / SP 0.00                   REC # / TYPE / VERS
12234994 TRM41249.00                                        ANT # / TYPE
 -2652402.0000 -4479844.0000  3672774.0000                  APPROX POSITION XYZ
        2.0000        0.0000        0.0000                  ANTENNA: DELTA H/E/N
     1     1     0                                          WAVELENGTH FACT L1/2
     7    C1    L1    L2    P1    P2    S1    S2            # / TYPES OF OBSERV
     0                                                      INTERVAL
  2004     7     1    14    13   45.000000                  TIME OF FIRST OBS
  2004     7     1    16    44   45.000000                  TIME OF LAST OBS
                                                            END OF HEADER
 04  7  1 14 13 45.0000000  0 11G 6G10G15G16G17G18G21G22G26G29G30
  20431638.6274      33553.49249     19525.01648                  20431635.6964
        48.0004         41.5004
  23892465.1274     421417.13349    301211.67646                  23892462.5474
        39.7504         25.2504
  24400612.0124    -249335.69949   -189075.71146                  24400609.7634
        40.0004         24.0004
  23969940.9874    -193355.44149   -147540.72346                  23969937.0784
        43.5004         25.0004
  23944162.5674     191354.70749    137370.95746                  23944161.4394
        40.7504         22.5004
  21853894.6474    -360856.40649   -263424.39547                  21853891.3034
        47.2504         38.0004
  21242583.6864    -170473.28549   -126608.86348                  21242579.5034
        51.5004         39.5004
  24404207.0224    -329361.75049   -251093.13346                  24404201.9734
        41.0004         22.5004
  22533900.8494    -244608.03949   -180973.98447                  22533898.5774
        46.0004         30.7504
  22960750.2014     -99995.47349    -76209.25447                  22960747.6584
        41.2504         29.2504
  23446301.8454     418302.27049    298446.74247                  23446299.8324
        41.5004         28.0004
 04  7  1 14 14  0.0000000  0 11G 6G10G15G16G17G18G21G22G26G29G30
  20432347.8454      37280.85249     22429.43848                  20432344.8874
        48.5004         41.5004
  23901741.8934     470166.76249    339198.35547                  23901739.0924
        38.7504         26.2504
  24392570.0444    -291592.19949   -222002.86746                  24392569.2094
        38.7504         24.2504
  23963755.5434    -225861.45749   -172870.10247                  23963752.3634
        45.0004         27.2504
  23950218.9614     223179.11349    162169.14546                  23950217.3214
        42.2504         25.5004
  21845924.3254    -402742.44149   -296062.87147                  21845920.4174
        46.7504         37.5004
  21238765.0314    -190539.81249   -142245.13348                  21238760.9384
        52.0004         39.7504
  24393498.1044    -385639.28149   -294945.75846                  24393492.9564
        39.7504         22.5004
  22528523.6094    -272866.58249   -202993.63747                  22528521.0274
        46.0004         31.0004
  22958546.0254    -111576.59449    -85233.49647                  22958543.7324
        42.5004         30.0004
  23455465.6984     466462.52049    335974.18847                  23455464.2504
        41.5004         27.5004
 04  7  1 14 14 15.0000000  0 11G 6G10G15G16G17G18G21G22G26G29G30
  20433060.8044      41028.59449     25349.73848                  20433058.2574
        49.7504         41.5004
  23911007.4654     518859.44949    377140.68847                  23911004.6154
        39.5004         26.5004
  24384515.6934    -333922.08249   -254987.17646                  24384513.9084
        40.5004         24.2504
  23957573.5134    -258343.28549   -198180.61347                  23957571.1344
        43.5004         26.0004
  23956258.4784     254922.84049    186904.44946                  23956258.0344
        41.5004         25.5004
  21837953.8434    -444627.97749   -328700.94547                  21837950.0494
        48.2504         38.0004
  21234938.1584    -210650.33649   -157915.68048                  21234933.6814
        51.5004         39.7504
  24382777.9804    -441972.10249   -338841.47346                  24382774.0424
        38.2504         23.0004
  22523152.9784    -301087.58649   -224984.02347                  22523150.7274
        45.2504         31.0004
  22956349.6704    -123119.80949    -94228.22747                  22956347.4604
        41.7504         30.0004
  23464617.5594     514551.82849    373446.34047                  23464615.2914
        40.2504         28.5004
 04  7  1 14 14 30.0000000  0 11G 6G10G15G16G17G18G21G22G26G29G30
  20433778.9634      44801.73049     28289.82848                  20433776.3664
        49.5004         41.2504
  23920263.5154     567499.89849    415042.34047                  23920260.5994
        39.2504         26.5004
  24376447.6734    -376320.52049   -288024.93046                  24376445.4134
        39.2504         22.5004
  23951398.4264    -290795.61749   -223468.16447                  23951395.5034
        43.2504         26.0004
  23962284.9124     286590.76249    211580.73846                  23962283.8064
        41.2504         22.5004
  21829984.0704    -486507.77749   -361334.56247                  21829981.0354
        47.7504         38.5004
  21231104.1444    -230799.98449   -173616.71947                  21231099.6664
        51.7504         39.2504
  24372047.9084    -498355.05949   -382776.24646                  24372044.6204
        38.5004         23.0004
  22517790.9004    -329265.91449   -246941.16847                  22517789.2554
        46.0004         30.2504
  22954161.5734    -134619.78949   -103189.25447                  22954159.1034
        41.2504         30.5004
  23473755.4544     562574.69949    410866.71947                  23473753.8084
        40.7504         28.0004
 04  7  1 14 14 45.0000000  0 11G 6G10G15G16G17G18G21G22G26G29G30
  20434502.3794      48603.06649     31251.89848                  20434499.4734
        50.0004         41.5004
  23929509.4524     616090.44549    452905.00847                  23929507.3114
        39.2504         26.2504
  24368366.7414    -418784.75849   -321113.97346                  24368364.5244
        38.0004         21.7504
  23945228.9994    -323215.75049   -248730.58246                  23945226.4434
        43.0004         25.5004
  23968297.2974     318185.57049    236200.05146                  23968295.3184
        40.2504         22.2504
  21822016.2064    -528378.94949   -393961.44547                  21822013.0284
        47.2504         38.2504
  21227262.4554    -250986.12549   -189346.18748                  21227258.4264
        51.5004         40.0004
  24361309.7284    -554785.21949   -426747.78946                  24361306.9224
        39.0004         22.2504
  22512437.6464    -357398.37949   -268862.56247                  22512435.0904
        45.2504         30.2504
  22951981.8464    -146073.85949   -112114.49647                  22951979.5384
        43.2504         29.0004
  23482882.4464     610533.47749    448237.14547                  23482879.9414
        42.5004         28.0004
 04  7  1 14 15  0.0000000  0 11G 6G10G15G16G17G18G21G22G26G29G30
  20435231.9924      52436.89849     34239.28948                  20435229.3144
        49.5004         41.5004
  23938748.0514     664634.97349    490731.92647                  23938746.1134
        39.0004         27.2504
  24360273.9074    -461310.51249   -354250.93046                  24360272.1814
        38.0004         21.7504
  23939066.5064    -355598.96549   -273964.23447                  23939064.0284
        43.5004         26.7504
  23974297.1174     349711.62549    260765.75046                  23974294.7904
        40.5004         22.5004
  21814050.9534    -570236.96549   -426578.07447                  21814047.2844
        47.0004         38.2504
  21223415.2434    -271203.98849   -205100.37148                  21223411.1114
        51.7504         40.0004
  24350563.9714    -611257.80949   -470752.40247                  24350560.7084
        38.7504         26.2504
  22507093.6024    -385480.30149   -290744.58647                  22507090.9554
        45.7504         29.5004
  22949811.5934    -157477.53149   -121000.46547                  22949808.9604
        42.2504         29.5004
  23491997.0004     658432.07049    485560.69547                  23491994.8784
        42.5004         29.0004
 04  7  1 14 15 15.0000000  0 11G 6G10G15G16G17G18G21G22G26G29G30
  20435968.1664      56306.72349     37254.71548                  20435965.5014
        49.5004         41.7504
  23947977.6144     713136.58249    528525.34046                  23947975.5044
        39.5004         25.5004
  24352170.3604    -503894.46549   -387433.23446                  24352168.8464
        36.0004         21.0004
  23932912.1564    -387941.83249   -299166.50046                  23932908.7494
        43.7504         25.2504
  23980283.6784     381172.06649    285280.32446                  23980281.3044
        41.0004         22.5004
  21806089.0184    -612078.29749   -459181.71947                  21806085.2354
        48.0004         37.7504
  21219562.5294    -291450.55949   -220876.92648                  21219558.6604
        51.7504         40.0004
  24339810.0404    -667769.49649   -514787.51247                  24339806.5084
        38.7504         26.7504
  22501760.1594    -413508.13749   -312584.47347                  22501757.3734
        45.2504         30.0004
  22947652.0774    -168827.25849   -129844.41847                  22947649.7744
        42.5004         30.7504
  23501100.7214     706273.47349    522839.67247                  23501098.7654
        42.5004         29.5004
 04  7  1 14 15 30.0000000  0 11G 6G10G15G16G17G18G21G22G26G29G30
  20436712.3254      60215.58649     40300.55948                  20436709.2804
        49.5004         41.5004
  23957199.5744     761597.88749    566287.37146                  23957196.7064
        40.0004         24.7504
  24344056.9474    -546533.53548   -420658.46146                  24344055.4644
        35.0004         21.7504
  23926765.9384    -420241.09449   -324334.78547                  23926763.2704
        44.0004         27.2504
  23986258.7894     412569.86349    309746.12146                  23986256.8194
        40.7504         23.0004
  21798130.3764    -653899.92249   -491769.99647                  21798127.0004
        47.0004         37.7504
  21215704.8544    -311722.98049   -236673.62948                  21215700.6134
        51.5004         40.0004
  24329049.1504    -724317.03949   -558850.51646                  24329046.1234
        38.5004         23.5004
  22496437.7144    -441478.51249   -334379.56647                  22496435.6064
        45.5004         31.0004
  22945502.6154    -180119.94149   -138643.92647                  22945500.7004
        43.0004         30.5004
  23510194.1834     754060.37149    560076.17647                  23510192.7984
        41.5004         28.5004
 04  7  1 14 15 45.0000000  0 11G 6G10G15G16G17G18G21G22G26G29G30
  20437463.9184      64165.88749     43378.70748                  20437461.1074
        49.5004         41.7504
  23966413.8014     810020.68049    604019.40246                  23966411.1964
        39.5004         25.5004
  24335933.4674    -589225.53949   -453924.95346                  24335931.8874
        36.2504         23.5004
  23920628.6744    -452494.31649   -349467.18747                  23920625.1784
        45.5004         27.0004
  23992221.7544     443907.43449    334164.97346                  23992219.8584
        41.0004         22.2504
  21790176.0284    -695699.44149   -524341.05147                  21790173.0944
        47.5004         37.5004
  21211842.6124    -332018.77349   -252488.53548                  21211838.7024
        51.7504         40.5004
  24318282.3024    -780898.01649   -602939.57846                  24318278.3254
        37.5004         22.2504
  22491126.4334    -469388.96949   -356127.98047                  22491124.6304
        45.0004         31.0004
  22943365.3134    -191353.23049   -147397.12547                  22943363.4304
        42.0004         30.5004
  23519278.0344     801794.45749    597271.52047                  23519276.5134
        41.7504         28.7504
 04  7  1 14 16  0.0000000  0 11G 6G10G15G16G17G18G21G22G26G29G30
  20438224.0424      68160.63349     46491.49648                  20438221.6414
        50.0004         41.7504
  23975621.8474     858407.89849    641723.70347                  23975619.5984
        40.5004         26.5004
  24327799.3704    -631967.41049   -487230.30546                  24327797.8004
        36.5004         24.0004
  23914500.1074    -484698.19949   -374561.12146                  23914496.1204
        43.7504         24.7504
  23998174.0714     475187.59849    358539.08646                  23998173.1744
        41.5004         22.7504
  21782226.6774    -737473.55949   -556892.31247                  21782223.7244
        48.0004         38.2504
  21207976.9534    -352334.96149   -268319.34448                  21207972.5914
        52.2504         40.5004
  24307509.2794    -837509.10949   -647052.14146                  24307505.6934
        39.2504         23.0004
  22485827.5874    -497235.98449   -377826.94547                  22485825.4044
        44.5004         30.5004
  22941239.5734    -202523.94549   -156101.59047                  22941237.2934
        43.7504         31.5004
  23528352.1234     849478.66049    634428.00847                  23528350.5194
        42.5004         29.0004
 04  7  1 14 16 15.0000000  0 11G 6G10G15G16G17G18G21G22G26G29G30
  20438993.0154      72202.60249     49641.05948                  20438990.5734
        49.0004         42.0004
  23984822.8814     906761.82849    679402.05947                  23984820.9794
        40.5004         26.5004
  24319656.9084    -674756.59849   -520572.49246                  24319655.4824
        36.5004         22.2504
  23908382.2114    -516849.94149   -399614.45746                  23908377.6644
        44.7504         24.7504
  24004116.8724     506413.12549    382870.60946                  24004115.8134
        42.2504         25.0004
  21774282.9534    -779219.32449   -589421.47747                  21774279.6104
        47.2504         38.2504
  21204107.1814    -372668.94549   -284164.02048                  21204102.8464
        51.7504         39.7504
  24296731.6294    -894147.28949   -691185.79746                  24296728.0104
        39.0004         25.2504
  22480540.5924    -525016.59049   -399474.16447                  22480538.8304
        45.0004         30.5004
  22939126.4214    -213629.16849   -164755.03147                  22939124.1034
        42.0004         31.0004
  23537417.0774     897115.08649    671547.27747                  23537415.9964
        42.5004         27.2504
 04  7  1 14 16 30.0000000  0 11G 6G10G15G16G17G18G21G22G26G29G30
  20439771.7654      76294.10249     52829.21548                  20439769.2174
        49.5004         41.7504
  23994018.2394     955084.44149    717056.00047                  23994016.6094
        40.5004         26.5004
  24311505.4724    -717590.66049   -553949.70346                  24311503.4764
        38.7504         21.7504
  23902274.3324    -548947.03949   -424625.21546                  23902269.8174
        44.0004         24.5004
  24010048.5244     537586.25449    407161.32046                  24010047.1104
        42.0004         24.5004
  21766344.4904    -820934.31649   -621926.66847                  21766341.1564
        47.0004         38.0004
  21200234.9484    -393018.49649   -300020.81648                  21200230.3814
        51.7504         39.7504
  24285949.3004    -950809.96949   -735338.53146                  24285945.4334
        41.0004         25.0004
  22475267.5314    -552728.18449   -421067.61347                  22475265.7034
        44.2504         30.0004
  22937026.4564    -224666.50449   -173355.56647                  22937024.0224
        42.2504         30.5004
  23546473.1094     944705.89549    708630.96947                  23546471.8944
        41.2504         27.2504
 04  7  1 14 16 45.0000000  0 11G 6G10G15G16G17G18G21G22G26G29G30
  20440559.9974      80435.47749     56056.25048                  20440557.1954
        49.5004         42.0004
  24003208.0954    1003375.67649    754685.49246                  24003206.1084
        40.2504         24.7504
  24303346.2824    -760469.34049   -587361.68446                  24303344.5604
        37.7504         22.2504
  23896176.9724    -580989.10549   -449593.10546                  23896171.4484
        43.2504         22.7504
  24015970.9284     568707.14149    431411.31346                  24015968.7464
        43.2504         24.5004
  21758412.5614    -862618.19149   -654407.60947                  21758408.9144
        47.5004         38.0004
  21196359.6514    -413383.46149   -315889.62548                  21196354.8194
        51.2504         39.7504
  24275162.3214   -1007496.89149   -779510.17646                  24275158.5094
        41.2504         25.2504
  22470007.4104    -580370.23849   -442606.88747                  22470005.4804
        45.0004         31.7504
  22934938.2314    -235635.66449   -181902.96147                  22934936.2994
        39.7504         30.2504
  23555520.0904     992250.60949    745678.78547                  23555519.3114
        43.2504         27.7504
 04  7  1 14 17  0.0000000  0 11G 6G10G15G16G17G18G21G22G26G29G30
  20441358.2944      84630.82849     59325.34448                  20441355.4404
        50.0004         41.7504
  24012392.3134    1051639.09449    792293.30147                  24012389.9744
        41.2504         25.7504
  24295178.8594    -803388.82849   -620805.44946                  24295177.2044
        39.0004         22.5004
  23890090.8604    -612971.87149   -474514.75046                  23890086.2654
        44.2504         24.0004
  24021884.4264     599779.73449    455623.71946                  24021881.8884
        43.7504         24.7504
  21750487.2194    -904266.67249   -686860.97347                  21750483.4944
        47.5004         38.0004
  21192482.0284    -433759.70749   -331767.23048                  21192477.7804
        50.7504         40.2504
  24264371.1014   -1064203.78149   -823697.37146                  24264367.1094
        39.5004         24.7504
  22464761.3384    -607938.37149   -464088.55547                  22464759.6904
        44.5004         31.0004
  22932864.7744    -246532.30149   -190393.83247                  22932862.5074
        42.2504         30.5004
  23564560.1014    1039753.06649    782693.65647                  23564558.5024
        43.5004         28.7504
 04  7  1 14 17 15.0000000  0 11G 6G10G15G16G17G18G21G22G26G29G30
  20442167.1914      88881.77049     62637.75048                  20442164.1764
        49.5004         41.5004
  24021571.8774    1099876.16849    829880.63747                  24021569.3374
        41.2504         26.2504
  24287003.5814    -846347.27749   -654279.57046                  24287003.2164
        39.5004         24.0004
  23884015.5404    -644893.34049   -499388.62546                  23884012.4614
        42.7504         24.5004
  24027787.7724     630805.74649    479799.79346                  24027786.5324
        43.2504         24.5004
  21742568.8334    -945877.97749   -719285.36747                  21742565.5134
        47.2504         38.0004
  21188602.7934    -454145.61749   -347652.35948                  21188598.3554
        51.7504         40.5004
  24253576.8854   -1120928.73049   -867898.64146                  24253572.2784
        40.5004         24.5004
  22459529.3074    -635430.58249   -485511.05547                  22459527.6694
        45.0004         31.5004
  22930805.9384    -257354.87949   -198827.01647                  22930802.8444
        43.0004         30.5004
  23573591.5964    1087214.59449    819676.64147                  23573590.1034
        42.5004         28.7504
 04  7  1 14 17 30.0000000  0 11G 6G10G15G16G17G18G21G22G26G29G30
  20442986.8544      93188.43049     65993.57448                  20442984.0144
        49.0004         41.5004
  24030746.3624    1148086.52749    867447.14146                  24030743.2264
        40.5004         25.0004
  24278821.9874    -889344.85249   -687784.16046                  24278820.9014
        39.0004         22.7504
  23877953.4804    -676753.48449   -524214.72747                  23877949.2294
        43.7504         26.2504
  24033682.6414     661785.14149    503939.54746                  24033682.3884
        43.0004         24.7504
  21734657.8734    -987451.98449   -751680.69547                  21734653.9484
        47.7504         37.7504
  21184721.5414    -474541.29349   -363545.10948                  21184717.5234
        52.0004         40.7504
  24242779.2254   -1177671.45749   -912113.77046                  24242774.3434
        40.0004         24.5004
  22454312.7354    -662846.61749   -506874.19547                  22454310.6564
        44.7504         30.5004
  22928760.5934    -268103.14549   -207202.29347                  22928757.7394
        42.5004         30.0004
  23582615.1834    1134634.62949    856627.27347                  23582613.5444
        41.7504         27.7504
 04  7  1 14 17 45.0000000  0 11G 6G10G15G16G17G18G21G22G26G29G30
  20443817.3804      97554.31349     69395.55148                  20443814.6974
        50.7504         42.0004
  24039915.1744    1196273.26249    904995.21146                  24039913.2724
        41.0004         25.0004
  24270632.6194    -932378.02349   -721316.52046                  24270631.7834
        40.2504         24.0004
  23871902.2684    -708548.69949   -548990.21546                  23871898.6234
        43.5004         25.0004
  24039569.8264     692721.37149    528045.65246                  24039568.8634
        43.7504         22.5004
  21726754.1334   -1028985.04349   -784044.12547                  21726750.5544
        47.2504         38.0004
  21180839.4314    -494943.14849   -379442.66448                  21180835.3304
        52.0004         40.0004
  24231978.0044   -1234428.17649   -956339.78146                  24231974.0884
        39.7504         22.2504
  22449111.0274    -690182.70349   -528175.04347                  22449108.6694
        43.7504         31.2504
  22926730.3224    -278773.51249   -215516.87947                  22926727.0034
        42.5004         30.7504
  23591631.2494    1182016.52049    893548.18047                  23591629.8634
        42.5004         27.7504
 04  7  1 14 18  0.0000000  0 11G 6G10G15G16G17G18G21G22G26G29G30
  20444659.7484     101980.29749     72844.35948                  20444657.0924
        48.7504         42.0004
  24049080.5644    1244436.94949    942525.31646                  24049078.5354
        39.7504         25.0004
  24262437.3714    -975446.03149   -754875.99247                  24262436.1854
        40.0004         26.0004
  23865864.7074    -740277.84849   -573714.21946                  23865861.3554
        43.7504         25.5004
  24045448.8574     723615.17249    552118.69946                  24045446.7314
        43.5004         22.7504
  21718858.8374   -1070476.12149   -816374.83247                  21718855.1524
        48.0004         38.5004
  21176956.0624    -515350.40249   -395344.42648                  21176951.6854
        51.5004         40.2504
  24221175.1244   -1291197.99249  -1000575.99646                  24221171.5394
        40.5004         24.5004
  22443924.5814    -717437.60549   -549412.63747                  22443922.3184
        43.2504         32.0004
  22924714.8464    -289365.05949   -223770.02047                  22924711.8974
        42.0004         30.0004
  23600640.3704    1229360.57849    930439.60247                  23600639.5444
        41.7504         28.2504
 04  7  1 14 18 15.0000000  0 11G 6G10G15G16G17G18G21G22G26G29G30
  20445513.7654     106466.65649     76340.18848                  20445511.0894
        49.5004         41.7504
  24058241.3114    1292577.37549    980037.32046                  24058238.9124
        40.5004         25.5004
  24254235.1204   -1018548.73049   -788462.52346                  24254234.4774
        40.7504         25.2504
  23859840.2624    -771940.58249   -598386.49247                  23859836.6574
        45.5004         28.2504
  24051319.6514     754466.52749    576158.69546                  24051317.9004
        42.0004         23.2504
  21710971.3594   -1111924.89149   -848672.57047                  21710967.6454
        47.5004         38.0004
  21173071.4694    -535763.09449   -411250.42248                  21173067.3924
        51.7504         40.2504
  24210369.9254   -1347980.55949  -1044822.13347                  24210366.4664
        41.2504         26.0004
  22438753.3804    -744610.93049   -570586.64547                  22438751.3514
        44.0004         32.2504
  22922713.6114    -299877.55949   -231961.57047                  22922711.7804
        42.0004         30.5004
  23609643.2754    1276666.53549    967301.35247                  23609641.8044
        42.2504         27.7504
 04  7  1 14 18 30.0000000  0 11G 6G10G15G16G17G18G21G22G26G29G30
  20446378.8824     111014.85549     79884.22348                  20446376.4194
        49.0004         41.7504
  24067398.6014    1340695.66449   1017532.03947                  24067395.9334
        41.5004         27.0004
  24246027.0974   -1061684.72749   -822074.98846                  24246026.0204
        39.7504         24.7504
  23853827.6814    -803535.31649   -623005.78947                  23853824.5284
        44.0004         28.0004
  24057182.8254     785277.09049    600166.87946                  24057180.8744
        43.0004         22.0004
  21703092.2064   -1153329.75849   -880936.10947                  21703088.4714
        48.0004         37.5004
  21169186.4384    -556179.61749   -427159.40248                  21169181.9694
        52.0004         40.2504
  24199562.9724   -1404774.05549  -1089076.79746                  24199558.9974
        40.5004         25.2504
  22433598.3364    -771700.87549   -591695.70747                  22433596.6214
        44.5004         33.0004
  22920728.7364    -310309.25849   -240090.17647                  22920726.0164
        40.5004         31.2504
  23618638.0554    1323935.49649   1004134.28147                  23618636.6114
        42.2504         26.5004
 04  7  1 14 18 45.0000000  0 11G 6G10G15G16G17G18G21G22G26G29G30
  20447257.0654     115627.92649     83478.81348                  20447254.4264
        49.5004         41.0004
  24076551.7184    1388794.62549   1055011.73446                  24076548.9804
        40.5004         24.5004
  24237812.8374   -1104851.00449   -855711.03546                  24237811.5964
        41.0004         24.0004
  23847828.9744    -835058.85549   -647569.60547                  23847825.5024
        44.0004         27.5004
  24063038.7794     816049.61349    624145.45746                  24063037.1544
        43.0004         22.2504
  21695222.0724   -1194687.55149   -913162.96547                  21695217.8534
        47.5004         38.2504
  21165300.9924    -576596.99649   -443069.05948                  21165296.6924
        51.2504         40.0004
  24188754.1774   -1461575.28149  -1133337.48447                  24188750.1294
        42.0004         26.5004
  22428459.9614    -798704.25449   -612737.29747                  22428458.3264
        44.5004         32.0004
  22918759.7674    -320657.19949   -248153.52347                  22918757.5334
        44.2504         31.0004
  23627626.4364    1371170.04349   1040940.36347                  23627625.0814
        43.5004         27.2504
 04  7  1 14 19  0.0000000  0 11G 6G10G15G16G17G18G21G22G26G29G30
  20448147.4344     120306.45749     87124.40648                  20448144.5774
        50.2504         41.2504
  24085700.7734    1436874.25449   1092476.33247                  24085697.7864
        42.0004         26.0004
  24229592.2344   -1148047.12949   -889370.33647                  24229591.3454
        42.0004         26.5004
  23841843.9954    -866510.49649   -672077.38347                  23841841.1704
        44.2504         26.7504
  24068886.9804     846784.76249    648094.89546                  24068886.2234
        42.5004         23.0004
  21687361.0574   -1235997.69149   -945352.67647                  21687357.3684
        48.7504         38.0004
  21161415.6454    -597014.93049   -458979.14848                  21161411.4374
        51.7504         40.2504
  24177943.1744   -1518383.56249  -1177603.68747                  24177939.6934
        42.2504         26.7504
  22423337.6144    -825620.14849   -633710.71547                  22423336.2954
        43.7504         31.5004
  22916806.5404    -330920.82449   -256151.14847                  22916804.7124
        43.7504         31.2504
  23636609.0324    1418370.43049   1077719.87147                  23636607.1054
        43.0004         26.2504
 04  7  1 14 19 15.0000000  0 11G 6G10G15G16G17G18G21G22G26G29G30
  20449050.3624     125051.91849     90822.16048                  20449047.4144
        51.0004         42.0004
  24094846.2294    1484935.78549   1129926.85246                  24094844.5044
        42.2504         25.0004
  24221367.4014   -1191271.44549   -923051.62546                  24221365.6944
        41.2504         22.5004
  23835873.0834    -897888.68749   -696527.94547                  23835869.0914
        43.7504         27.7504
  24074729.5094     877483.91449    672016.26646                  24074728.1264
        43.5004         24.2504
  21679509.1074   -1277258.53149   -977503.98447                  21679505.3974
        47.0004         38.5004
  21157530.5964    -617431.89549   -474888.47748                  21157525.8554
        51.5004         40.0004
  24167132.3054   -1575197.15649  -1221874.05147                  24167128.2144
        42.5004         27.0004
  22418232.8484    -852446.78149   -654614.58647                  22418230.7994
        41.7504         31.5004
  22914869.6824    -341098.26649   -264081.60947                  22914867.4184
        43.5004         31.0004
  23645584.5934    1465537.73849   1114473.57047                  23645582.4964
        44.2504         28.0004
 04  7  1 14 19 30.0000000  0 11G 6G10G15G16G17G18G21G22G26G29G30
  20449966.0944     129865.75049     94573.18848                  20449963.4264
        50.2504         41.5004
  24103988.7004    1532980.12949   1167363.97346                  24103986.8534
        42.0004         25.2504
  24213137.1594   -1234522.80149   -956753.99246                  24213135.2524
        41.2504         23.0004
  23829916.7694    -929191.80149   -720920.00847                  23829912.3144
        45.0004         27.5004
  24080564.8484     908148.25049    695910.51246                  24080562.9184
        43.7504         24.2504
  21671667.3834   -1318468.52049  -1009615.66047                  21671663.8024
        48.7504         38.0004
  21153645.8654    -637846.61749   -490796.06248                  21153641.6984
        51.7504         40.2504
  24156320.6494   -1632014.51249  -1266147.30547                  24156316.4664
        42.5004         25.7504
  22413145.4104    -879182.53549   -675447.65247                  22413142.8744
        44.2504         31.5004
  22912949.5624    -351188.34449   -271944.02747                  22912947.6394
        42.5004         31.5004
  23654554.3274    1512672.78949   1151202.15647                  23654552.5964
        44.5004         29.0004
 04  7  1 14 19 45.0000000  0 11G 6G10G15G16G17G18G21G22G26G29G30
  20450895.3284     134748.10249     98377.59848                  20450892.6994
        49.7504         42.0004
  24113128.0614    1581007.09049   1204787.57446                  24113125.5314
        41.5004         25.2504
  24204901.4344   -1277800.94549   -990477.25046                  24204899.1074
        41.7504         22.2504
  23823973.4904    -960419.48449   -745253.26646                  23823969.8154
        43.2504         25.5004
  24086393.3044     938778.13749    719777.90246                  24086391.4864
        43.5004         24.7504
  21663835.0314   -1359627.44149  -1041687.54747                  21663830.7454
        48.5004         38.5004
  21149761.3994    -658258.81249   -506701.68048                  21149757.4454
        51.5004         40.0004
  24145507.6884   -1688835.21549  -1310423.19146                  24145503.0414
        41.5004         25.2504
  22408074.8534    -905826.98049   -696209.54347                  22408073.3244
        43.0004         31.5004
  22911046.8254    -361190.72749   -279738.09047                  22911044.0854
        44.5004         30.7504
  23663517.2744    1559775.55949   1187905.58247                  23663516.1214
        44.5004         28.5004
 04  7  1 14 20  0.0000000  0 11G 6G10G15G16G17G18G21G22G26G29G30
  20451838.1934     139701.09049    102237.05548                  20451834.9744
        50.0004         42.0004
  24122263.7624    1629018.45749   1242198.99647                  24122261.9744
        40.7504         25.7504
  24196660.7784   -1321103.93749  -1024219.82446                  24196659.1234
        41.7504         22.5004
  23818045.3684    -991569.54749   -769526.04346                  23818041.5414
        43.5004         25.0004
  24092215.8534     969375.37949    743619.86346                  24092214.8034
        42.2504         22.5004
  21656012.8964   -1400733.03949  -1073717.87947                  21656009.4194
        49.0004         38.5004
  21145877.9674    -678666.57849   -522603.82848                  21145873.7324
        51.2504         40.2504
  24134694.5334   -1745657.12149  -1354700.00847                  24134690.2974
        41.7504         26.0004
  22403022.4914    -932377.79349   -716898.48847                  22403020.6414
        44.0004         31.5004
  22909160.3364    -371103.25849   -287462.14547                  22909157.6154
        43.5004         31.5004
  23672474.0254    1606847.57049   1224585.05147                  23672473.0784
        42.5004         26.7504
 04  7  1 14 20 15.0000000  0 11G 6G10G15G16G17G18G21G22G26G29G30
  20452793.7654     144724.85249    106151.66848                  20452791.3454
        50.0004         41.5004
  24131397.4924    1677014.05549   1279598.14147                  24131396.2394
        41.0004         26.7504
  24188416.1944   -1364431.63349  -1057981.67646                  24188414.3774
        41.2504         23.7504
  23812132.8044   -1022641.66049   -793738.07047                  23812129.2574
        43.2504         26.2504
  24098032.1824     999940.14549    767436.51646                  24098030.8354
        43.5004         22.7504
  21648200.9314   -1441784.88349  -1105706.32847                  21648197.1754
        48.5004         38.5004
  21141995.0714    -699069.74649   -538502.42248                  21141991.2804
        52.0004         40.5004
  24123881.8844   -1802479.77349  -1398977.41047                  24123878.1354
        41.7504         26.5004
  22397987.7324    -958834.43449   -737514.04347                  22397986.2444
        42.5004         31.5004
  22907291.0414    -380925.77049   -295116.04747                  22907288.2894
        41.2504         31.2504
  23681426.8594    1653888.64549   1261240.35947                  23681424.8474
        43.0004         26.0004
 04  7  1 14 20 30.0000000  0 11G 6G10G15G16G17G18G21G22G26G29G30
  20453763.5504     149820.22349    110122.07048                  20453760.8704
        50.0004         41.5004
  24140528.5504    1724994.25849   1316985.26247                  24140526.4684
        42.7504         25.7504
  24180166.9774   -1407783.40649  -1091762.24247                  24180164.9884
        42.0004         25.7504
  23806234.6494   -1053634.90649   -817888.66846                  23806231.1374
        43.7504         24.5004
  24103842.4124    1030473.08649    791228.42246                  24103840.6344
        42.5004         23.0004
  21640399.3874   -1482782.21949  -1137652.30547                  21640395.3964
        48.5004         39.0004
  21138113.4824    -719467.70349   -554396.93448                  21138109.9674
        52.0004         40.2504
  24113068.9964   -1859302.29749  -1443254.70747                  24113065.5514
        43.0004         28.0004
  22392971.5594    -985195.94149   -758055.48447                  22392969.6334
        43.5004         32.0004
  22905438.9604    -390657.18749   -302698.97347                  22905436.5824
        43.2504         30.5004
  23690372.3234    1700899.17249   1297871.93047                  23690370.6434
        44.7504         26.5004
 04  7  1 14 20 45.0000000  0 11G 6G10G15G16G17G18G21G22G26G29G30
  20454747.1584     154988.36749    114149.18848                  20454744.3694
        50.5004         41.7504
  24149655.9424    1772959.93049   1354361.10246                  24149653.9524
        41.7504         25.5004
  24171912.9574   -1451157.89849  -1125560.55146                  24171911.7094
        42.5004         25.5004
  23800352.3484   -1084547.94149   -841976.76247                  23800348.5474
        44.0004         26.0004
  24109647.3654    1060975.44949    814996.45746                  24109645.6944
        42.2504         23.0004
  21632608.2994   -1523723.64549  -1169554.71947                  21632604.3264
        49.2504         38.7504
  21134233.5144    -739859.33649   -570286.52048                  21134229.4994
        52.2504         40.2504
  24102256.1774   -1916123.15649  -1487530.69547                  24102253.0954
        41.7504         27.7504
  22387973.6534   -1011460.76249   -778521.58247                  22387971.8494
        45.0004         31.5004
  22903604.9714    -400296.25049   -310209.94947                  22903602.4444
        43.5004         31.0004
  23699312.0664    1747879.82849   1334480.19547                  23699311.4894
        43.0004         26.7504
 04  7  1 14 21  0.0000000  0 11G 6G10G15G16G17G18G21G22G26G29G30
  20455744.8014     160230.06649    118233.61348                  20455741.6634
        50.5004         42.0004
  24158780.3924    1820911.24649   1391725.74647                  24158778.2714
        42.2504         26.0004
  24163654.5384   -1494554.77749  -1159376.30546                  24163653.2294
        42.2504         24.7504
  23794485.5864   -1115379.99649   -866001.73447                  23794481.7194
        44.5004         26.7504
  24115445.3004    1091447.69949    838741.05146                  24115443.7764
        41.7504         22.5004
  21624828.4704   -1564608.55949  -1201413.09047                  21624824.6604
        49.7504         38.2504
  21130354.2214    -760243.99649   -586170.68048                  21130350.2384
        51.7504         40.0004
  24091443.8114   -1972941.62949  -1531804.82447                  24091440.5414
        40.2504         26.5004
  22382994.0144   -1037628.26249   -798911.83647                  22382992.2544
        45.2504         32.0004
  22901788.2084    -409842.43749   -317648.52747                  22901786.7774
        42.7504         31.0004
  23708247.5004    1794830.90249   1371065.41447                  23708246.1374
        43.0004         28.2504
 04  7  1 14 21 15.0000000  0 11G 6G10G15G16G17G18G21G22G26G29G30
  20456756.2444     165546.27749    122376.10248                  20456753.5774
        50.5004         42.0004
  24167902.4834    1868849.05149   1429079.86747                  24167900.6654
        42.7504         26.5004
  24155392.9234   -1537972.84849  -1193208.57846                  24155390.5614
        42.7504         24.2504
  23788634.6014   -1146129.71549   -889962.58247                  23788630.4654
        45.0004         27.7504
  24121238.7324    1121891.05149    862463.09046                  24121236.8704
        41.5004         21.7504
  21617059.2614   -1605435.51649  -1233226.31247                  21617055.1194
        49.5004         38.0004
  21126476.8594    -780620.39549   -602048.39548                  21126472.2094
        51.2504         40.7504
  24080632.6764   -2029756.34049  -1576076.02747                  24080627.6414
        42.7504         25.7504
  22378033.0984   -1063696.71949   -819224.91447                  22378031.3974
        44.7504         32.5004
  22899989.5744    -419294.41449   -325013.70347                  22899987.8394
        43.5004         31.5004
  23717176.0234    1841753.16049   1407628.17647                  23717175.1084
        43.2504         26.5004
 04  7  1 14 21 30.0000000  0 11G 6G10G15G16G17G18G21G22G26G29G30
  20457782.7114     170939.41849    126578.53948                  20457780.2584
        50.5004         41.5004
  24177022.7624    1916775.25449   1466424.92646                  24177021.6334
        41.2504         24.2504
  24147126.4354   -1581409.81649  -1227055.56246                  24147124.5254
        41.5004         22.5004
  23782798.6914   -1176794.70749   -913857.39547                  23782795.3184
        44.0004         28.5004
  24127027.1434    1152307.62149    886164.25846                  24127024.5604
        41.2504         22.5004
  21609301.2764   -1646202.16449  -1264992.52747                  21609297.6454
        48.5004         37.5004
  21122601.4254    -800986.50849   -617918.10248                  21122596.8114
        51.5004         41.0004
  24069822.6424   -2086564.82849  -1620342.43046                  24069816.8884
        42.5004         25.5004
  22373091.6894   -1089663.71149   -839458.93747                  22373089.9654
        45.7504         31.5004
  22898209.2264    -428649.94949   -332303.72347                  22898207.2424
        44.5004         30.7504
  23726099.6494    1888648.53949   1444169.97747                  23726098.6554
        42.2504         26.7504
 04  7  1 14 21 45.0000000  0 11G 6G10G15G16G17G18G21G22G26G29G30
  20458823.7314     176409.90249    130841.25048                  20458820.9164
        50.2504         42.0004
  24186140.6514    1964690.05549   1503761.09047                  24186139.2384
        42.2504         26.0004
  24138857.4984   -1624865.29349  -1260916.94546                  24138855.7014
        43.5004         24.5004
  23776980.7604   -1207374.38749   -937685.75047                  23776976.3134
        44.5004         27.0004
  24132809.9144    1182697.76249    909844.86346                  24132808.1154
        42.0004         23.0004
  21601555.4284   -1686907.91449  -1296711.28947                  21601552.1554
        49.7504         38.5004
  21118727.5184    -821341.93449   -633779.47348                  21118723.3514
        50.7504         40.5004
  24059013.1414   -2143366.43449  -1664603.43047                  24059009.1584
        42.2504         27.0004
  22368169.5904   -1115528.55149   -859613.36747                  22368167.6624
        45.0004         31.2504
  22896448.0714    -437908.41449   -339518.12547                  22896445.3214
        44.5004         31.0004
  23735018.8004    1935516.98449   1480690.81647                  23735017.5764
        43.0004         26.2504
 04  7  1 14 22  0.0000000  0 11G 6G10G15G16G17G18G21G22G26G29G30
  20459879.1804     181957.52349    135164.06348                  20459876.3754
        49.2504         41.5004
  24195256.5774    2012592.70349   1541087.82047                  24195254.6384
        42.2504         26.2504
  24130584.6164   -1668339.55949  -1294793.02746                  24130582.9114
        43.0004         23.7504
  23771177.0764   -1237869.04349   -961447.81247                  23771174.1214
        45.5004         29.2504
  24138587.7684    1213061.18449    933504.62946                  24138586.3604
        40.0004         22.0004
  21593821.0584   -1727553.02049  -1328382.80147                  21593817.0894
        49.5004         38.5004
  21114855.9604    -841687.03949   -649632.80548                  21114852.0084
        51.5004         40.0004
  24048205.7024   -2200161.31649  -1708859.18447                  24048202.7184
        43.7504         27.7504
  22363267.6704   -1141291.26649   -879688.21547                  22363265.4104
        45.5004         32.0004
  22894704.5224    -447069.99249   -346657.02047                  22894702.1644
        43.5004         30.7504
  23743932.1544    1982357.85249   1517190.16047                  23743931.0674
        43.5004         26.0004
 04  7  1 14 22 15.0000000  0 11G 6G10G15G16G17G18G21G22G26G29G30
  20460950.0104     187585.05149    139549.13748                  20460947.1624
        50.5004         41.2504
  24204370.2914    2060485.72749   1578407.02746                  24204367.9644
        42.0004         25.5004
  24122309.4444   -1711829.76649  -1328681.51646                  24122306.1074
        42.2504         23.2504
  23765390.8654   -1268275.46949   -985141.15247                  23765387.7494
        43.7504         28.5004
  24144361.4314    1243400.62949    957145.72346                  24144360.4154
        41.7504         22.7504
  21586098.5074   -1768134.40249  -1360004.65647                  21586095.0904
        49.2504         38.2504
  21110987.0794    -862018.86749   -665475.79748                  21110982.6644
        51.5004         39.7504
  24037399.5304   -2256946.26249  -1753107.21147                  24037395.8624
        43.0004         26.5004
  22358385.3024   -1166948.74249   -899681.05147                  22358382.3504
        46.2504         31.7504
  22892979.8914    -456131.78149   -353718.16447                  22892977.5614
        43.5004         30.0004
  23752840.4724    2029173.67249   1553670.00046                  23752839.3394
        42.7504         25.2504
 04  7  1 14 22 30.0000000  0 11G 6G10G15G16G17G18G21G22G26G29G30
  20462036.2494     193292.35949    143996.37548                  20462032.9914
        51.2504         41.5004
  24213481.7554    2108368.64849   1615718.36747                  24213480.1254
        41.7504         25.7504
  24114029.2634   -1755336.24649  -1362582.64846                  24114027.1844
        41.5004         23.0004
  23759622.0884   -1298593.69149  -1008765.75447                  23759618.0984
        44.0004         27.7504
  24150130.4454    1273715.88749    980767.96946                  24150129.0384
        41.0004         22.2504
  21578388.3674   -1808652.12549  -1391576.90247                  21578384.3674
        50.0004         38.2504
  21107120.5004    -882337.74649   -681308.69148                  21107116.2734
        52.0004         40.5004
  24026595.8294   -2313721.47349  -1797347.63747                  24026592.5404
        42.5004         27.2504
  22353522.4484   -1192500.78949   -919591.74247                  22353520.5414
        44.5004         32.5004
  22891273.8474    -465093.94149   -360701.66447                  22891272.2174
        43.7504         31.0004
  23761744.5314    2075963.88749   1590129.87147                  23761743.1044
        43.2504         26.2504
 04  7  1 14 22 45.0000000  0 11G 6G10G15G16G17G18G21G22G26G29G30
  20463137.4354     199079.62549    148505.92648                  20463134.7924
        51.2504         41.0004
  24222591.7354    2156241.30149   1653021.67246                  24222589.2524
        40.5004         24.2504
  24105746.9664   -1798858.89549  -1396496.37946                  24105744.7894
        41.5004         22.2504
  23753869.0524   -1328823.53949  -1032321.50847                  23753864.9124
        43.0004         26.5004
  24155893.4894    1304007.14149   1004371.49646                  24155893.3174
        41.7504         22.5004
  21570690.0814   -1849105.94949  -1423099.36347                  21570686.5094
        50.2504         38.2504
  21103256.3204    -902643.53949   -697131.39148                  21103252.2304
        52.0004         40.5004
  24015793.1014   -2370486.50049  -1841580.12947                  24015789.8164
        42.0004         26.7504
  22348680.4874   -1217947.12949   -939420.05147                  22348678.6894
        46.0004         31.2504
  22889587.9004    -473956.14149   -367607.27347                  22889585.5064
        44.0004         31.0004
  23770644.4164    2122728.00049   1626569.39147                  23770642.3764
        44.0004         25.7504
 04  7  1 14 23  0.0000000  0 11G 6G10G15G16G17G18G21G22G26G29G30
  20464254.0704     204948.16449    153078.80948                  20464251.4164
        51.0004         41.7504
  24231699.7764    2204104.59449   1690317.71146                  24231698.2274
        40.5004         24.2504
  24097462.7634   -1842396.29349  -1430421.64546                  24097460.2324
        42.0004         24.0004
  23748132.4404   -1358963.58649  -1055807.23846                  23748130.1064
        42.2504         25.5004
  24161653.7324    1334275.63749   1027957.30146                  24161652.6654
        41.0004         22.2504
  21563004.4284   -1889494.29749  -1454570.80547                  21563000.8104
        49.7504         38.5004
  21099395.2334    -922934.91849   -712942.86748                  21099390.9034
        52.0004         40.2504
  24004993.7294   -2427239.79349  -1885803.48447                  24004989.1384
        43.5004         26.0004
  22343858.6454   -1243286.16049   -959164.75047                  22343856.8324
        46.0004         32.7504
  22887920.5964    -482717.07049   -374433.98047                  22887918.5154
        44.2504         31.5004
  23779537.6294    2169467.09449   1662989.42247                  23779536.4784
        44.0004         27.5004
 04  7  1 14 23 15.0000000  0 11G 6G10G15G16G17G18G21G22G26G29G30
  20465386.4144     210897.50449    157714.64848                  20465383.9634
        50.7504         42.2504
  24240806.1594    2251957.85249   1727605.92646                  24240803.9324
        41.7504         25.0004
  24089175.1834   -1885949.02349  -1464358.83646                  24089172.6154
        43.0004         24.7504
  23742414.6084   -1389014.02349  -1079223.17246                  23742411.7264
        44.0004         25.0004
  24167410.3294    1364520.80949   1051524.91046                  24167408.4694
        42.0004         22.7504
  21555331.0884   -1929817.81649  -1485991.73047                  21555327.3884
        50.0004         38.0004
  21095536.6034    -943212.50049   -728743.57448                  21095532.4004
        51.5004         39.7504
  23994196.1524   -2483981.65649  -1930017.93047                  23994191.5394
        43.2504         25.7504
  22339057.3844   -1268517.99649   -978825.92247                  22339055.1954
        45.5004         32.5004
  22886272.9054    -491377.14849   -381182.10547                  22886270.0914
        43.0004         30.5004
  23788427.0884    2216180.40249   1699389.35247                  23788426.0124
        44.5004         26.5004
 04  7  1 14 23 30.0000000  0 11G 6G10G15G16G17G18G21G22G26G29G30
  20466533.8504     216929.54749    162414.93048                  20466531.5614
        50.0004         41.7504
  24249910.6324    2299802.62149   1764887.52746                  24249909.1534
        41.0004         25.2504
  24080884.7794   -1929515.18449  -1498306.51246                  24080882.1284
        43.0004         25.5004
  23736712.8374   -1418972.76649  -1102567.64547                  23736710.1494
        42.5004         26.7504
  24173161.3224    1394744.50449   1075075.83246                  24173159.7204
        42.0004         23.0004
  21547670.7664   -1970074.31649  -1517360.43747                  21547667.3734
        50.2504         38.5004
  21091680.5014    -963474.30949   -744532.00448                  21091676.5424
        51.5004         39.5004
  23983401.3894   -2540709.92649  -1974221.77746                  23983397.0564
        43.7504         25.5004
  22334276.7354   -1293640.51249   -998401.90647                  22334273.8114
        46.0004         32.0004
  22884644.3724    -499934.42649   -387850.11347                  22884642.0664
        43.5004         31.5004
  23797311.9214    2262869.35249   1735770.31647                  23797311.0274
        44.5004         26.5004
 04  7  1 14 23 45.0000000  0 11G 6G10G15G16G17G18G21G22G26G29G30
  20467697.8814     223043.28149    167178.86348                  20467695.0274
        51.0004         42.2504
  24259013.7054    2347637.43449   1802161.37546                  24259012.0224
        42.0004         24.7504
  24072591.6754   -1973095.98449  -1532265.56246                  24072589.3144
        41.0004         22.5004
  23731029.6114   -1448840.83649  -1125841.43046                  23731026.7284
        42.0004         25.2504
  24178908.7024    1424945.61749   1098609.10246                  24178906.5694
        42.0004         22.2504
  21540022.7004   -2010264.81649  -1548677.68747                  21540018.9984
        50.2504         38.2504
  21087827.8114    -983721.45349   -760309.00448                  21087823.5884
        51.0004         40.0004
  23972608.5954   -2597425.56649  -2018415.78946                  23972604.2904
        42.5004         25.2504
  22329516.3534   -1318654.59449  -1017893.41047                  22329513.8974
        45.0004         32.0004
  22883035.7324    -508389.90649   -394438.78547                  22883033.2494
        44.0004         31.5004
  23806191.8674    2309532.45749   1772131.14546                  23806190.1364
        44.5004         25.2504
 04  7  1 14 24  0.0000000  0 11G 6G10G15G16G17G18G21G22G26G29G30
  20468876.9784     229240.42249    172007.79748                  20468874.1074
        51.0004         41.7504
  24268114.6784    2395463.66049   1839428.53946                  24268112.5444
        41.5004         24.5004
  24064295.4424   -2016689.85249  -1566234.79346                  24064293.0854
        40.0004         21.5004
  23725364.1674   -1478616.48849  -1149043.25047                  23725360.4584
        43.7504         26.0004
  24184651.8404    1455125.78549   1122126.08646                  24184649.6254
        42.2504         22.0004
  21532387.5624   -2050387.37149  -1579942.02747                  21532383.4044
        50.2504         38.7504
  21083978.0154   -1003952.38349   -776073.36748                  21083973.8884
        52.0004         40.2504
  23961818.6774   -2654126.64849  -2062598.46147                  23961814.9384
        43.5004         26.2504
  22324777.1824   -1343558.25849  -1037298.85547                  22324775.6224
        46.0004         33.0004
  22881446.1514    -516741.70749   -400946.68747                  22881443.8004
        44.7504         31.0004
  23815066.8164    2356170.94149   1808472.80947                  23815064.7624
        44.0004         26.5004
 04  7  1 14 24 15.0000000  0 11G 6G10G15G16G17G18G21G22G26G29G30
  20470072.3684     235522.23049    176902.70748                  20470069.5204
        50.7504         42.0004
  24277213.1874    2443282.19149   1876689.71546                  24277212.2374
        41.0004         25.0004
  24055997.6594   -2060295.35249  -1600213.14546                  24055994.4694
        41.0004         20.5004
  23719715.9174   -1508298.16049  -1172171.84847                  23719711.8444
        44.0004         25.7504
  24190390.6704    1485286.18849   1145627.67246                  24190389.2644
        41.2504         22.7504
  21524765.7984   -2090440.66849  -1611152.39147                  21524761.9804
        50.0004         38.5004
  21080131.4464   -1024165.77349   -791824.05548                  21080127.3194
        51.7504         40.0004
  23951031.9934   -2710811.60949  -2106768.54747                  23951028.6834
        44.0004         26.7504
  22320059.8604   -1368349.92249  -1056617.03547                  22320058.1734
        44.5004         32.2504
  22879876.8034    -524988.56649   -407372.82847                  22879874.4174
        44.5004         30.5004
  23823937.2874    2402785.88749   1844796.10547                  23823935.8524
        43.7504         26.0004
 04  7  1 14 24 30.0000000  0 11G 6G10G15G16G17G18G21G22G26G29G30
  20471283.8104     241888.42249    181863.36348                  20471280.8244
        50.7504         41.7504
  24286311.8714    2491092.50849   1913944.44946                  24286310.4854
        40.5004         23.2504
  24047697.3044   -2103912.76249  -1634200.71546                  24047694.4094
        42.5004         21.0004
  23714085.8014   -1537885.85549  -1195227.20747                  23714081.6814
        45.0004         26.0004
  24196126.7134    1515426.66049   1169113.70346                  24196125.2444
        41.5004         23.0004
  21517156.8254   -2130424.83649  -1642308.88347                  21517153.5214
        50.5004         39.0004
  21076288.4894   -1044361.91849   -807561.32848                  21076284.1674
        51.7504         40.2504
  23940247.9484   -2767480.58649  -2150926.16047                  23940245.1374
        44.5004         27.7504
  22315363.1794   -1393029.67649  -1075848.00447                  22315361.4024
        45.0004         31.5004
  22878326.9834    -533130.75849   -413717.40647                  22878325.0994
        43.2504         29.7504
  23832803.3354    2449376.56649   1881100.48047                  23832801.9434
        44.0004         26.2504
 04  7  1 14 24 45.0000000  0 11G 6G10G15G16G17G18G21G22G26G29G30
  20472511.8484     248340.15649    186890.67648                  20472508.9124
        50.2504         42.0004
  24295409.2684    2538895.21549   1951193.28946                  24295406.4744
        41.0004         23.5004
  24039395.3384   -2147541.12949  -1668196.86746                  24039393.8624
        41.2504         22.0004
  23708473.7534   -1567378.54749  -1218208.52347                  23708470.2224
        44.7504         27.5004
  24201858.0034    1545548.07449   1192584.89546                  24201857.6254
        39.5004         23.5004
  21509561.6174   -2170338.63749  -1673410.54347                  21509558.0944
        50.0004         39.2504
  21072448.5834   -1064539.93449   -823284.46948                  21072444.6204
        51.5004         40.5004
  23929468.1144   -2824132.39549  -2195070.42247                  23929463.9194
        44.5004         27.5004
  22310688.3434   -1417596.09449  -1094990.66447                  22310686.1294
        45.0004         33.0004
  22876798.1544    -541167.02349   -419979.43047                  22876795.8304
        41.5004         31.0004
  23841664.5364    2495943.61749   1917386.47347                  23841663.7524
        43.7504         26.2504
 04  7  1 14 25  0.0000000  0 11G 6G10G15G16G17G18G21G22G26G29G30
  20473755.4604     254877.02049    191984.30948                  20473752.8064
        50.0004         41.7504
  24304503.8944    2586689.73049   1988435.73846                  24304501.1474
        41.2504         24.2504
  24031091.0044   -2191180.84049  -1702201.84446                  24031089.6654
        41.7504         24.5004
  23702879.4594   -1596776.48849  -1241116.00447                  23702875.6944
        44.2504         27.5004
  24207586.9054    1575650.07849   1216040.93846                  24207585.6164
        40.5004         22.5004
  21501979.7184   -2210182.30149  -1704457.54747                  21501975.6494
        50.2504         38.7504
  21068612.2174   -1084700.29749   -838993.84048                  21068608.0894
        51.5004         40.5004
  23918691.1744   -2880767.11749  -2239201.37147                  23918687.0474
        44.7504         28.5004
  22306035.2694   -1442049.32849  -1114045.15247                  22306033.2394
        44.2504         31.7504
  22875288.6564    -549097.66449   -426159.14847                  22875286.6144
        43.7504         31.0004
  23850521.0144    2542486.33249   1953653.46947                  23850520.6744
        43.5004         26.2504
 04  7  1 14 25 15.0000000  0 11G 6G10G15G16G17G18G21G22G26G29G30
  20475015.4564     261499.14849    197144.38748                  20475012.9584
        50.2504         41.2504
  24313597.1814    2634475.87549   2025671.66446                  24313595.0314
        42.5004         24.7504
  24022784.7514   -2234831.78949  -1736215.54347                  24022783.3524
        41.0004         25.7504
  23697303.6984   -1626079.32049  -1263949.40247                  23697298.7174
        44.5004         28.7504
  24213310.9724    1605732.80949   1239481.96946                  24213309.8534
        41.5004         23.5004
  21494411.0014   -2249955.50849  -1735449.65647                  21494407.4414
        50.5004         38.7504
  21064779.3244   -1104842.55949   -854689.11348                  21064775.2284
        51.2504         40.5004
  23907916.3974   -2937384.43449  -2283318.74647                  23907912.3814
        44.0004         26.5004
  22301403.7144   -1466389.00849  -1133011.13347                  22301401.7534
        44.7504         31.5004
  22873799.9434    -556922.47749   -432256.41047                  22873797.9354
        42.5004         31.0004
  23859373.1804    2589004.50449   1989901.35946                  23859372.2824
        43.2504         25.2504
 04  7  1 14 25 30.0000000  0 11G 6G10G15G16G17G18G21G22G26G29G30
  20476291.9234     268207.70349    202371.81648                  20476289.2524
        51.0004         42.0004
  24322689.0384    2682254.32849   2062901.59846                  24322686.9894
        42.5004         22.7504
  24014476.6604   -2278492.81649  -1770237.13346                  24014474.2044
        42.2504         25.2504
  23691746.4954   -1655285.71949  -1286707.65247                  23691740.9834
        45.0004         27.5004
  24219033.0744    1635797.30549   1262908.82846                  24219030.6624
        42.0004         22.5004
  21486856.1014   -2289657.12949  -1766385.97347                  21486852.6704
        48.5004         38.7504
  21060949.9644   -1124965.81649   -870369.57848                  21060945.8464
        51.0004         40.0004
  23897146.5164   -2993982.97349  -2327421.50446                  23897141.7014
        43.0004         25.2504
  22296793.6164   -1490613.66049  -1151887.48047                  22296791.8674
        43.2504         31.7504
  22872331.5044    -564640.32849   -438270.32047                  22872329.1534
        44.5004         31.5004
  23868220.9054    2635498.90649   2026130.71947                  23868219.9294
        42.7504         26.5004
 04  7  1 14 25 45.0000000  0 11G 6G10G15G16G17G18G21G22G26G29G30
  20477585.5214     275003.62949    207667.34048                  20477582.8724
        50.2504         41.7504
  24331779.7954    2730025.70749   2100126.02347                  24331776.8104
        43.5004         26.0004
  24006166.1524   -2322163.18449  -1804265.98846                  24006164.1214
        42.2504         22.5004
  23686205.7914   -1684394.74249  -1309389.99247                  23686202.6114
        42.7504         26.5004
  24224749.6814    1665844.51249   1286322.17646                  24224749.2704
        42.0004         22.5004
  21479315.0274   -2329286.15249  -1797265.72747                  21479311.6854
        50.0004         39.0004
  21057124.3664   -1145069.17249   -886034.53548                  21057119.9604
        51.0004         40.0004
  23886379.6994   -3050561.65649  -2371508.79747                  23886375.9424
        43.2504         26.5004
  22292205.7374   -1514722.26649  -1170673.39847                  22292204.2404
        44.2504         32.5004
  22870883.7154    -572250.21549   -444200.10247                  22870881.1514
        44.7504         30.7504
  23877064.2594    2681969.97749   2062341.89847                  23877063.0524
        42.7504         26.0004
 04  7  1 14 26  0.0000000  0 11G 6G10G15G16G17G18G21G22G26G29G30
  20478894.9564     281885.82049    213030.07848                  20478892.3444
        50.5004         42.0004
  24340868.6284    2777788.57449   2137343.83246                  24340865.8934
        42.5004         23.5004
  23997853.3444   -2365843.86349  -1838302.89846                  23997851.8804
        41.2504         22.7504
  23680684.6454   -1713407.25449  -1331997.15247                  23680682.7454
        42.5004         27.5004
  24230463.7444    1695873.32449   1309721.19546                  24230463.6794
        41.0004         22.2504
  21471787.5814   -2368843.40249  -1828089.55947                  21471783.6884
        50.0004         39.2504
  21053302.6114   -1165153.78549   -901684.88748                  21053298.1644
        50.7504         40.2504
  23875616.0204   -3107121.36749  -2415581.27047                  23875613.2364
        44.0004         27.0004
  22287640.1584   -1538715.59449  -1189369.50847                  22287638.8794
        44.5004         32.0004
  22869455.6674    -579753.17249   -450046.57447                  22869453.2454
        46.0004         31.2504
  23885902.9334    2728416.16449   2098533.68447                  23885901.6444
        42.0004         26.5004
 04  7  1 14 26 15.0000000  0 11G 6G10G15G16G17G18G21G22G26G29G30
  20480220.9264     288855.36749    218460.87948                  20480218.4244
        50.7504         41.2504
  24349956.0194    2825543.65549   2174555.59446                  24349953.7274
        41.2504         23.0004
  23989538.8664   -2409533.88749  -1872347.06646                  23989537.9674
        40.5004         22.5004
  23675182.8774   -1742322.18449  -1354528.25047                  23675179.4664
        44.0004         27.0004
  24236175.1514    1725884.57849   1333106.56346                  24236173.8224
        41.0004         21.7504
  21464273.4434   -2408327.82049  -1858856.64147                  21464270.4794
        50.2504         39.0004
  21049484.4804   -1185218.56249   -917319.78148                  21049480.1294
        51.5004         40.5004
  23864857.5854   -3163660.89549  -2459638.03547                  23864853.7134
        45.2504         29.0004
  22283096.2064   -1562592.32449  -1207974.74647                  22283094.8814
        44.5004         32.2504
  22868047.9304    -587148.10249   -455808.85947                  22868046.2734
        43.2504         31.5004
  23894736.4154    2774838.44149   2134706.85246                  23894735.3534
        44.2504         25.0004
 04  7  1 14 26 30.0000000  0 11G 6G10G15G16G17G18G21G22G26G29G30
  20481564.4144     295913.51249    223960.71948                  20481561.8034
        51.5004         41.7504
  24359041.9614    2873292.04749   2211762.06346                  24359040.1824
        40.5004         22.5004
  23981223.9284   -2453231.96949  -1906397.48046                  23981221.9434
        40.5004         22.5004
  23669698.7844   -1771138.02349  -1376982.14847                  23669695.5044
        43.5004         26.5004
  24241883.3974    1755879.66049   1356479.30946                  24241881.2034
        40.7504         22.0004
  21456774.3904   -2447737.93749  -1889565.81248                  21456771.3734
        49.2504         39.5004
  21045670.2694   -1205262.32049   -932938.30948                  21045665.9274
        51.7504         40.5004
  23854103.0504   -3220178.73449  -2503677.91047                  23854098.7694
        45.2504         29.0004
  22278575.3884   -1586350.89549  -1226487.94547                  22278572.9684
        43.2504         32.0004
  22866662.2644    -594433.72349   -461485.95747                  22866659.5844
        44.2504         31.7504
  23903566.0834    2821237.45749   2170861.87546                  23903563.6324
        44.5004         25.0004
 04  7  1 14 26 45.0000000  0 11G 6G10G15G16G17G18G21G22G26G29G30
  20482924.2154     303060.53949    229529.82448                  20482921.9024
        49.5004         42.0004
  24368127.2234    2921033.57849   2248963.21146                  24368124.4934
        42.0004         25.0004
  23972906.9494   -2496937.83249  -1940453.99646                  23972905.4654
        42.0004         22.5004
  23664234.6404   -1799854.30149  -1399358.47346                  23664230.5654
        43.7504         25.2504
  24247588.6324    1785858.77049   1379839.61346                  24247586.8394
        42.0004         22.5004
  21449288.9884   -2487073.39149  -1920216.82047                  21449285.1564
        49.7504         39.2504
  21041859.9164   -1225284.88349   -948540.30948                  21041855.7934
        51.5004         40.5004
  23843351.8754   -3276674.30149  -2547700.42647                  23843347.6444
        44.0004         27.7504
  22274077.1354   -1609990.87149  -1244908.71147                  22274075.0224
        43.5004         32.5004
  22865295.8104    -601609.45749   -467077.43447                  22865294.3754
        44.7504         31.5004
  23912391.7514    2867613.17249   2206998.79346                  23912388.9184
        45.2504         25.2504
 04  7  1 14 27  0.0000000  0 11G 6G10G15G16G17G18G21G22G26G29G30
  20484301.2674     310294.86749    235166.94548                  20484298.7184
        50.5004         41.7504
  24377210.8534    2968766.35949   2286157.54746                  24377208.3974
        43.2504         24.7504
  23964589.1064   -2540653.21949  -1974517.93746                  23964586.9704
        42.7504         24.5004
  23658787.5824   -1828472.59849  -1421658.41847                  23658785.3094
        44.2504         28.0004
  24253290.6944    1815820.21549   1403186.13746                  24253288.8714
        42.0004         24.7504
  21441817.7484   -2526335.63749  -1950810.77747                  21441813.8234
        50.0004         39.0004
  21038053.6674   -1245287.73849   -964126.96148                  21038049.4474
        51.5004         40.2504
  23832604.5854   -3333149.06649  -2591706.74647                  23832601.1804
        43.7504         25.7504
  22269600.5554   -1633513.56249  -1263238.07847                  22269598.6694
        44.7504         32.2504
  22863951.0884    -608677.18049   -472584.74647                  22863949.1534
        43.5004         31.5004
  23921211.7054    2913963.57849   2243115.98046                  23921209.1514
        44.5004         25.5004
 04  7  1 14 27 15.0000000  0 11G 6G10G15G16G17G18G21G22G26G29G30
  20485694.9214     317619.50049    240874.44148                  20485692.4494
        50.5004         41.2504
  24386292.8324    3016492.92649   2323347.08647                  24386290.7684
        44.0004         26.0004
  23956269.0094   -2584375.22349  -2008587.07046                  23956266.2924
        43.2504         24.7504
  23653361.8804   -1856989.71149  -1443879.53147                  23653359.9244
        44.5004         29.0004
  24258988.5574    1845766.87549   1426521.18446                  24258987.8724
        42.5004         23.7504
  21434361.2174   -2565521.68049  -1981345.34447                  21434357.2914
        50.0004         39.2504
  21034251.5054   -1265268.00449   -979696.00048                  21034247.1624
        51.7504         40.5004
  23821862.7284   -3389599.98449  -2635694.44547                  23821859.7694
        44.0004         27.2504
  22265147.8224   -1656915.84449  -1281473.63347                  22265145.7374
        44.0004         31.5004
  22862627.2924    -615633.75849   -478005.46947                  22862625.1404
        44.0004         31.2504
  23930027.3414    2960291.22349   2279215.39147                  23930025.9444
        44.0004         26.0004
 04  7  1 14 27 30.0000000  0 11G 6G10G15G16G17G18G21G22G26G29G30
  20487106.1624     325034.44549    246652.30548                  20487103.3414
        50.5004         41.7504
  24395373.2124    3064213.11749   2360531.62946                  24395371.5064
        43.5004         24.5004
  23947947.0554   -2628103.79749  -2042661.25046                  23947945.6884
        40.5004         25.0004
  23647954.9094   -1885405.49649  -1466021.71947                  23647951.7074
        44.7504         29.0004
  24264683.7294    1875698.90249   1449844.77746                  24264683.4104
        41.0004         22.7504
  21426918.5864   -2604631.25449  -2011820.34048                  21426915.1234
        50.5004         39.5004
  21030453.8134   -1285225.61749   -995247.39848                  21030449.5134
        51.5004         40.5004
  23811125.0874   -3446026.62149  -2679663.25447                  23811122.0084
        44.2504         26.0004
  22260717.0164   -1680197.30549  -1299615.01647                  22260715.3854
        44.5004         32.7504
  22861324.8894    -622479.08249   -483339.48847                  22861322.5234
        44.5004         31.7504
  23938838.8224    3006595.94949   2315296.95346                  23938837.8014
        43.5004         25.2504
 04  7  1 14 27 45.0000000  0 11G 6G10G15G16G17G18G21G22G26G29G30
  20488534.1004     332538.37949    252499.51648                  20488531.0084
        51.0004         41.7504
  24404452.8724    3111925.23049   2397709.84046                  24404451.1394
        42.7504         22.0004
  23939624.8694   -2671840.13749  -2076741.50446                  23939623.3434
        42.0004         23.7504
  23642566.7454   -1913721.01249  -1488085.75447                  23642563.2824
        44.5004         28.2504
  24270376.6804    1905614.86349   1473155.89546                  24270376.4054
        41.5004         22.5004
  21419490.5244   -2643665.49649  -2042236.62948                  21419486.8334
        50.0004         39.7504
  21026660.0824   -1305161.96949  -1010782.22748                  21026655.5954
        51.5004         40.5004
  23800392.0944   -3502430.10549  -2723614.02747                  23800387.7734
        44.5004         27.5004
  22256309.5664   -1703359.01649  -1317663.10247                  22256308.2364
        43.5004         32.2504
  22860043.6354    -629214.29749   -488587.72347                  22860041.0754
        45.0004         31.5004
  23947644.6294    3052875.98449   2351359.27046                  23947644.3274
        41.5004         24.5004
 04  7  1 14 28  0.0000000  0 11G 6G10G15G16G17G18G21G22G26G29G30
  20489979.2564     340133.55949    258417.82848                  20489976.7284
        50.5004         41.7504
  24413531.0374    3159631.23449   2434883.34846                  24413529.1504
        41.7504         22.7504
  23931300.8214   -2715582.21549  -2110826.23447                  23931299.7564
        43.0004         25.7504
  23637197.4504   -1941934.05149  -1510069.94947                  23637193.5854
        44.0004         27.5004
  24276067.5654    1935516.99249   1496456.21146                  24276066.6824
        42.0004         23.0004
  21412077.4644   -2682622.15249  -2072592.46548                  21412073.7844
        50.7504         39.7504
  21022870.4254   -1325074.73449  -1026298.67248                  21022866.5274
        50.2504         40.5004
  23789663.9934   -3558808.14549  -2767544.96547                  23789660.0864
        45.2504         28.7504
  22251925.1114   -1726398.49249  -1335615.94547                  22251923.0524
        44.5004         31.2504
  22858782.7534    -635837.20749   -493748.43047                  22858781.1914
        44.0004         31.2504
  23956448.0894    3099133.09449   2387403.72746                  23956446.7544
        42.2504         23.5004
 04  7  1 14 28 15.0000000  0 11G 6G10G15G16G17G18G21G22G26G29G30
  20491442.1294     347820.75849    264407.83648                  20491439.6864
        50.0004         41.2504
  24422608.1734    3207331.56649   2472052.38346                  24422605.7174
        41.0004         22.0004
  23922976.2584   -2759329.27049  -2144914.86746                  23922974.8424
        43.7504         25.5004
  23631848.9604   -1970043.85949  -1531973.68747                  23631844.5034
        44.5004         27.7504
  24281754.7984    1965405.98449   1519746.29746                  24281754.3674
        41.7504         23.0004
  21404678.9864   -2721500.41849  -2102887.20348                  21404675.3624
        50.7504         39.5004
  21019085.9084   -1344963.39549  -1041796.33648                  21019081.8974
        51.0004         40.5004
  23778940.6074   -3615159.64849  -2811455.23047                  23778936.7004
        45.0004         29.5004
  22247564.1634   -1749314.79349  -1353472.80947                  22247562.5014
        45.0004         32.2504
  22857543.9664    -642347.03649   -498820.98047                  22857542.6724
        42.0004         31.2504
  23965246.3594    3145367.71949   2423430.66046                  23965245.1114
        42.0004         23.0004
 04  7  1 14 28 30.0000000  0 11G 6G10G15G16G17G18G21G22G26G29G30
  20492922.2014     355599.25049    270468.98848                  20492919.8884
        50.2504         42.5004
  24431683.4894    3255025.16049   2509216.19146                  24431681.4294
        41.7504         23.0004
  23914649.9634   -2803081.97749  -2179007.87146                  23914648.8494
        43.0004         25.2504
  23626519.6394   -1998050.87149  -1553797.36747                  23626514.9784
        44.5004         27.7504
  24287440.0474    1995281.10949   1543025.57046                  24287439.0664
        42.5004         22.2504
  21397295.6824   -2760300.74249  -2133121.22348                  21397292.2674
        50.7504         40.0004
  21015305.7164   -1364828.80149  -1057275.87948                  21015301.2384
        51.0004         40.2504
  23768222.2434   -3671485.17649  -2855345.23447                  23768218.0104
        45.0004         28.5004
  22243227.3354   -1772108.43749  -1371234.10247                  22243225.1094
        45.2504         33.0004
  22856326.8444    -648744.25049   -503805.85547                  22856324.9294
        45.5004         32.0004
  23974040.2044    3191578.92649   2459439.35246                  23974038.7564
        42.5004         23.0004
 04  7  1 14 28 45.0000000  0 11G 6G10G15G16G17G18G21G22G26G29G30
  20494420.1564     363469.66449    276601.77348                  20494417.4134
        50.0004         42.0004
  24440758.4244    3302712.43049   2546375.06346                  24440755.6734
        42.2504         22.7504
  23906323.9914   -2846839.60549  -2213104.71547                  23906321.8404
        42.2504         26.0004
  23621209.2294   -2025954.22749  -1575540.22747                  23621206.1284
        44.2504         28.0004
  24293122.9344    2025142.96149   1566294.49246                  24293121.5034
        43.0004         22.2504
  21389927.1634   -2799022.42649  -2163293.96148                  21389923.8564
        51.2504         39.5004
  21011529.8454   -1384669.93449  -1072736.51248                  21011525.7294
        51.5004         40.0004
  23757508.4374   -3727783.77749  -2899214.26247                  23757504.6064
        44.7504         27.5004
  22238913.1174   -1794778.41449  -1388899.01647                  22238911.7114
        43.5004         32.5004
  22855130.6694    -655028.46149   -508702.64847                  22855128.4374
        43.5004         30.7504
  23982829.4564    3237766.73049   2495429.80946                  23982828.1904
        43.2504         24.5004
 04  7  1 14 29  0.0000000  0 11G 6G10G15G16G17G18G21G22G26G29G30
  20495935.3984     371433.37149    282807.26248                  20495933.0324
        51.0004         41.7504
  24449832.7384    3350394.25049   2583529.69546                  24449829.9824
        43.5004         23.0004
  23897995.9934   -2890600.98049  -2247204.48847                  23897994.6614
        43.5004         26.2504
  23615919.9854   -2053752.52049  -1597201.25847                  23615916.0204
        42.5004         27.5004
  24298803.0284    2054992.90649   1589554.14146                  24298801.9194
        42.5004         22.5004
  21382573.8574   -2837664.05149  -2193404.31648                  21382570.5074
        51.0004         39.7504
  21007759.1714   -1404485.65649  -1088177.34448                  21007755.2304
        51.2504         40.0004
  23746800.6114   -3784054.06249  -2943061.22347                  23746796.1384
        45.0004         28.0004
  22234623.0504   -1817323.30549  -1406466.47347                  22234621.2684
        44.7504         33.0004
  22853956.8594    -661198.08649   -513510.15247                  22853954.7984
        45.2504         31.2504
  23991614.0684    3283932.23449   2531402.89846                  23991612.8194
        43.5004         23.7504
 04  7  1 14 29 15.0000000  0 11G 6G10G15G16G17G18G21G22G26G29G30
  20497468.7964     379490.50449    289085.52748                  20497466.2134
        51.0004         42.0004
  24458904.5944    3398070.48449   2620680.00847                  24458902.3384
        43.2504         26.0004
  23889668.0034   -2934365.98449  -2281307.10947                  23889665.4854
        44.0004         26.0004
  23610649.0074   -2081445.57049  -1618780.26646                  23610645.1404
        43.0004         24.5004
  24304480.9514    2084830.96949   1612804.50846                  24304479.6804
        41.7504         22.7504
  21375236.0794   -2876225.26249  -2223452.00848                  21375232.0314
        51.2504         39.7504
  21003993.0804   -1424275.78149  -1103598.23048                  21003989.2074
        50.7504         40.2504
  23736098.3594   -3840295.71949  -2986885.89147                  23736094.1924
        45.0004         28.2504
  22230356.2084   -1839742.64549  -1423936.07447                  22230354.9034
        46.0004         32.2504
  22852804.0714    -667252.97349   -518228.26647                  22852802.5434
        45.2504         31.5004
  24000395.1094    3330075.23849   2567358.43846                  24000393.8324
        42.5004         22.2504
 04  7  1 14 29 30.0000000  0 11G 6G10G15G16G17G18G21G22G26G29G30
  20499019.6584     387641.44549    295436.89848                  20499017.0874
        51.2504         42.2504
  24467975.4374    3445741.29349   2657826.04747                  24467974.4314
        42.5004         25.7504
  23881339.0564   -2978134.22749  -2315412.22347                  23881336.7424
        44.2504         27.2504
  23605399.4984   -2109032.81649  -1640276.80547                  23605395.0674
        44.0004         26.7504
  24310156.3914    2114657.47349   1636045.91846                  24310155.4964
        41.7504         23.0004
  21367913.1254   -2914705.68049  -2253436.74648                  21367909.4434
        51.0004         39.7504
  21000232.3594   -1444040.10549  -1118999.00048                  21000228.2244
        50.5004         40.0004
  23725401.6894   -3896507.98449  -3030687.64547                  23725397.3724
        45.7504         28.5004
  22226114.3164   -1862035.84049  -1441307.39847                  22226112.5844
        43.7504         31.2504
  22851674.6374    -673192.73849   -522856.66847                  22851672.6414
        43.0004         31.2504
  24009171.3894    3376195.71149   2603296.41446                  24009170.4144
        42.7504         24.0004
 04  7  1 14 29 45.0000000  0 11G 6G10G15G16G17G18G21G22G26G29G30
  20500588.5774     395885.44549    301860.78148                  20500586.0314
        51.0004         42.0004
  24477045.7914    3493405.64149   2694967.08246                  24477044.5864
        41.2504         22.5004
  23873009.6734   -3021906.41849  -2349520.43047                  23873007.1444
        44.5004         26.0004
  23600169.4644   -2136514.83249  -1661691.40646                  23600165.7404
        43.2504         25.2504
  24315830.3864    2144471.73049   1659277.76646                  24315829.2204
        42.5004         22.0004
  21360605.9294   -2953105.86349  -2283358.97348                  21360602.5234
        51.0004         40.0004
  20996475.9074   -1463779.36749  -1134380.24648                  20996471.6594
        51.2504         40.2504
  23714710.1074   -3952691.53149  -3074467.03547                  23714706.2214
        44.5004         29.0004
  22221896.1664   -1884203.41849  -1458580.84447                  22221894.3994
        44.7504         32.0004
  22850565.9734    -679018.07049   -527395.87947                  22850564.4084
        45.2504         32.2504
  24017943.7894    3422292.53549   2639215.96547                  24017942.2054
        43.7504         26.0004
 04  7  1 14 30  0.0000000  0 11G 6G10G15G16G17G18G21G22G26G29G30
  20502175.0134     404222.48049    308357.16448                  20502172.4794
        51.0004         42.0004
  24486115.2904    3541063.21549   2732102.80946                  24486113.2814
        42.0004         21.7504
  23864678.7124   -3065682.63749  -2383631.78147                  23864677.2804
        43.2504         27.5004
  23594959.7224   -2163891.54749  -1683023.89546                  23594957.0984
        44.5004         25.2504
  24321501.8324    2174273.75849   1682500.04746                  24321500.5144
        42.5004         21.7504
  21353313.8354   -2991425.65649  -2313218.55148                  21353310.8184
        50.0004         39.7504
  20992724.5284   -1483493.44149  -1149741.87148                  20992720.3364
        51.2504         40.2504
  23704024.3914   -4008846.00849  -3118223.75847                  23704020.1694
        45.2504         28.7504
  22217701.6324   -1906245.04349  -1475756.13747                  22217699.2304
        45.5004         31.5004
  22849479.2604    -684728.87549   -531845.85247                  22849477.5184
        45.0004         31.5004
  24026710.8814    3468365.33249   2675116.80146                  24026709.0544
        43.2504         23.5004
 04  7  1 14 30 15.0000000  0 11G 6G10G15G16G17G18G21G22G26G29G30
  20503779.9974     412655.02049    314927.95348                  20503777.2914
        51.0004         41.7504
  24495183.4294    3588716.07849   2769234.87946                  24495181.1734
        42.0004         21.7504
  23856347.9284   -3109460.49649  -2417744.39147                  23856346.5504
        43.7504         27.5004
  23589770.6754   -2191160.38349  -1704272.32447                  23589767.7654
        43.7504         26.2504
  24327170.6034    2204065.82849   1705714.62546                  24327170.0384
        41.2504         22.2504
  21346037.9514   -3029662.57049  -2343013.53548                  21346034.1344
        50.0004         40.0004
  20988978.2404   -1503180.04749  -1165082.08648                  20988974.1794
        50.7504         40.7504
  23693344.4114   -4064968.89149  -3161955.87147                  23693340.2964
        45.0004         27.7504
  22213531.9664   -1928158.11349  -1492831.26247                  22213529.9694
        45.5004         32.7504
  22848414.6854    -690322.69149   -536204.67647                  22848412.8374
        43.0004         30.7504
  24035474.3584    3514416.15249   2711000.52046                  24035472.5544
        43.0004         23.0004
 04  7  1 14 30 30.0000000  0 11G 6G10G15G16G17G18G21G22G26G29G30
  20505402.5564     421182.29749    321572.57048                  20505399.9824
        49.7504         41.5004
  24504250.3024    3636363.10549   2806362.38346                  24504248.8424
        41.2504         21.7504
  23848017.2224   -3153240.72349  -2451858.84447                  23848015.7994
        44.0004         27.0004
  23584603.3594   -2218321.81649  -1725437.10547                  23584599.8274
        44.5004         28.0004
  24332838.5374    2233847.24649   1728920.84846                  24332837.3294
        42.0004         22.0004
  21338777.3514   -3067817.17649  -2372744.39148                  21338773.5894
        51.0004         40.2504
  20985237.0524   -1522839.89549  -1180401.45748                  20985233.0384
        51.0004         40.0004
  23682670.2474   -4121060.82449  -3205663.86747                  23682665.8534
        44.2504         25.7504
  22209386.0114   -1949943.07449  -1509806.54747                  22209384.6054
        45.5004         32.2504
  22847372.4364    -695800.21149   -540472.87147                  22847370.0974
        43.5004         31.0004
  24044233.2754    3560443.88749   2746866.23846                  24044230.9924
        43.0004         23.0004
 04  7  1 14 30 45.0000000  0 11G 6G10G15G16G17G18G21G22G26G29G30
  20507043.1934     429805.62149    328292.04348                  20507040.9264
        51.2504         41.5004
  24513316.2924    3684005.31349   2843486.15646                  24513314.1824
        40.7504         21.7504
  23839686.0604   -3197022.06249  -2485974.15647                  23839684.9824
        45.0004         28.0004
  23579455.5104   -2245374.44549  -1746517.09847                  23579451.5054
        45.7504         28.0004
  24338502.6224    2263619.31649   1752119.81646                  24338502.0284
        41.2504         21.2504
  21331532.6444   -3105888.10249  -2402410.05148                  21331528.9324
        51.0004         40.0004
  20981501.2914   -1542471.72749  -1195699.00048                  20981497.0434
        51.0004         40.2504
  23672002.8414   -4177120.11749  -3249346.44547                  23671999.5414
        45.0004         28.7504
  22205265.5874   -1971598.49649  -1526680.90247                  22205263.7254
        46.2504         32.5004
  22846352.6974    -701160.09049   -544649.39847                  22846350.2004
        44.5004         30.7504
  24052988.0624    3606449.59049   2782714.80946                  24052985.7104
        43.5004         24.0004
 04  7  1 14 31  0.0000000  0 11G 6G10G15G16G17G18G21G22G26G29G30
  20508702.5744     438524.41849    335085.89548                  20508700.1114
        51.0004         42.0004
  24522381.8674    3731641.81349   2880605.46546                  24522379.3214
        40.5004         21.5004
  23831354.8884   -3240805.19549  -2520090.89547                  23831353.0734
        45.0004         28.7504
  23574327.9474   -2272319.04349  -1767512.91047                  23574323.6644
        45.5004         28.7504
  24344167.1204    2293381.22749   1775310.85546                  24344165.8604
        40.7504         20.5004
  21324303.5914   -3143876.11349  -2432011.09048                  21324300.2434
        50.7504         39.5004
  20977770.5864   -1562076.50449  -1210975.45748                  20977766.6284
        51.2504         40.2504
  23661341.3874   -4233147.36349  -3293004.02047                  23661338.3044
        45.0004         29.5004
  22201169.0854   -1993124.79349  -1543454.64147                  22201167.1744
        45.7504         32.7504
  22845354.6604    -706403.01249   -548734.80147                  22845352.8744
        44.7504         30.7504
  24061737.5874    3652432.06649   2818545.26246                  24061736.2684
        42.5004         22.2504
 04  7  1 14 31 15.0000000  0 11G 6G10G15G16G17G18G21G22G26G29G30
  20510379.7464     447339.25049    341954.57848                  20510377.4144
        51.5004         42.0004
  24531446.2724    3779273.00849   2917720.64146                  24531443.3844
        42.0004         22.0004
  23823021.9924   -3284589.49649  -2554208.53547                  23823020.5524
        44.5004         27.0004
  23569221.6104   -2299154.64849  -1788423.78147                  23569218.1784
        45.5004         28.7504
  24349829.1454    2323133.68849   1798494.56346                  24349827.3954
        41.5004         21.7504
  21317090.6254   -3181780.18749  -2461546.72748                  21317086.9574
        51.0004         40.0004
  20974045.1894   -1581653.00049  -1226229.87148                  20974041.4514
        50.7504         40.0004
  23650686.2184   -4289141.63749  -3336635.91447                  23650682.4404
        44.7504         27.5004
  22197097.0844   -2014521.07449  -1560127.06647                  22197095.1934
        46.2504         32.2504
  22844379.2954    -711528.36349   -552728.59447                  22844377.8354
        43.7504         31.5004
  24070483.5924    3698391.73449   2854357.96146                  24070482.2954
        42.5004         22.5004
 04  7  1 14 31 30.0000000  0 11G 6G10G15G16G17G18G21G22G26G29G30
  20512076.0684     456250.38349    348898.30948                  20512073.1674
        51.2504         41.7504
  24540507.1664    3826898.73849   2954831.60546                  24540506.1014
        40.5004         22.0004
  23814690.3764   -3328374.73049  -2588326.89147                  23814689.1574
        43.7504         26.5004
  23564135.5694   -2325880.77349  -1809249.34047                  23564132.0664
        44.0004         29.5004
  24355489.0894    2352876.97749   1821671.10546                  24355487.9404
        41.7504         22.0004
  21309893.7584   -3219599.99249  -2491016.69548                  21309889.7814
        50.7504         39.5004
  20970325.5454   -1601201.36349  -1241462.37148                  20970321.2324
        51.2504         40.5004
  23640036.5184   -4345102.41849  -3380241.69947                  23640033.1724
        44.0004         28.5004
  22193050.7654   -2035786.80949  -1576697.77347                  22193048.9294
        46.0004         32.5004
  22843426.2344    -716535.63349   -556630.36747                  22843424.6284
        43.0004         31.2504
  24079225.3084    3744328.44549   2890152.76246                  24079223.7644
        42.2504         23.5004
 04  7  1 14 31 45.0000000  0 11G 6G10G15G16G17G18G21G22G26G29G30
  20513789.9814     465258.91449    355917.94148                  20513787.3004
        51.7504         41.7504
  24549569.5564    3874519.84849   2991938.89846                  24549568.4604
        40.5004         21.5004
  23806358.2614   -3372159.80549  -2622445.12547                  23806356.4114
        45.0004         26.5004
  23559070.8764   -2352496.31249  -1829988.73047                  23559067.6054
        45.0004         29.5004
  24361147.5374    2382612.13349   1844841.30546                  24361146.8194
        41.0004         21.0004
  21302713.2824   -3257334.17649  -2520419.96147                  21302709.8884
        51.2504         39.2504
  20966611.1434   -1620720.28149  -1256671.92648                  20966606.8794
        50.2504         40.5004
  23629394.3264   -4401028.43749  -3423820.39847                  23629391.0804
        45.7504         28.5004
  22189029.1234   -2056920.66849  -1593165.70747                  22189027.3924
        44.7504         31.5004
  22842496.3114    -721423.72749   -560439.28147                  22842494.6404
        42.7504         31.0004
  24087962.3254    3790243.04749   2925930.31346                  24087961.3994
        41.0004         22.2504
 04  7  1 14 32  0.0000000  0 11G 6G10G15G16G17G18G21G22G26G29G30
  20515522.6444     474364.01649    363012.80548                  20515520.6384
        51.0004         42.0004
  24558631.7564    3922135.32449   3029041.80946                  24558629.3274
        41.0004         21.0004
  23798026.2284   -3415945.47349  -2656563.84046                  23798023.8644
        43.5004         24.0004
  23554026.8014   -2379001.98849  -1850642.51247                  23554023.4554
        44.0004         30.5004
  24366804.1034    2412338.39149   1868004.62146                  24366803.6224
        41.5004         20.0004
  21295548.6854   -3294983.61349  -2549757.18048                  21295545.0024
        50.2504         39.7504
  20962901.9734   -1640210.56649  -1271859.16848                  20962898.2724
        51.0004         40.7504
  23618758.6624   -4456920.25049  -3467372.47747                  23618754.0654
        45.5004         27.7504
  22185032.5744   -2077923.22349  -1609531.34047                  22185030.7714
        45.0004         33.0004
  22841588.7644    -726193.52349   -564156.00047                  22841586.4204
        44.0004         31.7504
  24096695.0874    3836134.19949   2961689.58246                  24096694.4144
        41.5004         22.5004
 04  7  1 14 32 15.0000000  0 11G 6G10G15G16G17G18G21G22G26G29G30
  20517273.8004     483566.28549    370183.39548                  20517271.5044
        51.0004         42.2504
  24567690.7594    3969745.20349   3066140.37946                  24567688.8414
        41.0004         22.0004
  23789694.0214   -3459731.37549  -2690682.71946                  23789691.8314
        43.0004         25.0004
  23549004.2534   -2405397.16449  -1871210.19947                  23548999.7984
        43.7504         28.0004
  24372458.2484    2442056.12149   1891161.20346                  24372457.7874
        39.0004         19.2504
  21288400.7044   -3332547.69949  -2579027.89148                  21288396.9134
        51.0004         39.5004
  20959198.8424   -1659671.96549  -1287023.89548                  20959195.0584
        51.5004         41.0004
  23608129.5084   -4512777.37149  -3510897.50447                  23608124.4634
        45.0004         27.0004
  22181060.8084   -2098793.90249  -1625794.20347                  22181058.9744
        46.0004         32.7504
  22840703.7024    -730844.32049   -567780.01247                  22840701.2894
        44.2504         31.2504
  24105424.2444    3882002.23449   2997430.85546                  24105422.4744
        42.7504         25.0004
 04  7  1 14 32 30.0000000  0 11G 6G10G15G16G17G18G21G22G26G29G30
  20519043.2894     492866.59849    377430.37948                  20519041.0814
        52.0004         41.7504
  24576749.6374    4017350.21549   3103235.18046                  24576748.3924
        41.7504         22.2504
  23781361.8564   -3503516.44949  -2724800.96946                  23781360.1364
        43.2504         23.0004
  23544001.6514   -2431680.75449  -1891690.91847                  23543998.7614
        44.0004         26.7504
  24378112.0454    2471766.31649   1914311.95346                  24378111.0484
        40.2504         19.0004
  21281269.0184   -3370025.32049  -2608231.23448                  21281265.2034
        51.5004         39.5004
  20955501.0224   -1679103.56249  -1302165.40648                  20955497.0014
        51.0004         40.5004
  23597506.8264   -4568598.43049  -3554394.41047                  23597503.0964
        45.2504         28.5004
  22177115.0274   -2119531.46949  -1641953.33647                  22177113.1024
        46.5004         32.0004
  22839841.6864    -735375.23049   -571310.60947                  22839839.3244
        45.0004         30.2504
  24114147.8724    3927847.57449   3033154.45346                  24114147.1894
        42.7504         23.2504
 04  7  1 14 32 45.0000000  0 11G 6G10G15G16G17G18G21G22G26G29G30
  20520832.0054     502264.71549    384753.57848                  20520829.6304
        51.0004         41.5004
  24585807.9394    4064949.92649   3140325.84446                  24585805.9954
        42.2504         21.7504
  23773030.7384   -3547300.89149  -2758918.68747                  23773028.1804
        44.5004         26.2504
  23539021.3384   -2457852.82849  -1912084.73847                  23539018.8734
        42.0004         26.7504
  24383764.1864    2501468.79749   1937456.68846                  24383763.2094
        40.2504         19.2504
  21274153.5564   -3407416.53549  -2637367.24248                  21274150.3214
        51.2504         40.0004
  20951809.1794   -1698505.62149  -1317283.89548                  20951805.1154
        50.5004         40.2504
  23586891.5414   -4624383.44149  -3597863.24647                  23586887.0564
        45.7504         29.0004
  22173193.7424   -2140135.66849  -1658008.54747                  22173191.9874
        44.7504         32.2504
  22839002.0824    -739786.34849   -574747.84047                  22838999.6204
        45.0004         31.0004
  24122867.8434    3973669.73049   3068860.00046                  24122866.3984
        42.5004         25.5004
 04  7  1 14 33  0.0000000  0 11G 6G10G15G16G17G18G21G22G26G29G30
  20522639.2004     511761.13749    392153.37148                  20522636.3814
        50.5004         42.0004
  24594864.3124    4112544.32049   3177412.34446                  24594863.7724
        41.2504         22.2504
  23764698.4064   -3591084.32449  -2793035.67247                  23764695.6414
        44.0004         26.0004
  23534062.1934   -2483912.81649  -1932391.26247                  23534059.9834
        43.0004         27.5004
  24389416.0184    2531163.91049   1960595.69546                  24389414.1744
        41.2504         19.5004
  21267055.0474   -3444720.76649  -2666435.46948                  21267051.5564
        51.5004         40.2504
  20948122.6294   -1717877.39549  -1332378.79748                  20948118.7044
        48.0004         40.5004
  23576282.7264   -4680131.82049  -3641303.53947                  23576278.1744
        46.5004         28.5004
  22169298.3344   -2160606.05949  -1673959.50047                  22169296.1534
        43.5004         31.7504
  22838185.3864    -744077.35549   -578091.48447                  22838183.4164
        44.0004         30.5004
  24131582.8934    4019468.81649   3104547.54346                  24131581.8324
        42.2504         25.0004
 04  7  1 14 33 15.0000000  0 11G 6G10G15G16G17G18G21G22G26G29G30
  20524464.7734     521354.85249    399628.97348                  20524462.3594
        51.2504         41.7504
  24603919.9554    4160132.31649   3214493.85546                  24603919.0384
        41.0004         21.5004
  23756367.0534   -3634867.65249  -2827152.56247                  23756365.3354
        43.5004         26.0004
  23529124.4864   -2509861.59849  -1952611.07847                  23529121.2774
        43.5004         27.0004
  24395065.6994    2560850.65649   1983728.20346                  24395063.6344
        42.2504         20.5004
  21259972.3024   -3481938.83249  -2695436.55948                  21259969.0244
        51.0004         40.0004
  20944441.5954   -1737219.87549  -1347450.85948                  20944438.0174
        49.2504         40.5004
  23565681.0174   -4735844.18449  -3684715.78547                  23565676.0004
        46.2504         28.0004
  22165428.7384   -2180943.28149  -1689806.70347                  22165426.5264
        43.2504         32.7504
  22837392.4324    -748248.99649   -581342.13347                  22837389.6864
        43.5004         31.2504
  24140293.8654    4065243.53149   3140216.12146                  24140292.8614
        42.5004         25.2504
 04  7  1 14 33 30.0000000  0 11G 6G10G15G16G17G18G21G22G26G29G30
  20526308.7104     531046.77749    407181.10948                  20526306.4964
        50.2504         41.7504
  24612974.6034    4207714.31349   3251570.71546                  24612973.8894
        41.0004         22.0004
  23748034.7674   -3678650.17649  -2861268.78546                  23748033.8144
        42.5004         24.7504
  23524207.3144   -2535698.14849  -1972743.48047                  23524204.2684
        42.7504         26.0004
  24400713.3514    2590530.03549   2006854.94946                  24400712.0474
        40.0004         20.5004
  21252906.7684   -3519069.77049  -2724369.75048                  21252903.0694
        51.0004         40.0004
  20940766.9924   -1756532.29349  -1362499.50848                  20940763.2874
        49.5004         40.7504
  23555086.1824   -4791519.56249  -3728099.19547                  23555082.6124
        44.7504         28.5004
  22161584.0774   -2201146.34049  -1705549.34047                  22161581.9864
        46.7504         33.5004
  22836620.9534    -752300.49249   -584499.15247                  22836618.7264
        43.7504         31.5004
  24148999.6274    4110994.25449   3175865.96946                  24148998.4524
        42.7504         24.0004
 04  7  1 14 33 45.0000000  0 11G 6G10G15G16G17G18G21G22G26G29G30
  20528172.5964     540838.57449    414811.05148                  20528169.9614
        50.0004         42.0004
  24622028.3474    4255291.89149   3288644.10546                  24622028.3274
        40.7504         22.2504
  23739703.8034   -3722430.04749  -2895382.94947                  23739702.9774
        43.5004         25.7504
  23519313.4344   -2561420.54349  -1992786.89847                  23519309.6744
        43.5004         28.0004
  24406359.0244    2620203.66049   2029977.14146                  24406358.7874
        40.5004         21.0004
  21245857.4714   -3556111.74649  -2753233.62948                  21245854.0634
        51.0004         40.0004
  20937097.9814   -1775812.85949  -1377523.33648                  20937093.6984
        49.2504         40.5004
  23544499.0134   -4847156.00049  -3771452.24247                  23544495.3914
        45.5004         30.0004
  22157765.4154   -2221213.29349  -1721185.91447                  22157763.2784
        45.5004         32.7504
  22835872.9054    -756229.99649   -587561.10547                  22835871.0704
        44.0004         31.0004
  24157701.4314    4156722.62949   3211498.40646                  24157700.6084
        42.2504         24.5004
 04  7  1 14 34  0.0000000  0 11G 6G10G15G16G17G18G21G22G26G29G30
  20530054.6104     550728.71149    422517.62948                  20530052.3034
        50.0004         42.0004
  24631080.8634    4302863.23449   3325712.62546                  24631081.0164
        41.5004         22.2504
  23731372.9524   -3766208.82449  -2929496.27046                  23731371.5884
        43.2504         24.5004
  23514440.2474   -2587030.23049  -2012742.52747                  23514436.7034
        45.5004         28.0004
  24412005.5194    2649869.94949   2053093.70346                  24412004.3994
        40.7504         20.0004
  21238825.7094   -3593066.15249  -2782029.26648                  21238821.9434
        51.7504         40.0004
  20933434.9214   -1795063.26249  -1392523.64848                  20933430.7594
        49.0004         40.5004
  23533919.1404   -4902754.82049  -3814776.00847                  23533915.6414
        46.0004         29.7504
  22153972.3564   -2241145.37949  -1736717.41447                  22153970.3804
        45.7504         33.5004
  22835148.1904    -760039.17249   -590529.29347                  22835145.9934
        43.5004         30.7504
  24166398.6054    4202426.53949   3247111.80946                  24166397.7474
        42.5004         25.2504
 04  7  1 14 34 15.0000000  0 11G 6G10G15G16G17G18G21G22G26G29G30
  20531955.2884     560717.85249    430301.36348                  20531952.9444
        50.2504         41.7504
  24640133.2224    4350428.56649   3362776.48446                  24640132.4224
        41.2504         22.5004
  23723042.8554   -3809985.84849  -2963608.24246                  23723040.5994
        43.0004         22.5004
  23509588.6064   -2612526.53549  -2032609.79747                  23509585.1714
        45.7504         28.0004
  24417648.0394    2679529.64149   2076205.05946                  24417648.1174
        38.5004         19.0004
  21231809.9844   -3629932.25049  -2810756.10548                  21231806.7254
        50.7504         40.2504
  20929777.5434   -1814282.88349  -1407499.98848                  20929773.3074
        49.2504         40.2504
  23523346.0734   -4958315.19549  -3858069.78147                  23523343.3404
        44.5004         29.7504
  22150205.0104   -2260941.70749  -1752143.11347                  22150203.3584
        45.2504         32.5004
  22834446.4734    -763727.17249   -593403.05947                  22834444.1234
        44.7504         30.0004
  24175091.6764    4248106.34449   3282706.39546                  24175089.9854
        43.2504         24.7504
 04  7  1 14 34 30.0000000  0 11G 6G10G15G16G17G18G21G22G26G29G30
  20533875.2804     570806.63349    438162.75048                  20533872.8174
        50.0004         41.5004
  24649183.5824    4397988.32449   3399835.97346                  24649182.7524
        40.7504         21.0004
  23714712.6044   -3853760.54349  -2997718.43446                  23714710.0024
        43.5004         23.0004
  23504758.2114   -2637908.65649  -2052388.09447                  23504753.9094
        45.0004         27.5004
  24423292.3994    2709183.20749   2099311.65646                  24423291.3094
        39.5004         19.0004
  21224811.9724   -3666709.47749  -2839413.68448                  21224808.3134
        51.0004         39.7504
  20926126.0224   -1833471.06649  -1422451.82448                  20926122.0674
        49.0004         40.7504
  23512780.6884   -5013836.38349  -3901333.04747                  23512776.6554
        44.7504         28.0004
  22146464.1524   -2280601.61349  -1767462.52747                  22146462.0504
        46.7504         33.0004
  22833767.7784    -767293.46549   -596182.01247                  22833765.9834
        44.5004         30.5004
  24183780.1474    4293762.25449   3318282.37946                  24183778.4264
        43.7504         25.2504
 04  7  1 14 34 45.0000000  0 11G 6G10G15G16G17G18G21G22G26G29G30
  20535814.0934     580995.68049    446102.26248                  20535811.4784
        47.5004         41.5004
  24658232.0424    4445542.96549   3436891.49246                  24658231.1344
        40.5004         21.0004
  23706383.2784   -3897532.25449  -3031826.25046                  23706381.5474
        42.5004         24.7504
  23499950.2294   -2663175.87549  -2072076.85947                  23499945.9484
        45.5004         29.0004
  24428934.0824    2738831.37149   2122414.09046                  24428932.6874
        39.0004         18.5004
  21217829.8864   -3703396.95749  -2868001.33248                  21217826.6834
        50.7504         40.2504
  20922480.7524   -1852627.31249  -1437378.77748                  20922476.6654
        47.0004         41.2504
  23502223.3324   -5069317.30549  -3944564.96147                  23502219.0064
        44.5004         28.2504
  22142749.0514   -2300124.02349  -1782674.80147                  22142747.1764
        45.7504         33.0004
  22833112.5044    -770737.23449   -598865.47347                  22833111.0064
        44.0004         30.7504
  24192463.2354    4339394.74649   3353840.12147                  24192462.0664
        43.5004         25.7504
 04  7  1 14 35  0.0000000  0 11G 6G10G15G16G17G18G21G22G26G29G30
  20537772.0794     591285.19149    454120.04348                  20537769.4034
        49.7504         41.5004
  24667281.3534    4493092.31349   3473942.91446                  24667278.6174
        41.7504         20.0004
  23698054.8014   -3941300.87949  -3065931.65646                  23698051.6614
        44.7504         25.0004
  23495164.4874   -2688327.84049  -2091675.80547                  23495160.6914
        45.7504         29.0004
  24434574.9864    2768474.16449   2145512.33246                  24434573.6714
        38.7504         20.0004
  21210866.1184   -3739994.37149  -2896518.79348                  21210862.4854
        50.5004         40.7504
  20918841.9464   -1871751.00049  -1452280.35948                  20918838.0174
        49.0004         41.0004
  23491673.0084   -5124757.74249  -3987765.28547                  23491669.9884
        45.7504         29.5004
  22139060.2414   -2319508.66449  -1797779.71947                  22139059.0494
        44.7504         32.2504
  22832480.3054    -774058.43049   -601453.42647                  22832478.7574
        43.5004         30.5004
  24201142.3334    4385003.45349   3389379.30946                  24201141.0234
        43.2504         25.5004
 04  7  1 14 35 15.0000000  0 11G 6G10G15G16G17G18G21G22G26G29G30
  20539749.7454     601677.35549    462217.82848                  20539747.0834
        47.5004         41.5004
  24676328.6064    4540638.33249   3510991.75846                  24676325.8814
        41.0004         21.0004
  23689726.5324   -3985063.98849  -3100032.80546                  23689724.6114
        42.5004         25.0004
  23490400.9134   -2713362.17249  -2111183.09847                  23490397.5374
        45.2504         29.0004
  24440216.1684    2798114.05149   2168608.26246                  24440214.5684
        40.7504         20.5004
  21203919.4144   -3776499.33249  -2924964.21948                  21203915.8364
        51.0004         40.5004
  20915208.7744   -1890840.06649  -1467154.96148                  20915205.4844
        47.0004         40.5004
  23481131.4874   -5180155.12149  -4030932.07447                  23481127.6364
        45.5004         29.7504
  22135398.0324   -2338753.02049  -1812775.30947                  22135396.4534
        45.5004         32.5004
  22831872.4144    -777254.73049   -603944.05147                  22831870.1924
        43.0004         30.5004
  24209817.5524    4430590.43449   3424901.57447                  24209816.4444
        43.0004         27.0004
 04  7  1 14 35 30.0000000  0 11G 6G10G15G16G17G18G21G22G26G29G30
  20541746.2294     612169.89549    470393.82048                  20541743.6954
        48.5004         41.5004
  24685374.9854    4588178.37149   3548035.89546                  24685373.1384
        41.2504         21.0004
  23681398.7264   -4028823.98849  -3134131.49246                  23681397.3384
        42.2504         22.5004
  23485658.8064   -2738281.03149  -2130600.39547                  23485655.3334
        43.0004         29.0004
  24445854.3024    2827748.60549   2191700.11746                  24445853.6114
        40.5004         20.0004
  21196989.8754   -3812914.04749  -2953339.31648                  21196986.3514
        51.0004         40.0004
  20911582.7964   -1909896.89849  -1482004.44548                  20911578.9294
        48.2504         40.7504
  23470597.5494   -5235511.58249  -4074066.96547                  23470593.7704
        44.5004         29.2504
  22131762.8264   -2357859.17649  -1827663.23447                  22131760.5034
        45.5004         32.2504
  22831287.4584    -780328.30549   -606339.05547                  22831284.9434
        44.7504         31.5004
  24218487.6854    4476153.05549   3460404.89146                  24218486.8894
        43.0004         24.2504
 04  7  1 14 35 45.0000000  0 11G 6G10G15G16G17G18G21G22G26G29G30
  20543762.4914     622764.16449    478649.08248                  20543759.9254
        50.0004         41.5004
  24694420.8874    4635713.62549   3585076.30546                  24694419.4754
        42.2504         21.5004
  23673072.5414   -4072579.52049  -3168226.69546                  23673070.5864
        42.2504         24.0004
  23480938.7364   -2763083.09049  -2149926.68747                  23480936.3134
        45.0004         30.0004
  24451492.6934    2857379.23049   2214788.87546                  24451492.5064
        39.5004         20.0004
  21190078.0084   -3849237.11749  -2981643.00848                  21190074.2284
        50.7504         40.2504
  20907962.7414   -1928920.24649  -1496827.84848                  20907958.6944
        49.0004         40.7504
  23460071.6844   -5290825.58249  -4117168.78147                  23460067.2224
        45.7504         29.2504
  22128153.0084   -2376825.60249  -1842442.25447                  22128150.9374
        45.2504         33.0004
  22830726.1594    -783277.94149   -608637.48847                  22830723.7994
        45.0004         31.0004
  24227153.4634    4521692.27749   3495889.93447                  24227152.7694
        42.7504         26.7504
 04  7  1 14 36  0.0000000  0 11G 6G10G15G16G17G18G21G22G26G29G30
  20545797.4604     633459.91049    486983.41848                  20545795.2144
        48.0004         41.2504
  24703465.3224    4683243.54349   3622112.55146                  24703464.0114
        40.5004         21.5004
  23664747.1154   -4116330.79749  -3202318.59046                  23664744.7744
        43.2504         24.7504
  23476240.5204   -2787768.32049  -2169161.94547                  23476238.7444
        43.0004         29.2504
  24457130.0244    2887005.73849   2237874.35246                  24457130.3574
        38.7504         19.5004
  21183183.3964   -3885468.54749  -3009875.28948                  21183180.1224
        50.7504         40.2504
  20904348.8344   -1947910.20349  -1511625.22348                  20904345.2834
        48.2504         40.7504
  23449553.3154   -5346097.06249  -4160237.46547                  23449549.7504
        44.5004         29.5004
  22124570.7814   -2395652.30149  -1857112.41447                  22124568.4204
        42.7504         33.0004
  22830187.7884    -786103.67249   -610839.35547                  22830186.0594
        44.5004         31.0004
  24235814.6764    4567207.53949   3531356.31647                  24235813.9344
        43.7504         27.0004
 04  7  1 14 36 15.0000000  0 11G 6G10G15G16G17G18G21G22G26G29G30
  20547852.3654     644257.68049    495397.24648                  20547850.1384
        49.5004         41.5004
  24712509.0554    4730768.38749   3659144.85246                  24712507.4174
        40.5004         20.5004
  23656422.4364   -4160077.35549  -3236406.78547                  23656420.3484
        42.2504         26.2504
  23471565.3344   -2812336.18449  -2188305.71147                  23471563.4544
        43.0004         28.5004
  24462768.3974    2916628.52749   2260956.99646                  24462767.8844
        39.0004         21.0004
  21176306.1354   -3921607.76649  -3038035.71548                  21176302.5674
        50.5004         40.0004
  20900741.8294   -1966866.17249  -1526396.11348                  20900737.6854
        49.7504         41.0004
  23439044.4124   -5401325.30149  -4203272.42647                  23439040.5014
        46.2504         30.0004
  22121015.4974   -2414338.54349  -1871673.12947                  22121012.8224
        44.2504         33.0004
  22829674.3434    -788804.94949   -612944.25447                  22829672.3584
        45.7504         31.0004
  24244471.3934    4612699.04749   3566804.21146                  24244471.3424
        42.7504         24.7504
 04  7  1 14 36 30.0000000  0 11G 6G10G15G16G17G18G21G22G26G29G30
  20549926.1464     655156.69949    503889.98048                  20549923.9364
        49.2504         41.5004
  24721551.5464    4778287.06349   3696172.35546                  24721549.4654
        40.0004         18.2504
  23648098.5544   -4203819.94949  -3270491.91047                  23648096.6494
        44.0004         26.7504
  23466912.3894   -2836787.17649  -2207358.42647                  23466910.3474
        42.5004         28.0004
  24468404.9324    2946246.85249   2284036.13746                  24468403.6994
        40.5004         20.5004
  21169446.6164   -3957655.38749  -3066124.77748                  21169443.2004
        51.2504         39.7504
  20897140.6374   -1985788.91849  -1541141.10948                  20897136.8764
        50.7504         40.7504
  23428542.5814   -5456510.88749  -4246274.19547                  23428538.8544
        45.5004         29.2504
  22117485.6284   -2432884.81649  -1886124.75847                  22117483.1834
        44.5004         32.5004
  22829183.5604    -791382.58249   -614952.80547                  22829181.2554
        45.2504         31.0004
  24253123.3564    4658165.54749   3602232.58646                  24253123.0534
        42.5004         25.5004
 04  7  1 14 36 45.0000000  0 11G 6G10G15G16G17G18G21G22G26G29G30
  20552019.8284     666157.14549    512461.74248                  20552017.1744
        50.2504         41.7504
  24730592.3714    4825799.35949   3733194.91446                  24730591.7004
        38.2504         17.5004
  23639775.8964   -4247558.37949  -3304573.80147                  23639773.6354
        44.7504         27.5004
  23462281.9634   -2861121.15249  -2226319.97747                  23462279.6794
        43.5004         29.0004
  24474040.1434    2975860.87149   2307111.91046                  24474038.2304
        41.5004         21.7504
  21162604.0184   -3993611.30149  -3094142.36348                  21162601.0304
        50.7504         40.0004
  20893546.6014   -2004678.33649  -1555860.14848                  20893542.5974
        51.2504         40.7504
  23418049.5694   -5511653.62149  -4289242.53147                  23418046.3174
        45.2504         29.5004
  22113982.5334   -2451290.86349  -1900467.11747                  22113980.7944
        44.2504         32.2504
  22828716.4364    -793836.45349   -616864.91847                  22828714.4144
        45.2504         30.5004
  24261770.7134    4703607.13349   3637641.56346                  24261770.5064
        42.5004         23.0004
 04  7  1 14 37  0.0000000  0 11G 6G10G15G16G17G18G21G22G26G29G30
  20554132.7974     677259.88749    521113.21948                  20554129.9364
        51.2504         41.5004
  24739633.1064    4873306.24249   3770213.19946                  24739631.4624
        37.7504         18.2504
  23631453.9924   -4291291.46949  -3338651.53546                  23631451.0714
        44.5004         25.2504
  23457674.1614   -2885336.90649  -2245189.39847                  23457671.1614
        44.0004         28.0004
  24479674.2914    3005471.68449   2330185.26246                  24479673.4314
        39.5004         20.0004
  21155779.8754   -4029474.23049  -3122087.51248                  21155776.3544
        51.5004         40.2504
  20889958.2304   -2023533.39149  -1570552.40648                  20889954.4634
        51.7504         40.5004
  23407564.7014   -5566752.00049  -4332176.32047                  23407561.2804
        46.0004         31.0004
  22110507.5064   -2469555.30549  -1914699.14847                  22110505.0474
        46.5004         33.2504
  22828273.2724    -796165.39149   -618679.68747                  22828271.8004
        45.5004         30.5004
  24270413.8424    4749024.45349   3673031.64546                  24270412.7504
        41.7504         22.5004
 04  7  1 14 37 15.0000000  0 11G 6G10G15G16G17G18G21G22G26G29G30
  20556265.4444     688467.22349    529846.18848                  20556262.9884
        50.7504         41.7504
  24748672.6174    4920809.48049   3807228.69546                  24748671.7334
        39.0004         18.5004
  23623132.8494   -4335017.35549  -3372723.66047                  23623129.3324
        45.0004         26.0004
  23453088.7754   -2909432.26649  -2263964.99647                  23453086.3434
        44.7504         29.0004
  24485309.0974    3035081.32449   2353257.64546                  24485307.5284
        40.7504         20.5004
  21148973.6764   -4065241.85249  -3149958.39148                  21148969.6814
        51.2504         40.2504
  20886377.3834   -2042351.97749  -1585216.24648                  20886373.2954
        51.5004         40.0004
  23397088.5394   -5621803.71949  -4375073.76647                  23397085.0034
        45.7504         29.2504
  22107059.2774   -2487675.95349  -1928819.13747                  22107057.2934
        44.5004         33.0004
  22827855.0944    -798367.33649   -620395.50447                  22827852.4274
        44.7504         30.7504
  24279052.2444    4794418.98449   3708403.96146                  24279050.8904
        42.5004         22.7504
 04  7  1 14 37 30.0000000  0 10G 6G15G16G17G18G21G22G26G29G30
  20558417.8694     699778.44549    538660.12148                  20558415.4314
        50.0004         41.7504
  23614813.2964   -4378736.46949  -3406790.50047                  23614811.1974
        44.5004         27.2504
  23448526.4624   -2933407.64149  -2282647.09447                  23448523.6814
        45.0004         28.7504
  24490943.9274    3064689.20749   2376328.68846                  24490942.1954
        42.0004         21.0004
  21142185.1804   -4100914.77749  -3177755.46548                  21142181.8104
        50.7504         40.2504
  20882803.2774   -2061134.53149  -1599852.01248                  20882799.2494
        50.0004         40.5004
  23386621.4694   -5676809.27349  -4417935.22747                  23386616.9434
        45.5004         29.2504
  22103638.2384   -2505653.16049  -1942827.35247                  22103636.5334
        45.5004         32.2504
  22827459.9664    -800442.78549   -622012.74647                  22827457.4774
        45.0004         31.0004
  24287685.9564    4839790.19149   3743758.10546                  24287684.3834
        42.5004         22.5004
 04  7  1 14 37 45.0000000  0 10G 6G15G16G17G18G21G22G26G29G30
  20560589.8734     711193.45749    547554.92648                  20560587.4314
        49.5004         41.5004
  23606494.8654   -4422449.13349  -3440852.32447                  23606492.3964
        44.0004         26.5004
  23443987.5604   -2957263.16849  -2301235.84447                  23443984.0234
        45.7504         29.0004
  24496577.4874    3094295.15649   2399398.19546                  24496577.1164
        41.0004         21.7504
  21135414.6404   -4136493.07049  -3205478.80548                  21135411.5744
        51.0004         39.7504
  20879235.8074   -2079881.41849  -1614459.97748                  20879231.5784
        49.5004         40.5004
  23376163.1234   -5731768.59049  -4460760.66447                  23376159.3904
        46.5004         29.7504
  22100244.2754   -2523486.91049  -1956723.76647                  22100242.0334
        42.7504         32.7504
  22827088.8014    -802391.87949   -623531.52347                  22827086.7904
        43.7504         29.7504
  24296315.2934    4885137.44549   3779093.56646                  24296313.8514
        41.2504         22.5004
 04  7  1 14 38  0.0000000  0  9G 6G15G16G18G21G22G26G29G30
  20562781.8744     722712.43449    556530.73848                  20562779.6334
        49.5004         41.7504
  23598177.9164   -4466155.02049  -3474908.84047                  23598176.0764
        44.0004         26.7504
  23439470.7674   -2980998.48849  -2319730.91447                  23439467.2254
        45.7504         29.0004
  21128662.5854   -4171976.21949  -3233128.02048                  21128658.7984
        51.0004         40.2504
  20875674.9864   -2098592.28549  -1629039.87948                  20875670.8474
        48.5004         40.2504
  23365712.7874   -5786681.20749  -4503549.71147                  23365710.1734
        46.2504         30.2504
  22096878.3834   -2541176.68749  -1970508.02047                  22096876.2104
        42.0004         33.5004
  22826741.6294    -804214.36749   -624951.64547                  22826740.0364
        45.5004         31.5004
  24304939.8574    4930460.54349   3814410.20346                  24304939.1994
        41.0004         23.0004
 04  7  1 14 38 15.0000000  0  9G 6G15G16G18G21G22G26G29G30
  20564993.9234     734337.22749    565589.00048                  20564991.9394
        50.0004         41.2504
  23589862.3724   -4509852.39149  -3508958.68747                  23589861.3294
        43.7504         27.5004
  23434977.4724   -3004611.74249  -2338130.86747                  23434973.5194
        46.5004         29.0004
  21121928.6854   -4207362.40249  -3260701.66848                  21121924.8324
        51.5004         40.2504
  20872121.7884   -2117265.37549  -1643590.34848                  20872117.6894
        49.0004         40.5004
  23355273.2074   -5841545.09849  -4546300.77747                  23355269.1814
        46.0004         29.5004
  22093539.2744   -2558720.46949  -1984178.50047                  22093537.3054
        46.0004         32.7504
  22826419.4254    -805908.57049   -626271.81647                  22826417.3864
        45.5004         31.2504
  24313559.9514    4975760.87149   3849709.12946                  24313559.8254
        41.2504         22.5004
 04  7  1 14 38 30.0000000  0  9G 6G15G16G18G21G22G26G29G30
  20567226.6604     746068.94149    574730.58248                  20567224.1364
        49.2504         42.0004
  23581548.3214   -4553539.90649  -3543000.91047                  23581547.8224
        44.0004         26.5004
  23430507.4724   -3028101.45349  -2356434.54747                  23430503.1624
        45.5004         29.2504
  21115213.6094   -4242650.32449  -3288198.75048                  21115210.1304
        51.0004         40.5004
  20868575.7544   -2135899.35249  -1658110.34048                  20868571.7804
        49.2504         41.0004
  23344842.8734   -5896358.73049  -4589012.73047                  23344838.4324
        46.7504         29.5004
  22090229.3364   -2576116.98049  -1997734.21947                  22090227.3884
        45.0004         33.0004
  22826122.1094    -807473.14849   -627490.98047                  22826120.1694
        45.5004         31.0004
  24322176.1744    5021039.57849   3884991.18446                  24322175.3604
        41.0004         22.2504
 04  7  1 14 38 45.0000000  0  9G 6G15G16G18G21G22G26G29G30
  20569479.6844     757908.88749    583956.49648                  20569477.0994
        48.0004         41.7504
  23573237.2734   -4597216.35949  -3577034.50847                  23573236.5064
        44.7504         29.0004
  23426061.3534   -3051466.27349  -2374640.92247                  23426056.7884
        45.5004         28.5004
  21108517.7814   -4277838.59849  -3315618.17648                  21108514.3194
        51.2504         40.5004
  20865037.4604   -2154493.10949  -1672598.98448                  20865033.6744
        47.5004         40.5004
  23334421.2384   -5951120.84849  -4631684.48447                  23334417.5534
        46.0004         29.5004
  22086946.9804   -2593364.71149  -2011174.02347                  22086944.8264
        45.0004         33.0004
  22825849.2074    -808906.75849   -628608.08247                  22825847.0634
        44.0004         31.2504
  24330788.5504    5066297.49249   3920257.05146                  24330787.4144
        41.5004         22.7504
 04  7  1 14 39  0.0000000  0  9G 6G15G16G18G21G22G26G29G30
  20571753.2824     769857.58249    593267.14548                  20571750.7424
        48.2504         41.7504
  23564928.8824   -4640881.05149  -3611058.92247                  23564927.6274
        45.2504         28.5004
  23421638.8514   -3074705.60949  -2392749.49647                  23421634.9744
        45.5004         27.2504
  21101840.7124   -4312926.57049  -3342959.44948                  21101836.8034
        52.0004         41.0004
  20861507.1484   -2173046.07449  -1687055.85548                  20861503.4024
        48.2504         40.2504
  23324010.5204   -6005830.54349  -4674315.42647                  23324007.4884
        46.7504         30.2504
  22083693.5634   -2610462.84449  -2024497.24647                  22083691.3024
        45.7504         32.7504
  22825601.2934    -810209.05149   -629622.85547                  22825598.7374
        45.0004         30.5004
  24339396.1844    5111534.83249   3955506.86746                  24339395.5914
        40.5004         22.2504
 04  7  1 14 39 15.0000000  0  9G 6G15G16G18G21G22G26G29G30
  20574048.0814     781914.68449    602662.27748                  20574046.0234
        48.7504         41.2504
  23556621.7444   -4684534.41449  -3645074.52747                  23556620.3524
        45.2504         28.2504
  23417240.2134   -3097819.57049  -2410760.38747                  23417236.8084
        45.5004         28.0004
  21095182.5694   -4347914.51649  -3370222.78548                  21095179.0734
        50.7504         40.5004
  20857984.6024   -2191558.35949  -1701481.01648                  20857980.5714
        48.7504         40.5004
  23313609.9934   -6060487.97749  -4716905.61747                  23313605.7454
        45.2504         29.2504
  22080468.5134   -2627411.52049  -2037704.00447                  22080466.3494
        44.5004         33.0004
  22825378.1494    -811380.09849   -630535.35947                  22825375.8164
        44.7504         31.5004
  24348000.8054    5156751.01249   3990740.18846                  24348000.4834
        41.0004         21.2504
 04  7  1 14 39 30.0000000  0  9G 6G15G16G18G21G22G26G29G30
  20576362.8244     794080.05949    612141.78148                  20576360.8544
        48.5004         41.2504
  23548316.8854   -4728176.59449  -3679081.40246                  23548314.4654
        44.0004         25.5004
  23412865.8794   -3120808.34049  -2428673.73047                  23412862.1584
        45.0004         28.0004
  21088543.8354   -4382802.53149  -3397408.25048                  21088539.9264
        51.0004         40.5004
  20854469.2514   -2210030.11749  -1715874.60548                  20854465.5934
        48.2504         40.5004
  23303218.3594   -6115092.98849  -4759454.98447                  23303214.5914
        45.7504         30.0004
  22077271.6554   -2644210.82849  -2050794.35947                  22077269.5934
        44.7504         33.0004
  22825180.4544    -812420.16049   -631345.82447                  22825178.1694
        45.0004         31.5004
  24356601.6084    5201945.44149   4025956.60946                  24356600.9084
        41.0004         20.5004
 04  7  1 14 39 45.0000000  0  9G 6G15G16G18G21G22G26G29G30
  20578698.6434     806354.84449    621706.54748                  20578696.4944
        49.2504         41.7504
  23540014.5484   -4771806.36349  -3713078.65647                  23540012.2814
        44.5004         27.5004
  23408514.4714   -3143670.68749  -2446488.55147                  23408512.1584
        45.2504         28.2504
  21081923.9224   -4417589.23049  -3424514.76648                  21081919.9994
        51.5004         40.5004
  20850962.1334   -2228460.28549  -1730235.77348                  20850958.3704
        49.2504         40.7504
  23292837.8284   -6169644.35549  -4801962.53547                  23292833.8104
        46.0004         30.0004
  22074103.1214   -2660859.28149  -2063767.19547                  22074101.3944
        45.5004         32.5004
  22825007.4914    -813328.02749   -632053.24247                  22825005.8444
        44.2504         30.7504
  24365197.5704    5247119.02749   4061156.73446                  24365197.3924
        40.5004         21.0004
 04  7  1 14 40  0.0000000  0  9G 6G15G16G18G21G22G26G29G30
  20581054.8544     818737.62549    631355.45348                  20581052.5874
        49.0004         42.2504
  23531713.6494   -4815425.13349  -3747067.28547                  23531712.0404
        44.2504         27.0004
  23404188.5974   -3166407.73449  -2464205.73447                  23404185.5064
        44.0004         29.5004
  21075323.4524   -4452275.84449  -3451543.30148                  21075319.5204
        50.7504         40.5004
  20847462.9174   -2246850.19949  -1744565.58248                  20847458.4514
        50.0004         40.5004
  23282466.9234   -6224143.09849  -4844429.08647                  23282463.4844
        46.0004         29.7504
  22070963.4394   -2677358.04349  -2076623.37147                  22070961.8394
        45.2504         32.2504
  22824859.9274    -814105.16049   -632658.80147                  22824857.9744
        45.2504         30.7504
  24373789.6654    5292270.01249   4096339.28546                  24373789.6234
        38.7504         21.2504
 04  7  1 14 40 15.0000000  0  9G 6G15G16G18G21G22G26G29G30
  20583431.6304     831227.54349    641087.84448                  20583429.7684
        49.7504         42.2504
  23523415.3544   -4859033.82849  -3781048.06247                  23523414.4024
        45.0004         28.0004
  23399884.5634   -3189020.40649  -2481825.99647                  23399882.4984
        43.5004         29.0004
  21068741.6024   -4486863.19149  -3478494.48048                  21068737.7454
        50.7504         40.5004
  20843970.7864   -2265200.73849  -1758864.71548                  20843966.5754
        50.2504         41.0004
  23272106.1954   -6278589.90249  -4886855.16847                  23272102.8534
        46.2504         30.5004
  22067852.2534   -2693707.87149  -2089363.50447                  22067850.1304
        46.7504         33.0004
  22824736.8224    -814752.25449   -633163.02747                  22824734.9494
        45.5004         30.5004
  24382377.6444    5337397.31349   4131503.37946                  24382376.8234
        40.5004         21.0004
 04  7  1 14 40 30.0000000  0  9G 6G15G16G18G21G22G26G29G30
  20585829.0394     843825.61749    650904.51648                  20585826.5544
        49.5004         41.5004
  23515119.2704   -4902631.38349  -3815020.17247                  23515117.3764
        44.7504         28.0004
  23395605.9834   -3211507.51649  -2499348.42647                  23395603.4674
        45.0004         28.7504
  21062178.9534   -4521350.27049  -3505367.52348                  21062175.2934
        50.5004         40.2504
  20840486.2524   -2283510.77049  -1773132.27748                  20840482.2934
        49.2504         40.7504
  23261755.5154   -6332983.60249  -4929239.85547                  23261751.9884
        46.5004         30.2504
  22064769.9524   -2709907.48049  -2101986.57847                  22064767.8874
        45.5004         32.5004
  22824638.7924    -815268.43749   -633565.26647                  22824636.1704
        46.5004         31.2504
  24390960.5184    5382501.47349   4166649.40646                  24390960.6124
        40.2504         21.0004
 04  7  1 14 40 45.0000000  0  9G 6G15G16G18G21G22G26G29G30
  20588247.2584     856531.68849    660805.32448                  20588244.6684
        50.5004         42.0004
  23506825.2264   -4946217.81249  -3848983.63747                  23506822.7884
        43.7504         27.2504
  23391350.8674   -3233869.00449  -2516772.95347                  23391348.4044
        45.5004         29.7504
  21055635.4414   -4555736.85249  -3532162.25448                  21055631.5594
        50.2504         40.2504
  20837009.8154   -2301780.33249  -1787368.30548                  20837005.9424
        49.2504         41.2504
  23251414.6284   -6387324.02049  -4971583.02347                  23251410.9874
        46.7504         30.2504
  22061715.8044   -2725956.83249  -2114492.57047                  22061713.7934
        45.0004         32.5004
  22824564.9724    -815653.60549   -633865.41047                  22824562.4494
        45.7504         30.5004
  24399539.1824    5427582.23449   4201777.23046                  24399538.9354
        40.2504         21.7504
 04  7  1 14 41  0.0000000  0  9G 6G15G16G18G21G22G26G29G30
  20590684.9654     869342.82449    670788.01648                  20590682.3084
        50.7504         41.7504
  23498532.1484   -4989796.14149  -3882940.75847                  23498530.3184
        43.7504         27.5004
  23387119.1444   -3256107.70349  -2534101.82047                  23387116.8494
        45.5004         29.7504
  21049110.2194   -4590025.91849  -3558881.00448                  21049106.7054
        50.2504         40.2504
  20833540.2134   -2320012.52049  -1801575.20748                  20833536.7544
        50.5004         40.5004
  23241083.1924   -6441613.90649  -5013886.83247                  23241079.7924
        47.0004         30.7504
  22058689.4074   -2741858.70349  -2126883.62147                  22058687.8674
        45.5004         33.2504
  22824516.0944    -815910.91849   -634065.91047                  22824514.1984
        45.7504         30.0004
  24408113.2134    5472636.29749   4236884.24646                  24408112.0314
        39.7504         20.5004
 04  7  1 14 41 15.0000000  0  9G 6G15G16G18G21G22G26G29G30
  20593142.7474     882259.96949    680853.32048                  20593140.5814
        50.5004         41.7504
  23490241.3844   -5033365.39149  -3916890.79747                  23490239.5154
        44.0004         27.7504
  23382910.5604   -3278222.73049  -2551334.30547                  23382908.4414
        44.5004         29.5004
  21042603.8914   -4624216.49649  -3585523.01248                  21042600.6314
        50.2504         40.7504
  20830078.2764   -2338206.42649  -1815752.28548                  20830074.5224
        49.7504         40.7504
  23230762.5224   -6495852.25049  -5056150.47347                  23230759.5904
        47.0004         30.5004
  22055691.6164   -2757612.01649  -2139158.93447                  22055689.8064
        46.0004         33.2504
  22824491.7634    -816039.44549   -634166.07047                  22824490.0274
        45.5004         30.7504
  24416681.7224    5517664.10949   4271970.80146                  24416680.4954
        40.2504         19.2504
 04  7  1 14 41 30.0000000  0  9G 6G15G16G18G21G22G26G29G30
  20595620.9544     895282.63349    691000.84048                  20595618.9614
        51.2504         41.7504
  23481952.0724   -5076925.82049  -3950833.96947                  23481950.7564
        45.2504         29.2504
  23378726.1274   -3300214.20749  -2568470.52047                  23378723.5794
        45.0004         30.0004
  21036116.6294   -4658308.70349  -3612088.36348                  21036112.8234
        47.0004         40.0004
  20826623.3684   -2356362.47349  -1829899.85948                  20826619.4074
        48.0004         40.5004
  23220451.1144   -6550039.02349  -5098373.91047                  23220447.4454
        46.2504         30.0004
  22052722.1094   -2773216.85549  -2151318.57047                  22052720.8634
        45.7504         33.2504
  22824491.8744    -816039.34849   -634165.99647                  22824490.0894
        45.2504         31.2504
  24425245.1874    5562665.13749   4307036.48846                  24425244.2134
        39.7504         20.0004
 04  7  1 14 41 45.0000000  0  9G 6G15G16G18G21G22G26G29G30
  20598119.3294     908410.25849    701230.14148                  20598116.8944
        51.2504         41.7504
  23473664.6754   -5120478.05949  -3984770.78547                  23473662.7354
        45.7504         28.2504
  23374564.5844   -3322082.77749  -2585510.97347                  23374561.9824
        45.7504         28.5004
  21029647.3964   -4692303.10249  -3638577.51248                  21029643.9384
        48.7504         40.5004
  20823175.4044   -2374481.02049  -1844018.21148                  20823171.4644
        49.7504         41.0004
  23210149.1594   -6604174.62549  -5140557.49247                  23210145.4774
        46.7504         30.5004
  22049781.1054   -2788673.67249  -2163362.84447                  22049779.7354
        45.5004         33.0004
  22824516.0484    -815911.28549   -634066.21947                  22824514.7684
        45.0004         31.2504
  24433802.9764    5607638.51249   4342080.62946                  24433802.1124
        38.7504         18.2504
 04  7  1 14 42  0.0000000  0  9G 6G15G16G18G21G22G26G29G30
  20600637.4674     921643.24649    711541.55148                  20600634.6654
        51.5004         41.7504
  23465378.3984   -5164021.70749  -4018700.90647                  23465376.2724
        44.5004         26.5004
  23370426.8994   -3343827.89549  -2602455.22747                  23370423.0554
        45.5004         28.0004
  21023197.1614   -4726199.18449  -3664990.03548                  21023193.8244
        49.7504         40.0004
  20819734.7604   -2392561.53549  -1858106.92248                  20819731.0704
        50.7504         41.0004
  23199857.8614   -6658258.48849  -5182700.74647                  23199853.5174
        46.7504         30.2504
  22046868.0694   -2803981.88749  -2175291.32447                  22046865.9764
        46.0004         32.5004
  22824565.2634    -815654.87949   -633866.43747                  22824563.4474
        44.5004         31.0004
  24442356.1034    5652584.28549   4377103.26646                  24442355.5474
        38.5004         18.5004
 04  7  1 14 42 15.0000000  0  9G 6G15G16G18G21G22G26G29G30
  20603175.2904     934980.20749    721933.97348                  20603173.2344
        51.5004         41.2504
  23457093.4954   -5207558.17249  -4052625.39147                  23457091.7394
        43.7504         27.0004
  23366311.8244   -3365450.75849  -2619304.23047                  23366308.3474
        45.0004         27.5004
  21016765.8834   -4759998.19149  -3691326.91048                  21016762.1494
        47.2504         40.5004
  20816301.4034   -2410605.45349  -1872167.12548                  20816297.3254
        49.0004         41.0004
  23189575.7614   -6712291.75449  -5224804.60947                  23189571.3854
        47.2504         30.7504
  22043982.9774   -2819142.62149  -2187104.87947                  22043981.1014
        45.0004         33.0004
  22824637.8314    -815271.54349   -633567.73447                  22824636.3634
        44.2504         31.0004
  24450903.0794    5697500.57449   4412102.94546                  24450902.2704
        37.2504         19.0004
 04  7  1 14 42 30.0000000  0  9G 6G15G16G18G21G22G26G29G30
  20605733.2274     948421.54349    732407.72748                  20605730.8904
        51.2504         41.7504
  23448810.7794   -5251086.93749  -4086543.91847                  23448807.8734
        44.0004         26.5004
  23362221.0994   -3386950.91049  -2636057.59847                  23362216.8984
        45.7504         27.5004
  21010352.4024   -4793699.48049  -3717587.66848                  21010348.9814
        47.7504         40.2504
  20812874.4394   -2428612.51249  -1886198.60948                  20812870.6384
        49.0004         40.5004
  23179302.8914   -6766273.71549  -5266868.44947                  23179299.3534
        46.0004         30.7504
  22041126.3834   -2834155.32449  -2198803.08647                  22041124.2604
        46.7504         32.7504
  22824735.0294    -814760.77749   -633169.73447                  22824733.2004
        45.2504         30.2504
  24459443.8834    5742387.82448   4447079.95346                  24459444.7114
        35.0004         17.5004
 04  7  1 14 42 45.0000000  0  9G 6G15G16G18G21G22G26G29G30
  20608310.8494     961966.18849    742961.98048                  20608308.4934
        51.5004         41.5004
  23440528.3334   -5294609.14849  -4120457.34446                  23440525.0774
        43.0004         25.5004
  23358152.4744   -3408329.31649  -2652716.12547                  23358149.0974
        46.5004         28.0004
  21003957.6654   -4827304.08249  -3743773.06648                  21003954.3844
        49.0004         40.2504
  20809455.0354   -2446583.50449  -1900201.98448                  20809451.0964
        49.7504         40.5004
  23169040.5294   -6820205.39549  -5308893.12947                  23169035.8774
        47.0004         31.5004
  22038297.5454   -2849021.00449  -2210386.74647                  22038295.6394
        46.0004         33.5004
  22824856.6774    -814123.64549   -632673.27347                  22824854.0734
        44.0004         30.2504
  24467980.9904    5787244.48858   4482033.14156                  24467980.4864
        33.7504         15.5004
 04  7  1 14 43  0.0000000  0  9G 6G15G16G18G21G22G26G29G30
  20610907.5804     975613.46949    753596.21148                  20610905.2584
        51.2504         41.5004
  23432247.1884   -5338125.35249  -4154366.02947                  23432244.6544
        43.2504         27.5004
  23354107.4584   -3429586.41449  -2669280.10547                  23354103.5174
        45.5004         27.0004
  20997581.5514   -4860812.51649  -3769883.53548                  20997577.4614
        47.5004         40.5004
  20806041.7844   -2464519.04749  -1914177.73848                  20806037.5974
        48.5004         40.0004
  23158786.4694   -6874087.03949  -5350878.84447                  23158782.5894
        46.0004         30.7504
  22035496.6714   -2863739.87549  -2221856.00447                  22035494.5774
        47.0004         32.5004
  22825001.5724    -813360.75049   -632078.82047                  22824999.4234
        44.2504         30.5004
  24476509.8294    5832069.69548   4516961.78546                  24476510.1944
        33.2504         15.5004
 04  7  1 14 43 15.0000000  0  9G 6G15G16G18G21G22G26G29G30
  20613524.1264     989364.00449    764310.89848                  20613521.8024
        51.5004         41.5004
  23423967.9194   -5381635.06249  -4188269.76247                  23423965.6814
        42.5004         26.7504
  23350085.2084   -3450721.66849  -2685749.14147                  23350081.1244
        45.7504         28.0004
  20991223.0224   -4894224.28149  -3795918.67648                  20991219.8774
        47.5004         40.7504
  20802635.5674   -2482418.74649  -1928125.56248                  20802631.7514
        48.5004         40.7504
  23148542.6584   -6927917.99649  -5392825.01647                  23148539.0174
        46.2504         31.0004
  22032723.7334   -2878311.41049  -2233210.43447                  22032722.0774
        46.5004         32.7504
  22825170.8264    -812471.71149   -631386.07047                  22825168.8304
        45.2504         30.5004
  24485034.7824    5876863.59848   4551866.11746                  24485033.8454
        32.5004         16.2504
 04  7  1 14 43 30.0000000  0  9G 6G15G16G18G21G22G26G29G30
  20616160.7724    1003218.57849    775106.64848                  20616158.3434
        52.0004         41.5004
  23415689.6254   -5425137.14849  -4222167.47747                  23415687.6184
        41.7504         26.5004
  23346086.9614   -3471733.90249  -2702122.32047                  23346082.6474
        45.0004         27.5004
  20984884.0394   -4927538.15649  -3821877.53948                  20984880.4924
        48.0004         41.2504
  20799236.3644   -2500281.48049  -1942044.57448                  20799232.3854
        48.0004         41.0004
  23138309.2774   -6981696.93749  -5434730.68447                  23138305.2144
        47.0004         30.2504
  22029979.3134   -2892734.33649  -2244449.08647                  22029977.3844
        46.7504         33.7504
  22825363.8524    -811455.42249   -630594.16047                  22825361.9184
        45.2504         30.5004
  24493553.6704    5921626.85548   4586746.48846                  24493552.4074
        33.0004         15.5004
 04  7  1 14 43 45.0000000  0  9G 6G15G16G18G21G22G26G29G30
  20618817.1074    1017176.93849    785983.28548                  20618814.8294
        51.7504         41.7504
  23407412.8094   -5468631.92649  -4256059.52347                  23407410.6644
        41.7504         28.0004
  23342111.6044   -3492623.48049  -2718399.91447                  23342107.6324
        45.0004         28.0004
  20978562.9894   -4960754.43449  -3847760.34848                  20978559.6674
        49.5004         41.0004
  20795844.1014   -2518107.52049  -1955935.00448                  20795839.9194
        49.7504         40.0004
  23128085.1194   -7035424.01649  -5476595.93047                  23128081.7644
        46.7504         31.2504
  22027263.1674   -2907008.77349  -2255572.02747                  22027260.7144
        47.5004         33.7504
  22825581.7414    -810312.21949   -629703.36747                  22825579.9664
        43.7504         30.5004
  24502065.0534    5966358.85948   4621602.55546                  24502064.0104
        33.0004         14.7504
 04  7  1 14 44  0.0000000  0  9G 6G15G16G18G21G22G26G29G30
  20621492.6244    1031239.44549    796941.07048                  20621490.5894
        51.2504         42.2504
  23399137.2774   -5512119.01649  -4289945.55147                  23399135.7744
        42.0004         25.7504
  23338160.3274   -3513389.79749  -2734581.48847                  23338155.6414
        45.7504         28.0004
  20972260.8464   -4993872.70749  -3873566.79348                  20972257.4644
        49.5004         41.0004
  20792459.0624   -2535896.44149  -1969796.50448                  20792454.9114
        50.0004         40.5004
  23117871.4504   -7089098.70349  -5518420.36347                  23117867.8514
        47.0004         31.5004
  22024574.8334   -2921134.42249  -2266579.02747                  22024572.6154
        46.2504         33.0004
  22825823.7124    -809041.75849   -628713.38747                  22825821.8714
        45.5004         30.5004
  24510571.9964    6011059.77748   4656434.32446                  24510570.7574
        31.0004         14.7504
 04  7  1 14 44 15.0000000  0  9G 6G15G16G18G21G22G26G29G30
  20624188.8294    1045406.33649    807980.19548                  20624186.3924
        51.2504         41.7504
  23390863.5814   -5555598.17249  -4323825.39147                  23390862.2504
        42.0004         26.2504
  23334232.0564   -3534032.64149  -2750666.82847                  23334227.7884
        45.5004         28.0004
  20965976.8754   -5026892.48449  -3899296.49248                  20965974.1654
        49.5004         40.5004
  20789081.0274   -2553648.08249  -1983628.96148                  20789077.0864
        49.5004         40.5004
  23107667.8084   -7142720.55149  -5560203.61747                  23107663.4324
        47.0004         30.7504
  22021915.1124   -2935110.57849  -2277469.53547                  22021912.8734
        46.2504         33.0004
  22826089.6854    -807643.73449   -627624.03547                  22826087.3804
        45.2504         30.5004
  24519073.1674    6055729.37958   4691241.80556                  24519071.0804
        32.5004         16.2504
 04  7  1 14 44 30.0000000  0  9G 6G15G16G18G21G22G26G29G30
  20626904.0424    1059675.73449    819099.18848                  20626901.5304
        51.5004         41.7504
  23382590.8764   -5599071.22749  -4357700.48847                  23382589.5484
        42.5004         27.0004
  23330326.4974   -3554553.64149  -2766657.22747                  23330323.6534
        45.2504         27.0004
  20959712.3744   -5059815.56249  -3924950.83648                  20959708.5174
        50.5004         41.0004
  20785709.6344   -2571364.10949  -1997433.66848                  20785705.5694
        51.0004         40.7504
  23097473.6384   -7196291.12949  -5601946.91047                  23097469.9584
        46.5004         30.5004
  22019283.3844   -2948939.06649  -2288244.98447                  22019281.4434
        47.0004         33.2504
  22826379.6694    -806120.02749   -626436.74247                  22826376.9504
        44.7504         30.2504
  24527566.2174    6100365.61348   4726023.15646                  24527565.5934
        34.2504         16.2504
 04  7  1 14 44 45.0000000  0  9G 6G15G16G18G21G22G26G29G30
  20629639.0914    1074047.08249    830297.63748                  20629636.5004
        51.5004         41.2504
  23374318.8984   -5642538.62949  -4391571.17647                  23374317.3124
        43.0004         26.5004
  23326445.2374   -3574953.40649  -2782553.13347                  23326441.2774
        45.2504         28.7504
  20953465.5874   -5092642.48049  -3950530.24648                  20953462.1874
        50.5004         41.0004
  20782344.8704   -2589045.11749  -2011211.08248                  20782341.4784
        51.2504         41.0004
  23087288.3394   -7249810.78149  -5643650.52047                  23087285.1824
        46.5004         30.5004
  22016680.4974   -2962620.31649  -2298905.69547                  22016678.3694
        47.5004         33.2504
  22826693.2864    -804471.26249   -625151.99647                  22826691.0354
        44.7504         30.5004
  24536053.6864    6144967.67258   4760778.06356                  24536052.6874
        32.2504         15.5004
 04  7  1 14 45  0.0000000  0  9G 6G15G16G18G21G22G26G29G30
  20632393.3244    1088521.01649    841576.02048                  20632391.0004
        51.0004         41.7504
  23366049.3244   -5685999.65249  -4425436.91447                  23366046.9004
        43.2504         26.0004
  23322586.0144   -3595231.00849  -2798353.87947                  23322582.9304
        46.0004         28.2504
  20947237.5174   -5125372.18749  -3976033.91848                  20947233.6204
        50.2504         40.5004
  20778987.1014   -2606690.28549  -2024960.57048                  20778983.9054
        51.0004         40.5004
  23077113.8954   -7303278.52049  -5685313.69947                  23077110.9904
        46.7504         31.2504
  22014104.9544   -2976153.23449  -2309450.82447                  22014102.7704
        47.2504         33.5004
  22827030.8574    -802696.68049   -623769.21547                  22827029.0964
        44.0004         30.7504
  24544535.7154                                                   24544533.9664
        32.5004         14.0004
 04  7  1 14 45 15.0000000  0  9G 6G15G16G18G21G22G26G29G30
  20635167.1404    1103098.74649    852935.28148                  20635165.1524
        50.7504         41.7504
  23357779.5514   -5729453.23049  -4459296.85246                  23357777.4254
        42.0004         25.0004
  23318750.5574   -3615385.29349  -2814058.53947                  23318747.7684
        45.0004         27.7504
  20941027.6414   -5158003.62549  -4001461.01248                  20941024.7494
        51.0004         41.0004
  20775636.7374   -2624298.67249  -2038681.39548                  20775632.2934
        51.0004         40.2504
  23066949.7664   -7356693.17249  -5726935.47747                  23066945.7114
        46.7504         31.0004
  22011558.3454   -2989536.65249  -2319879.45347                  22011556.2724
        47.5004         33.2504
  22827393.2214    -800795.18049   -622287.52747                  22827391.3324
        46.0004         31.0004
  24553010.6214    6234071.32058   4830209.35256                  24553008.4834
        34.2504         14.7504
 04  7  1 14 45 30.0000000  0  9G 6G15G16G18G21G22G26G29G30
  20637960.7954    1117779.54349    864374.83648                  20637958.6834
        50.7504         41.2504
  23349512.9344   -5772899.83249  -4493151.33647                  23349509.5704
        43.0004         27.0004
  23314938.8884   -3635416.77049  -2829667.46947                  23314936.0374
        46.2504         28.2504
  20934836.8664   -5190537.32049  -4026811.94148                  20934833.5434
        50.5004         41.0004
  20772292.7374   -2641870.59049  -2052373.79748                  20772288.9134
        50.2504         41.0004
  23056795.2904   -7410054.91049  -5768516.07447                  23056790.9684
        47.7504         31.5004
  22009039.9764   -3002771.04749  -2330191.97747                  22009038.3854
        47.2504         33.7504
  22827779.1634    -798767.27349   -620707.35947                  22827777.1024
        46.5004         31.0004
  24561477.1744                                                   24561477.8074
        31.2504         14.7504
 04  7  1 14 45 45.0000000  0  9G 6G15G16G18G21G22G26G29G30
  20640774.1124    1132562.56649    875894.05548                  20640771.9624
        51.7504         41.2504
  23341246.0914   -5816340.25049  -4527001.02747                  23341243.6914
        44.0004         27.5004
  23311150.6284   -3655326.18449  -2845181.32047                  23311147.7804
        45.5004         29.0004
  20928664.2284   -5222974.00449  -4052087.27348                  20928661.0264
        51.0004         41.0004
  20768955.7764   -2659406.94549  -2066038.49648                  20768951.8964
        50.7504         40.7504
  23046651.2134   -7463364.44549  -5810055.96147                  23046646.7004
        47.0004         32.0004
  22006549.6364   -3015857.03949  -2340388.85247                  22006547.5894
        47.2504         33.5004
  22828188.3844    -796613.93449   -619029.43747                  22828186.1034
        45.0004         29.5004
  24569940.8284    6323039.25858   4899534.90656                  24569939.6064
        30.7504         14.0004
 04  7  1 14 46  0.0000000  0  9G 6G15G16G18G21G22G26G29G30
  20643606.7984    1147448.56349    887493.51248                  20643604.3634
        50.7504         40.2504
  23332980.8304   -5859773.77049  -4560845.28947                  23332979.0944
        42.5004         27.7504
  23307385.2784   -3675112.70749  -2860599.39847                  23307382.1634
        45.5004         28.0004
  20922510.3654   -5255312.80549  -4077286.34048                  20922506.7864
        50.5004         40.7504
  20765625.6824   -2676906.87549  -2079674.81248                  20765621.8174
        50.0004         41.0004
  23036516.1804   -7516620.85249  -5851554.45347                  23036512.5284
        47.0004         31.7504
  22004087.8784   -3028793.65249  -2350469.33247                  22004086.1414
        47.0004         34.0004
  22828622.5364    -794334.37549   -617253.16447                  22828620.0844
        45.2504         30.5004
  24578395.1384    6367471.18848
        31.5004
 04  7  1 14 46 15.0000000  0  9G 6G15G16G18G21G22G26G29G30
  20646459.4374    1162437.25849    899172.99248                  20646457.0314
        51.2504         41.0004
  23324717.3384   -5903200.59849  -4594684.39847                  23324715.5294
        44.0004         26.5004
  23303643.3614   -3694776.51249  -2875921.84447                  23303640.1674
        45.0004         28.7504
  20916375.0654   -5287553.81649  -4102409.20348                  20916371.9344
        50.0004         40.5004
  20762302.5224   -2694370.65249  -2093282.96148                  20762298.6704
        50.5004         40.7504
  23026391.9954   -7569824.14549  -5893011.54347                  23026388.1124
        47.2504         31.5004
  22001654.5594   -3041581.09449  -2360433.57047                  22001652.7584
        47.5004         33.5004
  22829080.1864    -791928.84049   -615378.71547                  22829077.5414
        46.2504         30.7504
  24586842.4164    6411867.98058
        29.5004
 04  7  1 14 46 30.0000000  0  9G 6G15G16G18G21G22G26G29G30
  20649331.4204    1177528.91849    910932.71948                  20649329.1724
        51.0004         41.5004
  23316454.1334   -5946620.54749  -4628518.10947                  23316453.1054
        43.5004         27.2504
  23299924.7654   -3714317.27349  -2891148.41847                  23299921.3744
        46.0004         28.0004
  20910258.6534   -5319696.74249  -4127455.62948                  20910254.7574
        49.5004         41.0004
  20758986.3674   -2711798.17649  -2106862.85248                  20758982.0854
        49.5004         41.2504
  23016277.8694   -7622973.91049  -5934426.91847                  23016273.6544
        48.0004         32.0004
  21999249.6684   -3054218.95749  -2370281.25047                  21999247.4104
        46.5004         33.7504
  22829561.8764    -789397.08249   -613405.92647                  22829559.7954
        46.0004         31.2504
  24595285.2604    6456229.58648
        33.0004
 04  7  1 14 46 45.0000000  0  9G 6G15G16G18G21G22G26G29G30
  20652222.2904    1192723.16449    922772.37148                  20652220.2564
        51.5004         41.5004
  23308193.8894   -5990033.68749  -4662346.52347                  23308191.9054
        45.7504         29.0004
  23296229.7304   -3733735.14149  -2906279.23447                  23296226.6054
        45.7504         27.5004
  20904160.5234   -5351741.72749  -4152425.75848                  20904156.9974
        49.5004         41.5004
  20755676.6514   -2729189.48449  -2120414.52048                  20755672.8164
        50.2504         40.2504
  23006174.4164   -7676070.07049  -5975800.55147                  23006170.0304
        47.0004         31.0004
  21996873.1054   -3066707.30549  -2380012.44547                  21996870.9974
        47.5004         34.0004
  22830067.2924    -786739.39849   -611335.02047                  22830065.8444
        45.7504         31.5004
  24603720.2294    6500555.55148
        32.0004
 04  7  1 14 47  0.0000000  0  9G 6G15G16G18G21G22G26G29G30
  20655133.2374    1208020.35249    934692.24248                  20655130.8304
        51.2504         41.0004
  23299932.9514   -6033439.74649  -4696169.44947                  23299931.3714
        43.5004         28.5004
  23292558.2884   -3753029.72749  -2921313.97747                  23292554.6804
        45.2504         28.0004
  20898081.1184   -5383688.44149  -4177319.29748                  20898078.1944
        49.5004         41.7504
  20752374.3204   -2746544.07449  -2133937.58648                  20752370.2954
        50.0004         41.0004
  22996081.0654   -7729112.15649  -6017132.03947                  22996076.9034
        48.0004         31.0004
  21994525.2044   -3079045.61349  -2389626.69947                  21994523.0514
        47.2504         34.0004
  22830597.2874    -783955.44949   -609165.71147                  22830595.3554
        45.5004         30.2504
  24612149.3114    6544845.87548
        32.0004
 04  7  1 14 47 15.0000000  0  9G 6G15G16G18G21G22G26G29G30
  20658063.8824    1223419.82449    946691.82048                  20658061.4924
        50.5004         41.2504
  23291674.4744   -6076839.36749  -4729987.28947                  23291672.8194
        43.2504         27.2504
  23288910.0234   -3772201.61349  -2936253.12147                  23288906.3274
        45.7504         28.5004
  20892020.9644   -5415537.34849  -4202136.62548                  20892017.3624
        47.5004         42.0004
  20749078.6854   -2763862.73049  -2147432.65248                  20749074.6244
        48.0004         41.0004
  22985997.7114   -7782100.55549  -6058421.69947                  22985993.7864
        47.0004         31.0004
  21992206.1104   -3091234.47349  -2399124.51647                  21992204.1184
        48.5004         34.0004
  22831150.5234    -781045.89849   -606898.54347                  22831148.9484
        44.7504         31.0004
  24620568.9514    6589099.49648
        30.5004
 04  7  1 14 47 30.0000000  0  9G 6G15G16G18G21G22G26G29G30
  20661013.8734    1238922.87949    958772.10948                  20661011.6964
        51.0004         40.7504
  23283417.9904   -6120231.18049  -4763799.09447                  23283414.9044
        45.0004         27.2504
  23285285.7014   -3791249.43749  -2951095.60247                  23285281.8994
        46.5004         28.0004
  20885978.9604   -5447287.03149  -4226876.63348                  20885975.5824
        48.2504         41.0004
  20745790.0744   -2781143.88749  -2160898.48848                  20745786.0184
        49.0004         41.0004
  22975924.3884   -7835033.79749  -6099668.35547                  22975920.6444
        47.0004         31.5004
  21989915.3994   -3103272.32049  -2408504.64847                  21989912.9464
        48.0004         34.0004
  22831728.5804    -778009.48849   -604532.51647                  22831727.2134
        45.0004         31.2504
  24628983.9164    6633317.59048
        29.0004
 04  7  1 14 47 45.0000000  0  9G 6G15G16G18G21G22G26G29G30
  20663983.2114    1254527.16849    970931.30148                  20663980.7944
        51.2504         41.2504
  23275161.0884   -6163617.37549  -4797606.52747                  23275158.3904
        43.0004         27.7504
  23281683.6904   -3810175.19549  -2965842.94147                  23281680.1424
        46.2504         28.2504
  20879955.7764   -5478939.55149  -4251540.93448                  20879952.5484
        49.2504         41.2504
  20742508.4494   -2798389.91449  -2174336.95748                  20742504.2694
        50.0004         40.7504
  22965861.8124   -7887913.74649  -6140873.50447                  22965857.5874
        46.2504         30.7504
  21987652.6084   -3115161.16849  -2417768.68747                  21987650.6584
        48.7504         34.2504
  22832330.5734    -774848.52349   -602069.44947                  22832328.7334
        46.0004         31.0004
  24637392.1734
        28.0004
 04  7  1 14 48  0.0000000  0  8G 6G15G16G18G21G22G26G29
  20666971.9834    1270233.24249    983169.79748                  20666969.8184
        51.0004         41.2504
  23266905.9454   -6206997.35249  -4831409.09047                  23266904.4494
        43.5004         28.0004
  23278105.6544   -3828978.30149  -2980494.72747                  23278101.7084
        44.7504         27.2504
  20873950.6534   -5510494.34849  -4276129.08248                  20873947.8474
        49.5004         41.5004
  20739233.4604   -2815600.31249  -2187747.66048                  20739229.2734
        50.0004         40.7504
  22955809.2494   -7940739.81249  -6182036.66847                  22955804.8834
        46.7504         31.0004
  21985418.5424   -3126900.43449  -2426916.16447                  21985416.9934
        48.2504         34.0004
  22832955.8474    -771562.39549   -599508.83647                  22832953.4314
        46.2504         31.0004
 04  7  1 14 48 15.0000000  0  8G 6G15G16G18G21G22G26G29
  20669980.3644    1286040.18849    995486.86748                  20669977.9664
        51.0004         41.5004
  23258652.4524   -6250372.05549  -4865207.53547                  23258650.7944
        43.2504         29.0004
  23274550.5904   -3847659.61349  -2995051.62147                  23274547.3084
        45.0004         28.0004
  20867964.5684   -5541952.21949  -4300641.71148                  20867961.3134
        49.5004         41.7504
  20735965.1704   -2832775.82849  -2201131.19148                  20735961.0434
        50.2504         41.0004
  22945766.7884   -7993512.64549  -6223158.34047                  22945762.9024
        47.5004         31.7504
  21983213.4334   -3138490.92649  -2435947.72347                  21983211.4554
        48.7504         33.7504
  22833604.5344    -768152.02349   -596851.39847                  22833602.4414
        46.2504         31.0004
 04  7  1 14 48 30.0000000  0  8G 6G15G16G18G21G22G26G29
  20673007.6454    1301948.12149   1007882.64548                  20673005.5204
        51.5004         41.0004
  23250399.3414   -6293741.28549  -4899001.71947                  23250397.4574
        43.5004         28.5004
  23271018.9864   -3866219.11749  -3009513.56647                  23271015.2654
        44.2504         28.2504
  20861996.8954   -5573313.01249  -4325078.68048                  20861993.5144
        49.0004         41.0004
  20732703.1474   -2849916.35549  -2214487.45348                  20732699.2964
        48.7504         41.0004
  22935735.0574   -8046231.89549  -6264238.26647                  22935731.4444
        47.5004         32.2504
  21981035.7704   -3149932.35249  -2444863.11747                  21981034.4444
        48.0004         34.0004
  22834277.2824    -764617.34849   -594097.12147                  22834275.5804
        45.7504         31.7504
 04  7  1 14 48 45.0000000  0  8G 6G15G16G18G21G22G26G29
  20676053.6434    1317956.97749   1020357.06348                  20676051.5204
        51.0004         41.5004
  23242147.5224   -6337105.09049  -4932791.69147                  23242145.7814
        43.5004         28.0004
  23267510.5004   -3884656.61349  -3023880.44947                  23267506.8474
        45.5004         27.2504
  20856047.5904   -5604576.52749  -4349439.86748                  20856044.1844
        49.0004         40.5004
  20729448.1844   -2867021.77749  -2227816.34848                  20729444.2594
        49.5004         41.0004
  22925713.1224   -8098897.35949  -6305276.27747                  22925709.1554
        47.7504         32.0004
  21978887.3604   -3161224.43749  -2453662.15647                  21978885.6484
        47.7504         33.5004
  22834973.5474    -760958.39849   -591245.99247                  22834971.4894
        46.5004         30.5004
 04  7  1 14 49  0.0000000  0  8G 6G15G16G18G21G22G26G29
  20679119.3724    1334066.85549   1032910.21148                  20679117.1434
        51.2504         41.2504
  23233896.5104   -6380463.18749  -4966577.21547                  23233895.5334
        42.2504         30.0004
  23264025.3404   -3902971.79749  -3038152.05547                  23264021.4674
        44.7504         28.7504
  20850117.1054   -5635742.64849  -4373725.15648                  20850113.4704
        50.2504         41.0004
  20726199.8494   -2884091.80549  -2241117.66848                  20726195.8914
        50.5004         41.2504
  22915700.8004   -8151508.62549  -6346272.06247                  22915697.9374
        47.5004         31.0004
  21976767.0384   -3172366.99649  -2462344.66047                  21976765.0084
        48.0004         33.5004
  22835693.3854    -757175.00049   -588297.90647                  22835691.1784
        46.0004         31.5004
 04  7  1 14 49 15.0000000  0  8G 6G15G16G18G21G22G26G29
  20682204.1454    1350277.68449   1045542.00848                  20682202.0724
        51.0004         41.2504
  23225647.4124   -6423815.62949  -5000358.32047                  23225646.0004
        41.5004         29.7504
  23260562.3564   -3921164.76249  -3052328.38747                  23260560.2534
        45.0004         27.2504
  20844204.8604   -5666811.28949  -4397934.48848                  20844201.6484
        50.0004         41.5004
  20722957.9434   -2901126.66449  -2254391.58648                  20722954.3504
        50.5004         41.5004
  22905700.2674   -8204065.70349  -6387225.61347                  22905695.6624
        47.2504         31.0004
  21974675.2384   -3183359.92649  -2470910.57847                  21974672.8874
        47.5004         32.7504
  22836437.3184    -753267.25849   -585252.93447                  22836435.4374
        46.0004         30.7504
 04  7  1 14 49 30.0000000  0  8G 6G15G16G18G21G22G26G29
  20685308.1944    1366590.00449   1058252.89148                  20685305.9504
        51.7504         41.5004
  23217399.0684   -6467161.75849  -5034134.52747                  23217396.9654
        42.0004         29.0004
  23257123.7604   -3939234.77049  -3066408.91847                  23257121.1554
        45.0004         27.7504
  20838311.4334   -5697781.77349  -4422067.32448                  20838307.8504
        50.2504         41.0004
  20719723.3264   -2918125.56249  -2267637.48848                  20719719.5214
        51.2504         41.7504
  22895709.3474   -8256567.63349  -6428136.21547                  22895704.6974
        48.5004         31.7504
  21972611.6884   -3194202.52749  -2479359.36347                  21972609.1274
        47.0004         32.7504
  22837204.2924    -749234.62549   -582110.62547                  22837202.6064
        44.7504         30.7504
 04  7  1 14 49 45.0000000  0  8G 6G15G16G18G21G22G26G29
  20688431.9544    1383004.72349   1071043.57048                  20688429.8444
        51.2504         41.7504
  23209151.7514   -6510500.70749  -5067905.14547                  23209149.6634
        41.0004         29.2504
  23253709.2654   -3957180.91049  -3080392.93447                  23253706.2084
        45.2504         28.0004
  20832436.4884   -5728653.16449  -4446122.95748                  20832433.2544
        50.2504         41.0004
  20716495.6054   -2935087.68449  -2280854.73048                  20716491.6954
        51.0004         41.0004
  22885729.4084   -8309013.27049  -6469002.95347                  22885725.1944
        47.0004         31.5004
  21970577.0634   -3204893.68449  -2487690.13747                  21970575.1494
        47.2504         33.2504
  22837996.2824    -745076.26249   -578870.34847                  22837993.5134
        45.7504         31.0004
 04  7  1 14 50  0.0000000  0  8G 6G15G16G18G21G22G26G29
  20691575.1464    1399522.72349   1083914.72348                  20691572.7984
        52.0004         41.5004
  23200906.0944   -6553831.37949  -5101669.27747                  23200904.5054
        42.7504         28.5004
  23250318.3124   -3975002.14149  -3094279.60547                  23250314.8514
        42.7504         29.5004
  20826580.9944   -5759424.32849  -4470100.49248                  20826578.0014
        50.0004         41.5004
  20713275.1544   -2952011.76649  -2294042.32448                  20713271.1854
        50.2504         40.7504
  22875759.7314   -8361401.51249  -6509824.93447                  22875755.9454
        47.0004         32.0004
  21968571.8914   -3215432.37949  -2495902.10547                  21968569.9774
        48.5004         33.5004
  22838811.3604    -740791.20749   -575531.35247                  22838809.1304
        45.7504         30.0004
 04  7  1 14 50 15.0000000  0  8G 6G15G16G18G21G22G26G29
  20694738.3604    1416144.62149   1096866.82848                  20694735.8964
        51.2504         40.7504
  23192662.3324   -6597153.08249  -5135426.43447                  23192660.8104
        42.7504         28.7504
  23246950.9294   -3992697.70349  -3108068.36747                  23246947.8374
        40.5004         30.0004
  20820744.7794   -5790094.53949  -4493999.34848                  20820741.6954
        50.5004         41.2504
  20710061.7984   -2968897.30549  -2307199.89548                  20710057.8354
        49.0004         40.7504
  22865801.7174   -8413731.38349  -6550601.45347                  22865798.4034
        47.5004         32.0004
  21966595.2834   -3225817.72749  -2503994.59447                  21966593.9804
        48.0004         34.0004
  22839650.6814    -736378.68049   -572093.03547                  22839648.9144
        46.0004         30.5004
 04  7  1 14 50 30.0000000  0  8G 6G15G16G18G21G22G26G29
  20697921.2604    1432871.75049   1109900.93448                  20697919.1744
        51.2504         41.2504
  23184420.1614   -6640464.50049  -5169175.57847                  23184418.1374
        41.7504         28.2504
  23243607.5444   -4010266.24249  -3121758.14847                  23243605.0254
        43.0004         29.2504
  20814927.9874   -5820662.37149  -4517818.43448                  20814924.4204
        51.5004         41.0004
  20706856.6394   -2985742.94549  -2320326.37148                  20706852.3984
        50.7504         40.5004
  22855855.2394   -8466001.56249  -6591331.44547                  22855851.3934
        48.0004         32.5004
  21964648.4124   -3236048.41449  -2511966.56647                  21964647.3434
        47.7504         34.7504
  22840515.2984    -731837.47349   -568554.43747                  22840513.4184
        45.2504         30.5004
 04  7  1 14 50 45.0000000  0  8G 6G15G16G18G21G22G26G29
  20701123.6814    1449701.18449   1123014.75048                  20701121.8964
        51.0004         41.0004
  23176179.5424   -6683768.34049  -5202918.83247                  23176178.0844
        43.0004         29.0004
  23240288.7644   -4027710.43749  -3135351.05147                  23240285.4914
        46.2504         29.7504
  20809130.4854   -5851130.58249  -4541559.90248                  20809126.8774
        51.0004         41.5004
  20703657.7214   -3002551.34849  -2333423.82848                  20703653.7904
        51.2504         41.0004
  22845919.1494   -8518214.46549  -6632016.82447                  22845916.0824
        47.7504         31.7504
  21962730.6264   -3246126.90649  -2519819.93447                  21962729.2414
        47.5004         34.5004
  22841403.2464    -727170.46949   -564917.81247                  22841401.0714
        45.2504         30.7504
 04  7  1 14 51  0.0000000  0  8G 6G15G16G18G21G22G26G29
  20704345.9904    1466634.35949   1136209.42648                  20704343.9514
        50.5004         41.0004
  23167940.9794   -6727063.29349  -5236655.16047                  23167939.4494
        41.7504         28.5004
  23236992.5734   -4045029.01249  -3148846.04747                  23236988.6944
        46.0004         28.0004
  20803351.6034   -5881497.85249  -4565222.71948                  20803347.8894
        52.0004         41.2504
  20700466.2174   -3019321.17249  -2346491.23048                  20700462.3854
        51.0004         40.5004
  22835994.7874   -8570368.62149  -6672656.41047                  22835990.5874
        47.7504         31.5004
  21960841.9554   -3256051.96549  -2527553.75447                  21960840.4104
        47.5004         33.7504
  22842315.9094    -722376.45749   -561182.22747                  22842313.2624
        45.0004         30.5004
 04  7  1 14 51 15.0000000  0  8G 6G15G16G18G21G22G26G29
  20707588.0584    1483671.24249   1149484.89848                  20707586.3184
        51.0004         41.2504
  23159703.6974   -6770349.24649  -5270384.46147                  23159701.3894
        42.0004         28.5004
  23233720.7664   -4062221.84049  -3162243.07847                  23233717.6674
        45.0004         29.2504
  20797592.2084   -5911763.87949  -4588806.62548                  20797588.5314
        50.7504         41.7504
  20697282.6274   -3036052.40649  -2359528.56248                  20697278.5864
        51.0004         40.7504
  22826081.3334   -8622463.68049  -6713249.95747                  22826077.3014
        47.7504         32.0004
  21958982.5134   -3265823.32049  -2535167.80147                  21958980.7134
        48.0004         33.5004
  22843252.4344    -717455.34049   -557347.59847                  22843250.0924
        44.5004         31.0004
 04  7  1 14 51 30.0000000  0  8G 6G15G16G18G21G22G26G29
  20710850.1094    1500810.83649   1162840.41448                  20710847.7384
        51.2504         41.0004
  23151468.5194   -6813627.10949  -5304107.46947                  23151466.1174
        43.0004         29.2504
  23230473.4494   -4079289.77049  -3175542.76247                  23230470.5694
        45.7504         29.0004
  20791851.7134   -5941929.44549  -4612312.26248                  20791848.3004
        51.2504         41.5004
  20694106.0654   -3052745.75849  -2372536.36748                  20694102.3604
        51.7504         41.2504
  22816179.1044   -8674500.38349  -6753798.02047                  22816175.2744
        47.5004         32.7504
  21957152.3534   -3275441.71949  -2542662.66047                  21957150.4114
        47.7504         33.7504
  22844212.4744    -712408.16049   -553414.75047                  22844210.3094
        46.5004         30.5004
 04  7  1 14 51 45.0000000  0  8G 6G15G16G18G21G22G26G29
  20714130.6634    1518052.68049   1176275.60548                  20714128.7534
        51.2504         41.0004
  23143234.8984   -6856897.11749  -5337824.33647                  23143233.1504
        42.7504         29.5004
  23227248.9244   -4096233.03949  -3188745.32047                  23227245.9434
        45.7504         29.2504
  20786130.6134   -5971994.90649  -4635739.89148                  20786127.1504
        51.0004         41.5004
  20690936.8154   -3069401.27049  -2385514.69148                  20690932.7624
        51.5004         41.5004
  22806288.1394   -8726478.82449  -6794300.70347                  22806283.9874
        47.2504         32.7504
  21955351.1534   -3284907.37949  -2550038.50847                  21955349.0384
        48.0004         33.7504
  22845196.8694    -707235.12149   -549383.82847                  22845195.0004
        45.5004         31.0004
 04  7  1 14 52  0.0000000  0  8G 6G15G16G18G21G22G26G29
  20717430.9464    1535395.98849   1189789.84848                  20717428.7354
        51.0004         41.5004
  23135001.5624   -6900160.19549  -5371535.81247                  23135000.1714
        43.0004         28.7504
  23224047.7024   -4113052.40649  -3201851.35947                  23224044.9574
        44.5004         27.5004
  20780428.0854   -6001961.19149  -4659090.25448                  20780424.6184
        50.7504         41.5004
  20687774.1354   -3086020.19549  -2398464.50848                  20687770.2904
        52.0004         41.5004
  22796407.9164   -8778399.76249  -6834758.57047                  22796404.1304
        47.2504         33.0004
  21953578.7164   -3294221.10549  -2557295.96547                  21953576.9184
        47.7504         33.7504
  22846205.3434    -701937.25049   -545255.63347                  22846203.3074
        44.5004         30.7504
 04  7  1 14 52 15.0000000  0  8G 6G15G16G18G21G22G26G29
  20720750.3984    1552839.50449   1203382.18848                  20720748.4194
        50.7504         41.5004
  23126770.4734   -6943417.41849  -5405242.73447                  23126768.4834
        44.0004         30.0004
  23220870.6824   -4129749.08249  -3214861.76647                  23220867.4494
        44.5004         28.7504
  20774744.1564   -6031829.27349  -4682364.07848                  20774740.9174
        50.5004         41.2504
  20684618.3614   -3102603.58249  -2411386.62948                  20684614.6544
        51.0004         41.2504
  22786538.2744   -8830264.13749  -6875172.35947                  22786534.5074
        47.0004         32.0004
  21951835.0834   -3303383.89849  -2564435.82047                  21951833.3894
        47.5004         33.7504
  22847236.9584    -696515.73049   -541031.08647                  22847235.5024
        44.5004         30.5004
 04  7  1 14 52 30.0000000  0  8G 6G15G16G18G21G22G26G29
  20724089.1184    1570383.44949   1217052.77348                  20724086.9974
        51.0004         41.0004
  23118539.9714   -6986668.45349  -5438944.80947                  23118538.2864
        44.0004         29.7504
  23217717.1724   -4146322.64149  -3227776.25047                  23217713.8314
        46.0004         28.7504
  20769079.3474   -6061598.74649  -4705561.07048                  20769075.9314
        50.5004         41.2504
  20681469.6614   -3119150.69949  -2424280.48848                  20681465.6314
        51.7504         40.5004
  22776679.6834   -8882071.34049  -6915541.59847                  22776676.2254
        47.5004         32.7504
  21950120.2004   -3312395.34449  -2571457.72347                  21950118.5114
        48.0004         34.2504
  22848291.9744    -690970.30949   -536709.99247                  22848290.8464
        45.7504         31.0004
 04  7  1 14 52 45.0000000  0  8G 6G15G16G18G21G22G26G29
  20727446.5294    1588028.01249   1230801.77048                  20727444.7014
        51.5004         41.0004
  23110310.4504   -7029913.04349  -5472641.85947                  23110308.6104
        42.2504         28.7504
  23214586.7024   -4162772.87949  -3240594.60947                  23214583.3564
        45.7504         29.5004
  20763433.4144   -6091269.34049  -4728681.01248                  20763429.8474
        51.2504         41.7504
  20678327.6004   -3135661.66849  -2437146.18748                  20678323.5204
        51.5004         40.5004
  22766832.0364   -8933821.03949  -6955866.03547                  22766828.4544
        48.2504         32.7504
  21948434.0394   -3321255.23849  -2578361.53547                  21948432.4394
        47.5004         33.7504
  22849371.1954    -685300.78949   -532292.20347                  22849368.8164
        45.5004         30.0004
 04  7  1 14 53  0.0000000  0  8G 6G15G16G18G21G22G26G29
  20730823.5764    1605774.35249   1244630.07448                  20730821.8234
        51.2504         41.2504
  23102082.8764   -7073150.00849  -5506332.99247                  23102081.2054
        44.2504         28.5004
  23211479.7174   -4179098.59849  -3253315.95347                  23211476.6084
        45.2504         28.0004
  20757806.0784   -6120839.85949  -4751722.97748                  20757802.7404
        51.0004         40.7504
  20675192.7144   -3152135.17649  -2449982.68048                  20675188.9524
        51.0004         41.0004
  22756995.4684   -8985511.93049  -6996144.62547                  22756991.8444
        47.5004         33.5004
  21946777.5934   -3329962.19149  -2585146.18747                  21946775.4774
        48.0004         34.0004
  22850473.4594    -679506.08249   -527776.85247                  22850470.9994
        45.2504         30.2504
 04  7  1 14 53 15.0000000  0  8G 6G15G16G18G21G22G26G29
  20734219.9964    1623621.53949   1258536.97748                  20734217.7334
        51.5004         41.0004
  23093856.6564   -7116380.04749  -5540018.74247                  23093854.4104
        44.0004         28.0004
  23208397.0944   -4195300.35949  -3265940.73447                  23208394.5154
        45.5004         30.0004
  20752197.9364   -6150310.94149  -4774687.45348                  20752194.7324
        50.5004         41.0004
  20672064.9524   -3168572.09049  -2462790.66848                  20672061.0314
        51.0004         40.7504
  22747170.2834   -9037144.50849  -7036377.78147                  22747166.0404
        47.7504         32.5004
  21945149.6284   -3338516.84049  -2591812.14547                  21945147.2144
        47.7504         34.0004
  22851600.2104    -673586.96549   -523164.57447                  22851597.1914
        46.0004         29.5004
 04  7  1 14 53 30.0000000  0  8G 6G15G16G18G21G22G26G29
  20737635.0214    1641569.13349   1272522.09048                  20737633.0454
        51.2504         41.0004
  23085630.8124   -7159603.55549  -5573699.38347                  23085628.9744
        44.2504         28.5004
  23205337.4124   -4211378.85249  -3278469.44947                  23205334.8874
        45.5004         28.7504
  20746608.8474   -6179682.94549  -4797574.73048                  20746605.3794
        51.0004         41.2504
  20668944.1504   -3184972.59049  -2475570.28948                  20668940.2204
        51.5004         40.5004
  22737356.3594   -9088719.06649  -7076565.75847                  22737351.8564
        48.5004         33.2504
  21943550.2784   -3346919.62949  -2598359.77747                  21943548.8684
        47.5004         33.2504
  22852749.8084    -667544.14849   -518455.89547                  22852748.3904
        45.5004         30.5004
 04  7  1 14 53 45.0000000  0  8G 6G15G16G18G21G22G26G29
  20741069.7114    1659617.81649   1286585.98448                  20741067.8434
        51.5004         41.2504
  23077407.5744   -7202819.72349  -5607374.30147                  23077406.1494
        43.7504         29.7504
  23202301.1244   -4227333.01649  -3290901.27347                  23202298.3454
        44.5004         28.2504
  20741038.4494   -6208955.13749  -4820384.23848                  20741035.0704
        50.0004         41.2504
  20665830.4034   -3201335.69149  -2488320.75848                  20665826.5364
        51.0004         40.7504
  22727553.1794   -9140234.55949  -7116707.69547                  22727548.9534
        48.7504         33.2504
  21941980.1874   -3355169.62149  -2604788.33647                  21941978.8974
        47.5004         34.0004
  22853923.3614    -661376.62149   -513650.02347                  22853921.7864
        44.5004         31.0004
 04  7  1 14 54  0.0000000  0  8G 6G15G16G18G21G22G26G29
  20744523.8344    1677767.70349   1300728.72748                  20744521.4084
        51.5004         41.0004
  23069185.0864   -7246028.48049  -5641043.44947                  23069182.6004
        45.2504         30.0004
  23199289.6964   -4243162.80149  -3303236.18747                  23199285.1844
        45.5004         28.2504
  20735487.0684   -6238127.31649  -4843115.80548                  20735483.7784
        50.2504         41.0004
  20662723.2274   -3217661.82449  -2501042.42648                  20662719.5724
        51.7504         40.5004
  22717761.1174   -9191690.69149  -7156803.37547                  22717757.3894
        47.7504         33.2504
  21940439.8514   -3363266.53549  -2611097.63347                  21940438.0364
        47.5004         34.5004
  22855120.9794    -655084.40249   -508747.03147                  22855118.7694
        45.7504         30.0004
 04  7  1 14 54 15.0000000  0  8G 6G15G16G18G21G22G26G29
  20747996.2164    1696017.41049   1314949.27748                  20747994.1494
        51.2504         41.2504
  23060963.8634   -7289231.02749  -5674707.79347                  23060961.3404
        44.5004         29.0004
  23196300.2674   -4258869.49649  -3315475.16847                  23196296.6864
        46.0004         28.7504
  20729954.7794   -6267200.58249  -4865770.29348                  20729951.2934
        50.5004         41.2504
  20659623.5004   -3233951.98049  -2513736.05948                  20659619.9524
        51.2504         40.5004
  22707980.3784   -9243088.51649  -7196853.61747                  22707977.0024
        48.0004         33.7504
  21938927.8764   -3371211.66849  -2617288.65247                  21938925.9634
        47.0004         34.0004
  22856342.1564    -648669.01249   -503748.02747                  22856339.4994
        46.0004         30.5004
 04  7  1 14 54 30.0000000  0  8G 6G15G16G18G21G22G26G29
  20751488.4104    1714367.92249   1329248.37548                  20751486.1944
        51.2504         40.7504
  23052744.1614   -7332426.47749  -5708366.55547                  23052743.1524
        42.7504         30.7504
  23193334.6754   -4274452.06649  -3327617.45747                  23193331.5114
        43.0004         28.0004
  20724441.2174   -6296174.08649  -4888347.04348                  20724437.4974
        49.0004         41.5004
  20656530.8274   -3250205.18049  -2526400.88748                  20656527.0184
        50.2504         40.5004
  22698211.0224   -9294426.95349  -7236857.57447                  22698207.2174
        48.0004         33.7504
  21937445.0334   -3379003.93449  -2623360.55147                  21937443.4324
        47.5004         33.5004
  22857586.3264    -642129.50449   -498652.33647                  22857583.7554
        45.7504         30.2504
 04  7  1 14 54 45.0000000  0  8G 6G15G16G18G21G22G26G29
  20754999.2114    1732817.01649   1343624.28548                  20754997.2034
        51.0004         40.5004
  23044525.6704   -7375616.59449  -5742021.19147                  23044524.2554
        44.0004         30.5004
  23190392.8234   -4289912.38349  -3339664.46547                  23190390.0404
        39.7504         28.2504
  20718946.1564   -6325049.62949  -4910847.46948                  20718942.6674
        50.2504         41.5004
  20653444.5294   -3266423.10249  -2539038.23048                  20653440.8444
        50.0004         41.0004
  22688452.8954   -9345707.76249  -7276816.63747                  22688449.3274
        47.7504         34.5004
  21935991.0754   -3386645.26649  -2629314.84847                  21935989.1454
        47.0004         33.5004
  22858853.9654    -635467.79749   -493461.41047                  22858851.8094
        45.0004         31.0004
 04  7  1 14 55  0.0000000  0  8G 6G15G16G18G21G22G26G29
  20758529.0574    1751366.06349   1358078.08248                  20758526.8684
        51.2504         41.0004
  23036307.5944   -7418800.12949  -5775670.68447                  23036305.9984
        43.0004         29.5004
  23187474.7954   -4305249.16049  -3351615.21947                  23187471.7594
        43.5004         30.0004
  20713470.7014   -6353825.68449  -4933270.37148                  20713467.0434
        50.0004         41.7504
  20650365.5894   -3282604.39149  -2551647.03548                  20650361.7404
        50.7504         40.7504
  22678705.4304   -9396929.35549  -7316729.55147                  22678701.8594
        47.5004         33.7504
  21934565.5964   -3394134.14549  -2635150.34847                  21934564.1044
        47.0004         33.2504
  22860145.2554    -628682.62949   -488174.28147                  22860143.4244
        44.7504         31.0004
 04  7  1 14 55 15.0000000  0  8G 6G15G16G18G21G22G26G29
  20762077.5634    1770013.83249   1372608.79348                  20762075.3924
        51.2504         41.5004
  23028091.1654   -7461978.05149  -5809315.80547                  23028089.6824
        42.5004         30.0004
  23184579.4954   -4320463.48049  -3363470.54747                  23184577.0094
        46.0004         29.7504
  20708013.2844   -6382503.41849  -4955616.66848                  20708009.7844
        50.2504         41.0004
  20647292.9044   -3298750.15249  -2564228.15248                  20647289.4744
        51.2504         41.2504
  22668969.3434   -9448092.72349  -7356597.11347                  22668965.5964
        48.2504         33.2504
  21933169.7174   -3401471.57449  -2640867.82847                  21933168.2884
        47.0004         32.7504
  22861459.8254    -621775.22749   -482791.90247                  22861458.4404
        45.0004         31.0004
 04  7  1 14 55 30.0000000  0  8G 6G15G16G18G21G22G26G29
  20765645.1284    1788760.61749   1387216.66048                  20765642.7714
        51.5004         41.2504
  23019875.6844   -7505150.22749  -5842956.44147                  23019874.5904
        43.2504         29.7504
  23181707.0694   -4335555.19149  -3375230.33647                  23181704.6874
        46.0004         30.2504
  20702574.7134   -6411082.70349  -4977886.23848                  20702571.2144
        50.0004         41.2504
  20644227.2044   -3314860.22749  -2576781.45748                  20644223.3924
        51.5004         41.0004
  22659244.0864   -9499197.42249  -7396418.93747                  22659240.6284
        47.5004         33.7504
  21931802.0224   -3408657.44149  -2646467.21147                  21931800.3854
        46.5004         32.2504
  22862796.4734    -614745.56649   -477314.25047                  22862794.5984
        45.5004         30.5004
 04  7  1 14 55 45.0000000  0  8G 6G15G16G18G21G22G26G29
  20769230.8644    1807604.92649   1401900.52348                  20769228.8244
        51.5004         40.5004
  23011661.0714   -7548317.81249  -5876593.51247                  23011659.5094
        43.2504         29.5004
  23178858.7984   -4350525.52349  -3386895.53947                  23178855.7274
        45.7504         29.2504
  20697154.8104   -6439564.84049  -5000080.10948                  20697151.7914
        49.7504         40.7504
  20641168.1254   -3330935.85549  -2589307.93048                  20641164.4904
        50.7504         41.0004
  22649530.5564   -9550244.58249  -7436195.94547                  22649527.4524
        47.0004         34.2504
  21930463.3414   -3415692.77049  -2651949.28547                  21930461.3964
        46.5004         33.0004
  22864157.7514    -607594.83649   -471742.28547                  22864155.6554
        43.7504         30.0004
 04  7  1 14 56  0.0000000  0  8G 6G15G16G18G21G22G26G29
  20772835.6204    1826547.96949   1416661.32848                  20772833.6954
        51.2504         41.0004
  23003447.8244   -7591479.70749  -5910226.14847                  23003446.0284
        43.5004         30.0004
  23176033.3894   -4365373.11349  -3398465.10547                  23176031.1334
        46.0004         30.0004
  20691753.6124   -6467948.25849  -5022197.05548                  20691750.3654
        50.5004         41.0004
  20638116.1594   -3346975.75449  -2601806.54748                  20638112.0754
        51.2504         41.0004
  22639827.6984   -9601232.88349  -7475927.07447                  22639824.3334
        46.5004         33.5004
  21929153.6084   -3422576.44149  -2657313.18447                  21929151.0254
        46.5004         34.0004
  22865542.0114    -600322.03149   -466075.17247                  22865539.6894
        45.2504         30.2504
 04  7  1 14 56 15.0000000  0  8G 6G15G16G18G21G22G26G29
  20776458.7334    1845588.80149   1431498.31648                  20776457.1184
        51.2504         41.0004
  22995235.0764   -7634636.67249  -5943854.93447                  22995233.1484
        42.7504         28.5004
  23173231.0664   -4380098.89149  -3409939.75447                  23173228.3594
        45.7504         29.7504
  20686371.0044   -6496233.84849  -5044237.78548                  20686367.6874
        50.5004         41.2504
  20635070.2444   -3362980.42649  -2614277.72748                  20635066.8354
        51.0004         40.5004
  22630136.0844   -9652162.85949  -7515612.75847                  22630132.4174
        45.7504         33.7504
  21927872.9254   -3429309.01249  -2662559.35547                  21927870.6584
        47.2504         34.0004
  22866948.6914    -592927.84849   -460313.48447                  22866947.5494
        44.5004         30.0004
 04  7  1 14 56 30.0000000  0  8G 6G15G16G18G21G22G26G29
  20780100.7084    1864726.26649   1446410.61748                  20780098.5324
        51.2504         40.7504
  22987023.8834   -7677789.77049  -5977480.72747                  22987020.4854
        44.0004         29.0004
  23170451.5964   -4394703.92249  -3421320.29747                  23170448.8284
        44.2504         29.7504
  20681006.6694   -6524422.66849  -5066203.09448                  20681003.6114
        50.0004         41.5004
  20632031.1914   -3378951.46949  -2626722.70348                  20632027.3234
        51.0004         41.5004
  22620455.4244   -9703035.48449  -7555253.75047                  22620451.1424
        47.5004         34.5004
  21926619.5524   -3435891.65649  -2667688.68047                  21926618.1864
        46.5004         34.5004
  22868378.9154    -585413.64149   -454458.26647                  22868377.1724
        44.5004         29.5004
 04  7  1 14 56 45.0000000  0  8G 6G15G16G18G21G22G26G29
  20783761.1834    1883962.45349   1461399.83248                  20783759.2254
        51.0004         41.0004
  22978812.9924   -7720936.68049  -6011101.69547                  22978810.9454
        43.0004         29.7504
  23167696.2184   -4409185.87549  -3432604.94947                  23167693.1504
        46.2504         29.7504
  20675661.5874   -6552512.44949  -5088091.23848                  20675657.8064
        50.0004         41.2504
  20628998.8704   -3394886.21949  -2639139.39548                  20628995.0344
        52.0004         41.5004
  22610785.9614   -9753848.25049  -7594848.10547                  22610782.8764
        47.0004         33.5004
  21925396.0514   -3442321.91849  -2672699.28947                  21925394.5814
        46.0004         34.0004
  22869832.5574    -577777.14849   -448507.77047                  22869830.2754
        45.0004         29.5004
 04  7  1 14 57  0.0000000  0  8G 6G15G16G18G21G22G26G29
  20787440.2524    1903297.23849   1476465.87548                  20787438.5134
        51.2504         40.7504
  22970603.5594   -7764077.69949  -6044718.07047                  22970601.4084
        43.5004         29.2504
  23164963.8134   -4423545.07049  -3443793.95347                  23164960.7504
        46.0004         28.5004
  20670335.0904   -6580503.41449  -5109902.37548                  20670331.9594
        50.7504         41.7504
  20625973.6194   -3410785.15649  -2651528.18448                  20625969.7544
        51.2504         41.7504
  22601127.5274   -9804601.26649  -7634395.91447                  22601124.3804
        47.5004         34.2504
  21924201.4934   -3448600.13749  -2677591.41047                  21924199.7564
        46.0004         35.0004
  22871308.5334    -570018.77349   -442462.29347                  22871306.5614
        45.2504         29.5004
 04  7  1 14 57 15.0000000  0  8G 6G15G16G18G21G22G26G29
  20791138.6864    1922730.56649   1491608.70348                  20791136.7424
        52.0004         40.2504
  22962395.3594   -7807212.23849  -6078329.40247                  22962393.3874
        44.0004         28.0004
  23162254.5894   -4437781.07449  -3454886.95347                  23162251.5034
        45.0004         29.2504
  20665027.2404   -6608395.00049  -5131636.08248                  20665024.3024
        50.7504         41.5004
  20622954.9084   -3426647.71549  -2663888.62948                  20622951.2204
        51.0004         41.0004
  22591481.6894   -9855294.03949  -7673896.75447                  22591478.1184
        47.0004         33.7504
  21923035.6684   -3454725.80149  -2682364.66447                  21923033.6014
        46.2504         34.0004
  22872807.6444    -562138.32049   -436321.69947                  22872806.2094
        45.0004         30.5004
 04  7  1 14 57 30.0000000  0  8G 6G15G16G18G21G22G26G29
  20794855.2384    1942261.29349   1506827.42648                  20794853.3454
        51.5004         40.5004
  22954187.5454   -7850341.75449  -6111936.80147                  22954185.9534
        44.0004         28.0004
  23159569.1674   -4451895.28549  -3465885.06247                  23159565.7614
        45.5004         28.0004
  20659738.2854   -6636188.67249  -5153293.48848                  20659735.1504
        50.7504         41.7504
  20619943.2254   -3442475.16049  -2676221.69948                  20619939.2624
        51.0004         41.2504
  22581846.5474   -9905927.67249  -7713351.53547                  22581842.0384
        47.7504         34.0004
  21921898.6014   -3460700.21549  -2687020.05947                  21921896.7454
        46.7504         33.0004
  22874331.1284    -554137.07449   -430086.97347                  22874328.9854
        44.5004         30.0004
 04  7  1 14 57 45.0000000  0  8G 6G15G16G18G21G22G26G29
  20798590.4174    1961890.43049   1522122.84048                  20798588.2854
        51.0004         40.2504
  22945981.9534   -7893465.09049  -6145539.40647                  22945979.9114
        42.7504         29.0004
  23156906.7034   -4465886.50449  -3476787.31647                  23156903.4414
        46.0004         29.2504
  20654468.3624   -6663883.25049  -5174873.68748                  20654465.0494
        50.0004         41.5004
  20616938.1934   -3458266.31649  -2688526.50448                  20616934.1304
        51.5004         41.0004
  22572222.7274   -9956500.76249  -7752759.12547                  22572218.4294
        46.7504         34.0004
  21920790.6434   -3466522.10949  -2691556.59847                  21920789.0154
        47.5004         33.5004
  22875876.2124    -546014.04349   -423757.35547                  22875874.4214
        45.5004         30.5004
 04  7  1 14 58  0.0000000  0  8G 6G15G16G18G21G22G26G29
  20802344.8554    1981619.12149   1537495.83648                  20802342.6294
        51.2504         41.0004
  22937777.0294   -7936580.96949  -6179136.17247                  22937775.5144
        44.0004         28.7504
  23154267.4014   -4479753.49649  -3487592.79747                  23154264.9654
        44.7504         29.5004
  20649217.3644   -6691477.36749  -5196375.59848                  20649214.1364
        50.7504         41.5004
  20613940.0844   -3474019.79349  -2700801.94948                  20613936.5214
        51.2504         41.0004
  22562610.4624  -10007011.97749  -7792118.50847                  22562606.9424
        48.2504         33.5004
  21919712.6484   -3472190.24649  -2695973.33247                  21919710.4364
        47.5004         33.5004
  22877445.5344    -537768.08249   -417331.93447                  22877443.5654
        46.2504         30.5004
 04  7  1 14 58 15.0000000  0  8G 6G15G16G18G21G22G26G29
  20806117.6704    2001445.08249   1552944.62948                  20806115.5274
        50.7504         41.0004
  22929573.4604   -7979691.43049  -6212728.74647                  22929571.7314
        43.7504         29.2504
  23151652.0954   -4493498.48449  -3498303.16847                  23151649.1544
        44.5004         30.5004
  20643985.2514   -6718973.14149  -5217800.87548                  20643981.9374
        50.2504         41.2504
  20610949.5264   -3489737.86349  -2713049.79348                  20610945.3344
        50.7504         41.0004
  22553010.0184  -10057463.25449  -7831431.17647                  22553006.4284
        47.7504         34.2504
  21918662.6454   -3477706.73049  -2700271.90247                  21918660.7654
        47.5004         33.5004
  22879037.4494    -529401.41849   -410812.48047                  22879035.7784
        45.0004         30.5004
 04  7  1 14 58 30.0000000  0  8G 6G15G16G18G21G22G26G29
  20809908.9614    2021369.61749   1568470.23848                  20809907.2204
        51.2504         40.2504
  22921371.2944   -8022795.28149  -6246316.16047                  22921369.5074
        43.5004         29.2504
  23149060.2244   -4507120.03949  -3508917.37547                  23149057.1534
        45.0004         29.5004
  20638771.8154   -6746369.27349  -5239148.50848                  20638768.1984
        50.2504         41.0004
  20607964.8584   -3505419.30549  -2725269.10948                  20607961.1704
        50.5004         40.7504
  22543421.1784  -10107853.17649  -7870696.04347                  22543417.0954
        48.0004         33.7504
  21917641.9724   -3483070.23449  -2704451.25447                  21917640.2824
        47.5004         33.0004
  22880653.5534    -520912.82049   -404198.00847                  22880651.0854
        45.5004         31.2504
 04  7  1 14 58 45.0000000  0  8G 6G15G16G18G21G22G26G29
  20813719.5014    2041392.96549   1584072.83248                  20813717.3804
        51.7504         40.2504
  22913170.2694   -8065892.09449  -6279898.07047                  22913167.8154
        43.5004         29.0004
  23146491.0514   -4520617.91849  -3519435.21147                  23146488.1544
        46.0004         29.0004
  20633577.4014   -6773665.37949  -5260418.21148                  20633574.1974
        50.0004         41.5004
  20604988.1094   -3521063.54349  -2737459.43048                  20604984.2304
        51.5004         40.5004
  22533843.6344  -10158181.22749  -7909912.69547                  22533840.0834
        47.5004         33.5004
  21916650.8924   -3488280.27749  -2708511.03147                  21916648.7594
        47.7504         33.7504
  22882291.3414    -512302.09449   -397488.36347                  22882289.2684
        45.7504         31.0004
 04  7  1 14 59  0.0000000  0  8G 6G15G16G18G21G22G26G29
  20817548.6674    2061514.26249   1599751.75048                  20817546.2064
        51.5004         40.0004
  22904970.2474   -8108982.59049  -6313475.08247                  22904967.4614
        44.0004         29.0004
  23143946.2324   -4533992.84849  -3529857.24647                  23143943.5294
        45.0004         30.0004
  20628401.9704   -6800862.27349  -5281610.59448                  20628398.9984
        50.2504         41.2504
  20602018.3374   -3536671.31649  -2749621.33248                  20602014.3084
        51.5004         41.0004
  22524278.5854  -10208447.99249  -7949081.59447                  22524274.6084
        47.5004         34.2504
  21915687.9344   -3493337.66049  -2712451.85547                  21915686.0144
        46.7504         33.5004
  22883952.9784    -503570.07449   -390684.19947                  22883951.0904
        45.5004         29.5004
 04  7  1 14 59 15.0000000  0  8G 6G15G16G18G21G22G26G29
  20821396.0154    2081734.50449   1615507.76648                  20821393.8714
        51.2504         40.7504
  22896772.1534   -8152065.49249  -6347046.19147                  22896770.3414
        45.2504         29.7504
  23141424.6034   -4547243.59049  -3540182.51247                  23141421.4234
        45.7504         29.7504
  20623246.1754   -6827958.55149  -5302724.57848                  20623242.8444
        50.7504         41.2504
  20599055.1044   -3552241.27349  -2761753.76648                  20599051.6984
        51.5004         41.5004
  22514725.0894  -10258652.05949  -7988201.64147                  22514721.2694
        48.7504         34.5004
  21914755.0054   -3498241.12949  -2716272.75847                  21914753.1404
        48.2504         32.5004
  22885638.2764    -494715.78549   -383784.77047                  22885636.5924
        45.2504         30.5004
 04  7  1 14 59 30.0000000  0  8G 6G15G16G18G21G22G26G29
  20825262.5844    2102053.44549   1631340.69148                  20825260.5624
        51.2504         40.7504
  22888575.0814   -8195141.18049  -6380611.65647                  22888572.9584
        45.5004         29.5004
  23138926.7504   -4560370.49249  -3550411.28147                  23138923.7974
        46.0004         28.5004
  20618108.6204   -6854954.54749  -5323760.41448                  20618105.7504
        50.0004         41.5004
  20596099.6134   -3567773.82449  -2773857.06248                  20596095.9874
        51.5004         41.2504
  22505183.1984  -10308793.44949  -8027272.85947                  22505179.4364
        47.2504         33.7504
  21913851.5164   -3502990.90649  -2719973.87547                  21913849.3204
        47.2504         33.7504
  22887346.8114    -485739.35249   -376790.16447                  22887344.9134
        44.5004         30.5004
 04  7  1 14 59 45.0000000  0  8G 6G15G16G18G21G22G26G29
  20829147.9884    2122470.65649   1647250.19948                  20829146.2154
        51.0004         40.7504
  22880379.0624   -8238209.91849  -6414171.71147                  22880377.0834
        43.5004         28.2504
  23136452.7014   -4573373.90649  -3560543.80547                  23136449.7174
        45.7504         29.0004
  20612990.7034   -6881850.64149  -5344718.41048                  20612987.2974
        50.2504         41.5004
  20593150.7794   -3583269.27749  -2785931.44948                  20593146.9104
        51.7504         41.2504
  22495653.8154  -10358872.37549  -8066295.39847                  22495649.9154
        45.7504         33.7504
  21912976.2404   -3507587.23449  -2723555.43047                  21912974.7494
        45.7504         33.7504
  22889077.9954    -476641.30549   -369700.78947                  22889076.0944
        44.5004         30.7504
 04  7  1 15  0  0.0000000  0  8G 6G15G16G18G21G22G26G29
  20833052.0204    2142985.89849   1663236.09448                  20833049.5524
        51.0004         40.2504
  22872184.6844   -8281271.69549  -6447726.32847                  22872183.1934
        43.7504         29.0004
  23134001.1534   -4586253.80949  -3570580.09847                  23133998.1304
        45.5004         29.0004
  20607891.5904   -6908646.74649  -5365598.49648                  20607888.4634
        51.7504         41.5004
  20590209.1574   -3598727.31249  -2797976.67648                  20590205.6924
        51.7504         41.5004
  22486135.5564  -10408888.91049  -8105269.30547                  22486132.2914
        46.7504         34.0004
  21912130.9964   -3512030.15249  -2727017.43447                  21912129.2004
        46.5004         33.7504
  22890832.3464    -467421.88749   -362516.83247                  22890830.9354
        46.0004         30.5004
 04  7  1 15  0 15.0000000  0  8G 6G15G16G18G21G22G26G29
  20836974.5684    2163599.69549   1679298.79348                  20836972.4644
        51.2504         41.2504
  22863991.6424   -8324325.95349  -6481275.06647                  22863990.0734
        44.0004         29.7504
  23131574.4304   -4599009.69949  -3580519.77347                  23131570.5444
        45.2504         29.2504
  20602811.6104   -6935342.28149  -5386400.21148                  20602807.9894
        51.0004         41.7504
  20587275.0154   -3614147.45749  -2809992.37948                  20587271.2004
        51.2504         41.2504
  22476629.8064  -10458842.21949  -8144193.94147                  22476626.1454
        46.0004         34.5004
  21911315.2354   -3516319.02349  -2730359.42647                  21911312.7864
        46.5004         33.0004
  22892609.7654    -458080.52749   -355237.87147                  22892607.7604
        44.2504         29.7504
 04  7  1 15  0 30.0000000  0  8G 6G15G16G18G21G22G26G29
  20840915.7334    2184310.81349   1695437.30548                  20840913.6174
        51.0004         40.7504
  22855800.1144   -8367373.78549  -6514818.84847                  22855798.1834
        43.0004         29.2504
  23129169.8234   -4611642.80949  -3590363.77347                  23129166.7734
        43.2504         29.0004
  20597750.5594   -6961938.37549  -5407124.44148                  20597747.0344
        49.5004         41.5004
  20584347.4564   -3629531.11349  -2821979.64548                  20584343.8244
        51.7504         41.5004
  22467136.2904  -10508733.21949  -8183070.05147                  22467132.4594
        46.0004         34.2504
  21910527.8994   -3520455.07849  -2733582.32447                  21910525.8874
        47.0004         32.7504
  22894410.4684    -448618.50849   -347864.88747                  22894408.5334
        44.2504         30.5004
 04  7  1 15  0 45.0000000  0  8G 6G15G16G18G21G22G26G29
  20844875.4544    2205118.89849   1711651.38348                  20844873.1254
        50.5004         40.2504
  22847608.8594   -8410415.33649  -6548357.68047                  22847607.9434
        42.0004         29.2504
  23126789.7904   -4624153.19549  -3600112.12547                  23126785.5864
        44.5004         28.7504
  20592708.1314   -6988435.28149  -5427771.38348                  20592705.0944
        50.2504         41.5004
  20581427.2554   -3644878.27049  -2833938.47748                  20581423.2114
        52.0004         41.7504
  22457653.8064  -10558561.78549  -8221897.47747                  22457650.5724
        46.5004         34.0004
  21909770.2494   -3524438.30949  -2736686.14147                  21909767.6594
        47.2504         33.5004
  22896234.4014    -439036.21549   -340398.16047                  22896231.4214
        44.0004         30.5004
 04  7  1 15  1  0.0000000  0  8G 6G15G16G18G21G22G26G29
  20848853.6744    2226023.87949   1727940.94948                  20848851.6184
        51.2504         40.5004
  22839420.2074   -8453450.56249  -6581891.61747                  22839418.7234
        44.7504         29.5004
  23124432.1654   -4636540.95749  -3609764.95347                  23124428.1664
        45.0004         29.2504
  20587685.0044   -7014832.88349  -5448340.94548                  20587681.8024
        51.0004         41.7504
  20578513.5514   -3660188.95349  -2845868.87948                  20578509.5574
        52.5004         41.5004
  22448183.8424  -10608327.93449  -8260676.30147                  22448179.5974
        48.0004         34.5004
  21909040.8384   -3528268.80549  -2739670.95347                  21909038.8794
        47.7504         33.0004
  22898079.8924    -429333.73849   -332837.80147                  22898078.1994
        44.5004         29.2504
 04  7  1 15  1 15.0000000  0  8G 6G15G16G18G21G22G26G29
  20852850.0834    2247026.43849   1744306.55148                  20852848.4474
        51.5004         40.2504
  22831232.6824   -8496478.64549  -6615420.00047                  22831230.0684
        45.0004         29.7504
  23122098.1144   -4648805.30149  -3619321.59047                  23122094.6304
        45.0004         28.5004
  20582680.8834   -7041130.45749  -5468832.55948                  20582677.1644
        50.5004         42.2504
  20575607.2294   -3675462.21549  -2857770.14148                  20575603.3334
        51.5004         41.5004
  22438725.6224  -10658030.63749  -8299405.67647                  22438721.9384
        47.5004         34.2504
  21908341.0454   -3531945.70349  -2742536.06647                  21908340.0004
        48.0004         34.2504
  22899949.8724    -419510.35249   -325183.22347                  22899947.4564
        45.0004         30.0004
 04  7  1 15  1 30.0000000  0  8G 6G15G16G18G21G22G26G29
  20856865.2864    2268126.04349   1760747.77348                  20856862.9254
        51.0004         40.2504
  22823045.6594   -8539499.97349  -6648943.08647                  22823043.5064
        45.0004         29.5004
  23119787.9154   -4660946.68049  -3628782.42647                  23119784.3234
        45.5004         28.2504
  20577695.4324   -7067328.17649  -5489246.36348                  20577692.0624
        51.0004         42.0004
  20572707.7824   -3690698.44149  -2869642.52748                  20572704.0914
        52.0004         42.0004
  22429279.1244  -10707670.25049  -8338085.88747                  22429275.7964
        47.5004         34.5004
  21907670.5984   -3535469.48449  -2745281.86747                  21907669.2224
        47.2504         33.5004
  22901841.5904    -409566.57849   -317434.83647                  22901839.6694
        44.5004         29.5004
 04  7  1 15  1 45.0000000  0  8G 6G15G16G18G21G22G26G29
  20860899.6154    2289324.75449   1777266.22748                  20860897.3934
        51.0004         39.5004
  22814860.8584   -8582512.51649  -6682459.37547                  22814858.7894
        45.7504         31.5004
  23117501.2894   -4672963.07449  -3638145.85947                  23117496.8204
        44.7504         28.0004
  20572729.5974   -7093424.03549  -5509580.80948                  20572726.6754
        50.0004         42.0004
  20569816.0924   -3705895.60249  -2881484.47348                  20569812.1344
        52.0004         41.2504
  22419846.0994  -10757244.52349  -8376715.17647                  22419841.9774
        47.2504         34.5004
  21907029.5154   -3538837.95349  -2747906.65247                  21907027.7564
        48.0004         33.7504
  22903756.4754    -399500.48049   -309591.13347                  22903754.8994
        43.5004         29.7504
 04  7  1 15  2  0.0000000  0  8G 6G15G16G18G21G22G26G29
  20864952.0204    2310621.62549   1793861.19548                  20864950.0224
        51.0004         40.2504
  22806676.8684   -8625517.06249  -6715969.38747                  22806675.1334
        44.7504         30.5004
  23115238.1144   -4684855.19149  -3647412.44947                  23115234.9284
        45.7504         28.7504
  20567782.9854   -7119418.86749  -5529836.52748                  20567779.3624
        50.5004         42.0004
  20566931.3294   -3721054.39549  -2893296.52348                  20566927.4344
        51.5004         41.0004
  22410424.4674  -10806754.01249  -8415293.99247                  22410421.5614
        48.7504         34.7504
  21906417.8694   -3542051.89849  -2750411.03547                  21906416.3984
        48.0004         34.0004
  22905695.3934    -389313.03149   -301652.87547                  22905693.9704
        44.2504         29.5004
 04  7  1 15  2 15.0000000  0  8G 6G15G16G18G21G22G26G29
  20869023.5044    2332016.37549   1810532.42248                  20869020.9414
        51.2504         40.5004
  22798495.1874   -8668513.67649  -6749473.22747                  22798492.6214
        46.0004         30.2504
  23112998.6954   -4696623.39549  -3656582.50447                  23112995.3044
        43.7504         28.2504
  20562855.5394   -7145312.87949  -5550013.67248                  20562852.3074
        50.0004         41.7504
  20564053.8744   -3736174.94149  -2905078.77348                  20564050.1464
        52.0004         41.0004
  22401015.4194  -10856198.68449  -8453822.29747                  22401011.8944
        47.5004         34.5004
  21905835.8034   -3545111.54749  -2752795.18047                  21905833.3794
        48.2504         33.0004
  22907657.3624    -379004.46149   -293620.23447                  22907654.8864
        45.0004         29.2504
 04  7  1 15  2 30.0000000  0  8G 6G15G16G18G21G22G26G29
  20873113.0984    2353508.03149   1827279.14848                  20873111.0564
        51.5004         40.7504
  22790314.3584   -8711503.20749  -6782971.56647                  22790312.5434
        46.2504         31.2504
  23110783.0844   -4708268.60249  -3665656.71947                  23110779.3704
        44.5004         28.5004
  20557947.0204   -7171106.85549  -5570112.87948                  20557943.7864
        50.2504         42.0004
  20561183.6414   -3751258.19149  -2916831.96148                  20561179.9244
        51.5004         41.2504
  22391618.7514  -10905579.35949  -8492300.75047                  22391614.9164
        48.5004         34.7504
  21905282.7564   -3548017.71549  -2755059.71947                  21905280.8134
        48.5004         33.2504
  22909642.2044    -368575.81649   -285494.02347                  22909640.1514
        44.7504         30.0004
 04  7  1 15  2 45.0000000  0  8G 6G15G16G18G21G22G26G29
  20877221.6224    2375097.59849   1844102.18848                  20877219.2684
        51.2504         40.2504
  22782135.0064   -8754484.52049  -6816463.48047                  22782133.9134
        45.7504         31.2504
  23108591.0954   -4719789.60549  -3674634.14547                  23108586.6264
        45.0004         28.5004
  20553057.7244   -7196799.67249  -5590133.25848                  20553054.4864
        50.0004         42.2504
  20558320.9104   -3766302.82449  -2928555.06248                  20558316.8644
        51.2504         41.2504
  22382234.3054  -10954894.68449  -8530728.27047                  22382231.1994
        48.0004         34.7504
  21904759.1604   -3550769.20749  -2757203.73447                  21904757.5324
        48.0004         34.0004
  22911649.7014    -358026.06649   -277273.46947                  22911647.5164
        46.2504         29.5004
 04  7  1 15  3  0.0000000  0  8G 6G15G16G18G21G22G26G29
  20881348.6884    2396785.69949   1861002.00048                  20881346.6774
        52.0004         41.0004
  22773957.8544   -8797456.81249  -6849948.38347                  22773956.0754
        45.7504         31.2504
  23106421.6874   -4731185.64849  -3683514.18747                  23106417.8244
        45.5004         28.7504
  20548187.9054   -7222390.56249  -5610074.21948                  20548184.7954
        50.5004         42.0004
  20555465.4474   -3781307.96949  -2940247.38348                  20555461.7114
        51.5004         41.2504
  22372862.6674  -11004143.80949  -8569104.20347                  22372860.3574
        48.5004         35.0004
  21904265.6054   -3553365.20349  -2759226.59847                  21904263.3974
        48.7504         33.5004
  22913680.5164    -347354.48049   -268957.95747                  22913678.8454
        44.5004         30.0004
 04  7  1 15  3 15.0000000  0  8G 6G15G16G18G21G22G26G29
  20885494.1644    2418571.51649   1877977.94948                  20885492.2674
        50.7504         40.5004
  22765782.0364   -8840420.81649  -6883426.82447                  22765780.6694
        46.5004         31.2504
  23104276.9924   -4742457.50049  -3692297.45747                  23104273.2164
        44.2504         28.0004
  20543337.4814   -7247880.27349  -5629936.33248                  20543334.4764
        50.2504         42.5004
  20552617.3934   -3796274.43049  -2951909.56648                  20552613.6774
        51.0004         41.2504
  22363503.3504  -11053327.23049  -8607428.93447                  22363499.0934
        48.2504         34.7504
  21903800.4594   -3555806.59449  -2761128.98047                  21903798.6614
        47.2504         33.7504
  22915734.1404    -336562.04349   -260548.27047                  22915732.4114
        45.2504         29.7504
 04  7  1 15  3 30.0000000  0  8G 6G15G16G18G21G22G26G29
  20889658.6624    2440455.52049   1895030.39548                  20889656.4974
        51.5004         41.0004
  22757608.1004   -8883375.82849  -6916898.25447                  22757606.1784
        46.5004         31.2504
  23102155.7634   -4753604.61349  -3700983.54747                  23102152.3754
        45.0004         29.0004
  20538506.5074   -7273268.17249  -5649719.10548                  20538503.1814
        50.5004         42.5004
  20549777.1114   -3811201.09849  -2963540.74248                  20549773.1854
        51.0004         41.2504
  22354156.6594  -11102444.09849  -8645701.81647                  22354152.7784
        48.2504         34.2504
  21903365.2244   -3558092.58649  -2762910.28147                  21903363.8634
        47.2504         34.2504
  22917811.1114    -325648.12549   -252043.91847                  22917808.8314
        45.5004         29.2504
 04  7  1 15  3 45.0000000  0  8G 6G15G16G18G21G22G26G29
  20893841.6954    2462438.45349   1912159.94148                  20893840.0574
        51.5004         40.5004
  22749435.8414   -8926321.10949  -6950362.11347                  22749434.5554
        46.5004         32.0004
  23100058.5864   -4764626.30549  -3709571.88747                  23100054.8404
        45.0004         28.2504
  20533694.6694   -7298553.50049  -5669421.95348                  20533691.2544
        50.7504         42.0004
  20546944.3234   -3826087.53949  -2975140.57048                  20546940.3464
        51.2504         41.7504
  22344822.6964  -11151493.63749  -8683922.23847                  22344818.8464
        48.5004         34.2504
  21902960.2954   -3560222.45349  -2764569.91447                  21902958.9224
        47.5004         34.0004
  22919911.2344    -314612.18049   -243444.50447                  22919908.5974
        46.7504         28.5004
 04  7  1 15  4  0.0000000  0  8G 6G15G16G18G21G22G26G29
  20898043.8994    2484518.93449   1929365.48048                  20898041.9914
        51.0004         40.2504
  22741265.3454   -8969257.87149  -6983819.31247                  22741263.2464
        46.2504         30.7504
  23097984.6684   -4775523.72749  -3718063.40647                  23097981.9674
        45.7504         28.2504
  20528902.2894   -7323737.35249  -5689045.73848                  20528899.2254
        50.5004         41.5004
  20544118.9004   -3840935.04349  -2986710.07048                  20544115.1894
        51.5004         41.2504
  22335501.8874  -11200476.79349  -8722090.93447                  22335497.4884
        49.2504         34.5004
  21902584.3314   -3562197.48849  -2766108.90247                  21902582.9614
        48.0004         33.5004
  22922033.9614    -303455.53949   -234751.01647                  22922031.5274
        45.2504         29.5004
 04  7  1 15  4 15.0000000  0  8G 6G15G16G18G21G22G26G29
  20902264.2314    2506697.84449   1946647.73048                  20902262.5584
        51.5004         40.5004
  22733096.6144   -9012184.93049  -7017268.96947                  22733094.3404
        46.5004         31.2504
  23095934.6294   -4786295.96949  -3726457.36347                  23095931.1374
        45.7504         27.2504
  20524129.4354   -7348818.73049  -5708589.67248                  20524126.3704
        50.0004         41.7504
  20541300.9474   -3855742.43049  -2998248.29348                  20541297.5404
        51.2504         41.2504
  22326193.3084  -11249392.44149  -8760207.00447                  22326189.5894
        48.5004         35.0004
  21902238.2554   -3564016.63749  -2767526.42247                  21902236.7464
        48.0004         34.2504
  22924180.4514    -292177.30149   -225962.80547                  22924178.4564
        45.5004         28.7504
 04  7  1 15  4 30.0000000  0  8G 6G15G16G18G21G22G26G29
  20906503.5164    2528974.39149   1964006.05948                  20906501.2984
        50.7504         40.2504
  22724929.3854   -9055103.07049  -7050711.65647                  22724927.4794
        46.5004         31.0004
  23093908.7364   -4796943.77349  -3734754.37547                  23093904.7334
        45.2504         29.0004
  20519375.9494   -7373798.41449  -5728054.35548                  20519372.5134
        50.5004         42.0004
  20538490.7854   -3870510.54749  -3009755.92248                  20538486.8704
        51.5004         41.2504
  22316897.5004  -11298241.26249  -8798271.01647                  22316893.8614
        48.5004         35.0004
  21901921.6914   -3565680.60249  -2768823.02747                  21901919.7614
        47.7504         34.0004
  22926349.1374    -280778.35249   -217080.51647                  22926348.0334
        44.0004         29.5004
 04  7  1 15  4 45.0000000  0  8G 6G15G16G18G21G22G26G29
  20910761.1494    2551349.21549   1981440.96148                  20910759.0764
        51.5004         40.0004
  22716764.0754   -9098011.38349  -7084146.69547                  22716761.8444
        46.2504         31.2504
  23091906.1844   -4807466.36349  -3742953.80147                  23091903.0534
        45.2504         28.0004
  20514641.9104   -7398675.45749  -5747439.07448                  20514639.0244
        50.5004         41.0004
  20535688.0224   -3885238.35949  -3021232.14848                  20535684.2274
        51.0004         41.5004
  22307615.1584  -11347022.21549  -8836282.13347                  22307611.1924
        48.5004         35.0004
  21901635.2534   -3567188.60549  -2769998.09047                  21901632.9364
        47.5004         34.0004
  22928541.1684    -269257.98849   -208103.60547                  22928540.3024
        44.5004         30.0004
 04  7  1 15  5  0.0000000  0  8G 6G15G16G18G21G22G26G29
  20915037.3644    2573820.48449   1998951.01248                  20915035.3534
        51.2504         40.0004
  22708600.7754   -9140911.55549  -7117575.41847                  22708599.1814
        46.0004         31.2504
  23089927.0574   -4817865.52749  -3751057.07447                  23089923.5224
        42.5004         28.0004
  20509927.5844   -7423451.62549  -5766745.17648                  20509923.9044
        49.5004         41.5004
  20532893.0034   -3899927.36749  -3032678.13748                  20532889.2204
        50.7504         41.2504
  22298345.0364  -11395736.77049  -8874241.52747                  22298340.4134
        48.7504         34.7504
  21901377.0834   -3568542.31649  -2771052.92647                  21901374.9124
        48.0004         33.0004
  22930756.4804    -257618.04349   -199033.52047                  22930754.5034
        44.0004         28.2504
 04  7  1 15  5 15.0000000  0  8G 6G15G16G18G21G22G26G29
  20919332.2024    2596389.61749   2016537.32848                  20919329.8984
        51.5004         40.5004
  22700438.9644   -9183802.25049  -7150996.71947                  22700437.5804
        46.0004         32.7504
  23087972.3554   -4828139.81249  -3759063.01247                  23087969.4134
        43.2504         28.5004
  20505232.0654   -7448125.49649  -5785971.57848                  20505228.6394
        50.0004         41.2504
  20530105.5104   -3914576.44149  -3044093.00848                  20530101.7624
        51.5004         41.2504
  22289087.4844  -11444383.33249  -8912147.93447                  22289084.0024
        48.5004         35.0004
  21901149.7994   -3569740.20349  -2771986.35247                  21901147.4144
        48.0004         33.0004
  22932994.3624    -245857.17649   -189869.22347                  22932991.9344
        45.0004         29.0004
 04  7  1 15  5 30.0000000  0  8G 6G15G16G18G21G22G26G29
  20923645.0054    2619055.34449   2034198.91848                  20923643.5034
        52.0004         40.2504
  22692278.9464   -9226684.42649  -7184411.39847                  22692276.6474
        47.0004         32.5004
  23086040.9394   -4838290.34449  -3766972.54347                  23086037.8334
        44.7504         29.0004
  20500556.2554   -7472698.11349  -5805119.06648                  20500552.6104
        50.2504         41.7504
  20527325.0244   -3929186.48849  -3055477.46548                  20527321.3084
        52.0004         41.5004
  22279843.2644  -11492962.86349  -8950002.10947                  22279839.5674
        48.2504         35.0004
  21900950.5364   -3570783.47749  -2772799.30147                  21900949.0724
        47.7504         33.2504
  22935255.5544    -233976.73849   -180611.75847                  22935253.1694
        44.7504         30.2504
 04  7  1 15  5 45.0000000  0  8G 6G15G16G18G21G22G26G29
  20927976.9214    2641817.29749   2051935.49248                  20927974.8814
        51.5004         40.7504
  22684119.9294   -9269558.27749  -7217819.59047                  22684118.1824
        47.0004         31.7504
  23084132.8534   -4848317.41449  -3774785.85547                  23084130.2604
        45.0004         29.5004
  20495899.2204   -7497169.68749  -5824187.82448                  20495895.8984
        49.7504         42.0004
  20524552.2254   -3943757.40649  -3066831.44148                  20524548.9064
        50.5004         41.0004
  22270611.6884  -11541475.42249  -8987804.08647                  22270607.7604
        49.0004         34.5004
  21900781.7184   -3571672.36349  -2773491.94547                  21900780.2384
        47.5004         33.7504
  22937538.9004    -221976.96949   -171261.30147                  22937537.0824
        43.5004         29.2504
 04  7  1 15  6  0.0000000  0  8G 6G15G16G18G21G22G26G29
  20932326.7334    2664676.14149   2069747.55548                  20932324.7464
        50.7504         40.2504
  22675962.8894   -9312423.11749  -7251220.75447                  22675961.7034
        46.0004         31.0004
  23082247.7654   -4858220.44949  -3782502.51647                  23082245.4874
        44.5004         29.0004
  20491261.9084   -7521539.66049  -5843177.41448                  20491258.3194
        49.2504         41.7504
  20521787.1324   -3958288.71149  -3078154.53948                  20521783.5004
        50.7504         41.0004
  22261392.6034  -11589920.21549  -9025553.27347                  22261388.9904
        48.5004         35.0004
  21900642.1744   -3572406.27749  -2774063.82847                  21900640.5054
        47.0004         33.5004
  22939845.0894    -209857.44549   -161817.50847                  22939842.7574
        44.0004         30.0004
 04  7  1 15  6 15.0000000  0  8G 6G15G16G18G21G22G26G29
  20936695.1074    2687631.00449   2087634.45748                  20936692.7864
        51.2504         40.0004
  22667807.7944   -9355279.53149  -7284615.36347                  22667805.1014
        46.2504         30.5004
  23080386.9134   -4868000.16049  -3790123.07447                  23080384.0844
        43.5004         29.2504
  20486643.7834   -7545808.43449  -5862088.15648                  20486640.0994
        50.0004         41.7504
  20519029.3134   -3972780.89149  -3089447.15248                  20519025.4814
        50.2504         41.5004
  22252187.1334  -11638297.68749  -9063250.00047                  22252182.8024
        48.5004         35.0004
  21900531.5424   -3572985.78549  -2774515.39847                  21900529.9634
        46.0004         34.0004
  22942174.5614    -197618.73049   -152280.87147                  22942172.0804
        44.5004         29.7504
 04  7  1 15  6 30.0000000  0  8G 6G15G16G18G21G22G26G29
  20941080.9704    2710680.08249   2105594.77048                  20941078.8734
        51.2504         40.2504
  22659653.6254   -9398129.14849  -7318004.66447                  22659651.7084
        46.5004         30.7504
  23078548.9714   -4877658.19149  -3797648.80947                  23078546.4824
        43.5004         29.7504
  20482044.4354   -7569977.77049  -5880921.39548                  20482041.1244
        49.5004         41.7504
  20516278.8644   -3987235.80149  -3100710.73048                  20516275.0294
        50.7504         41.2504
  22242993.4984  -11686609.31649  -9100895.42247                  22242990.2124
        48.0004         35.0004
  21900450.6994   -3573412.50049  -2774847.90247                  21900448.8644
        46.2504         34.2504
  22944525.0084    -185262.95749   -142653.00847                  22944523.7904
        44.2504         28.2504
 04  7  1 15  6 45.0000000  0  8G 6G15G16G18G21G22G26G29
  20945485.3884    2733825.63349   2123630.25848                  20945483.5324
        51.0004         40.2504
  22651501.2434   -9440969.76249  -7351386.94947                  22651499.8894
        46.0004         30.7504
  23076734.9784   -4887192.33649  -3805078.04747                  23076731.7834
        45.2504         29.2504
  20477464.5114   -7594045.51249  -5899675.49248                  20477461.0584
        50.0004         42.0004
  20513535.8474   -4001651.18049  -3111943.50048                  20513531.4494
        50.2504         41.2504
  22233813.2204  -11734852.85549  -9138487.78147                  22233809.3884
        49.0004         35.0004
  21900398.9224   -3573684.35949  -2775059.74647                  21900396.9414
        46.7504         33.5004
  22946898.6844    -172787.76649   -132932.08647                  22946897.8914
        44.0004         29.5004
 04  7  1 15  7  0.0000000  0  8G 6G15G16G18G21G22G26G29
  20949907.6494    2757065.90649   2141739.53948                  20949906.3484
        51.0004         40.0004
  22643350.2524   -9483802.75049  -7384763.29747                  22643348.6344
        45.5004         29.7504
  23074943.8364   -4896604.04749  -3812411.85947                  23074941.3384
        43.5004         29.2504
  20472903.6674   -7618013.16449  -5918351.58248                  20472900.2844
        49.7504         41.2504
  20510799.5254   -4016028.15249  -3123146.34048                  20510796.0304
        51.0004         41.0004
  22224645.6004  -11783029.53549  -9176028.04747                  22224641.6754
        49.2504         35.7504
  21900376.3304   -3573802.77049  -2775152.00447                  21900374.3704
        47.2504         34.0004
  22949295.6244    -160194.94149   -123119.49647                  22949294.0244
        45.0004         30.0004
 04  7  1 15  7 15.0000000  0  8G 6G15G16G18G21G22G26G29
  20954348.5024    2780401.21149   2159922.87148                  20954346.6124
        52.0004         40.2504
  22635201.3164   -9526627.71549  -7418133.40647                  22635198.7604
        46.2504         30.2504
  23073176.0774   -4905893.18049  -3819650.16447                  23073173.7894
        45.0004         29.0004
  20468361.6624   -7641880.30549  -5936949.35548                  20468358.1534
        50.0004         41.7504
  20508071.0384   -4030366.43749  -3134319.03948                  20508067.2594
        50.5004         42.0004
  22215490.6234  -11831138.77349  -9213515.75047                  22215487.0164
        48.7504         35.7504
  21900383.2044   -3573767.29349  -2775124.37147                  21900381.2494
        46.0004         34.2504
  22951715.1744    -147483.98849   -113214.87947                  22951712.9094
        44.5004         30.2504
 04  7  1 15  7 30.0000000  0  8G 6G15G16G18G21G22G26G29
  20958806.8054    2803830.33649   2178179.32048                  20958804.9054
        51.2504         39.7504
  22627053.6094   -9569445.58649  -7451497.98047                  22627050.8514
        46.5004         30.7504
  23071432.0604   -4915060.77049  -3826793.76647                  23071429.1214
        44.5004         29.5004
  20463838.6554   -7665647.91049  -5955469.57048                  20463835.4504
        49.7504         41.5004
  20505350.0394   -4044667.07849  -3145462.39548                  20505346.0554
        50.2504         40.7504
  22206348.3724  -11879181.48849  -9250951.60947                  22206344.4694
        48.7504         36.0004
  21900418.7464   -3573579.17249  -2774977.79347                  21900417.0174
        44.2504         33.5004
  22954155.7834    -134656.31249   -103219.29747                  22954153.9844
        44.0004         30.0004
 04  7  1 15  7 45.0000000  0  8G 6G15G16G18G21G22G26G29
  20963283.2924    2827355.10949   2196510.30147                  20963281.3614
        51.0004         39.0004
  22618906.9174   -9612254.57449  -7484855.62147                  22618905.2094
        46.2504         31.0004
  23069710.9914   -4924104.98449  -3833841.21947                  23069708.1364
        44.5004         28.5004
  20459335.3784   -7689314.13349  -5973910.78948                  20459331.9664
        49.5004         42.0004
  20502636.0694   -4058928.08249  -3156574.87148                  20502632.3904
        51.0004         41.0004
  22197219.2684  -11927155.78949  -9288334.18747                  22197214.7314
        49.5004         36.0004
  21900484.2044   -3573236.45349  -2774710.73047                  21900482.2414
        46.5004         33.5004
  22956619.2214    -121710.19949    -93131.42247                  22956617.9514
        45.0004         31.2504
 04  7  1 15  8  0.0000000  0  8G 6G15G16G18G21G22G26G29
  20967777.8254    2850973.41049   2214914.14548                  20967775.7284
        51.0004         39.7504
  22610761.7844   -9655056.36749  -7518207.66847                  22610759.4754
        46.0004         30.2504
  23068012.9124   -4933027.71149  -3840793.99647                  23068009.8654
        44.0004         28.7504
  20454850.8524   -7712880.83249  -5992274.44948                  20454847.4044
        49.7504         41.7504
  20499929.9584   -4073151.21149  -3167657.84048                  20499926.4334
        51.2504         41.7504
  22188102.8764  -11975063.23049  -9325664.66047                  22188099.0284
        49.2504         35.7504
  21900578.3664   -3572741.01249  -2774324.68047                  21900576.6124
        47.0004         34.5004
  22959104.9664    -108647.58249    -82952.77347                  22959103.6484
        44.5004         30.7504
 04  7  1 15  8 15.0000000  0  8G 6G15G16G18G21G22G26G29
  20972289.6704    2874683.96149   2233389.87548                  20972288.3514
        50.5004         39.7504
  22602618.1804   -9697852.27049  -7551555.12147                  22602616.1614
        47.0004         30.2504
  23066337.4874   -4941830.28149  -3847653.15247                  23066334.0004
        42.7504         28.7504
  20450384.9684   -7736349.21549  -6010561.50048                  20450381.4144
        49.5004         41.7504
  20497230.1474   -4087337.66449  -3178712.22348                  20497226.3734
        51.0004         41.2504
  22178998.5324  -12022904.93049  -9362943.89147                  22178994.8144
        49.2504         36.0004
  21900701.2244   -3572094.05949  -2773820.57447                  21900699.8634
        47.0004         34.5004
  22961612.2114     -95469.75449    -72684.34047                  22961610.5804
        44.0004         30.5004
 04  7  1 15  8 30.0000000  0  8G 6G15G16G18G21G22G26G29
  20976819.6124    2898487.49249   2251938.05548                  20976817.4774
        51.0004         40.0004
  22594475.7044   -9740641.50849  -7584897.36347                  22594474.3884
        46.2504         31.5004
  23064685.8814   -4950512.05149  -3854418.18447                  23064682.3284
        44.5004         29.7504
  20445937.9844   -7759718.48849  -6028771.33248                  20445934.8504
        50.0004         41.7504
  20494537.6204   -4101486.79749  -3189737.53148                  20494533.8684
        51.5004         41.0004
  22169907.2904  -12070680.12549  -9400171.30147                  22169903.3324
        48.5004         35.7504
  21900853.1324   -3571294.98449  -2773197.91847                  21900852.1764
        47.0004         34.0004
  22964142.3984     -82176.28549    -62325.80147                  22964140.4364
        45.5004         29.7504
 04  7  1 15  8 45.0000000  0  8G 6G15G16G18G21G22G26G29
  20981366.7434    2922382.85549   2270557.78948                  20981364.7434
        51.0004         40.0004
  22586334.3714   -9783424.84449  -7618235.02047                  22586331.8584
        46.2504         31.0004
  23063056.5994   -4959073.78949  -3861089.69547                  23063053.9274
        45.2504         29.0004
  20441509.8534   -7782989.54349  -6046904.62548                  20441506.2694
        49.5004         42.0004
  20491851.7964   -4115599.35549  -3200734.34048                  20491848.3664
        50.5004         41.5004
  22160828.5914  -12118389.34049  -9437347.31247                  22160824.8334
        49.0004         36.5004
  21901034.3054   -3570344.52049  -2772457.30147                  21901032.6604
        47.0004         33.5004
  22966694.3124     -68768.06649    -51877.86347                  22966692.0294
        45.0004         28.5004
 04  7  1 15  9  0.0000000  0  8G 6G15G16G18G21G22G26G29
  20985931.3084    2946369.14149   2289248.37548                  20985929.1774
        51.2504         39.7504
  22578194.1674   -9826203.25849  -7651568.85247                  22578191.5104
        46.0004         31.0004
  23061449.7534   -4967516.55549  -3867668.49647                  23061447.0864
        44.0004         28.5004
  20437099.6124   -7806163.32049  -6064962.10948                  20437096.3034
        50.2504         41.7504
  20489173.2154   -4129676.14849  -3211703.27748                  20489169.4194
        50.0004         41.2504
  22151762.3414  -12166033.48449  -9474472.59847                  22151758.6864
        49.2504         36.0004
  21901243.2254   -3569243.85949  -2771599.65247                  21901242.3274
        45.5004         34.5004
  22969267.0344     -55246.39149    -41341.50047                  22969265.1624
        44.5004         30.0004
 04  7  1 15  9 15.0000000  0  8G 6G15G16G18G21G22G26G29
  20990512.6434    2970446.85249   2308010.21548                  20990510.9304
        51.0004         40.0004
  22570054.9574   -9868975.94149  -7684898.19947                  22570052.5864
        45.7504         31.2504
  23059866.2174   -4975839.82449  -3874154.16447                  23059862.4214
        43.0004         28.7504
  20432708.4714   -7829239.25049  -6082943.35948                  20432705.1304
        50.5004         42.0004
  20486501.4994   -4143716.28949  -3222643.64848                  20486497.6984
        50.5004         41.2504
  22142708.3084  -12213611.62149  -9511546.46547                  22142704.4504
        49.0004         35.5004
  21901481.9414   -3567992.20349  -2770624.32847                  21901480.2454
        46.2504         33.5004
  22971862.3144     -41610.37949    -30716.04747                  22971860.0144
        46.0004         29.7504
 04  7  1 15  9 30.0000000  0  8G 6G15G16G18G21G22G26G29
  20995112.5204    2994615.30949   2326842.75848                  20995110.5574
        50.5004         39.7504
  22561916.2884   -9911743.29349  -7718223.41847                  22561913.7094
        44.0004         29.5004
  23058305.1644   -4984044.11349  -3880547.12547                  23058301.2374
        44.2504         28.0004
  20428335.8884   -7852217.75049  -6100848.68048                  20428332.9014
        49.7504         42.0004
  20483836.7424   -4157720.21549  -3233555.81248                  20483832.9284
        50.0004         41.0004
  22133667.1594  -12261124.03549  -9548569.11747                  22133662.8874
        49.2504         35.2504
  21901748.8714   -3566589.96549  -2769531.68047                  21901747.2394
        46.2504         33.7504
  22974478.0794     -27860.78149    -20002.07847                  22974476.4084
        45.2504         30.2504
 04  7  1 15  9 45.0000000  0  8G 6G15G16G18G21G22G26G29
  20999728.5564    3018875.20749   2345746.55548                  20999726.9134
        51.2504         40.2504
  22553778.9014   -9954504.51649  -7751543.84847                  22553776.7844
        45.0004         30.0004
  23056766.9684   -4992128.72749  -3886846.84847                  23056762.5834
        44.7504         28.7504
  20423981.6754   -7875098.09449  -6118677.52748                  20423978.4994
        49.0004         42.2504
  20481179.2374   -4171687.15649  -3244439.15648                  20481175.2714
        50.2504         41.0004
  22124638.4474  -12308569.91049  -9585539.92647                  22124634.5084
        49.5004         35.2504
  21902044.2544   -3565036.62949  -2768321.29747                  21902042.6794
        46.5004         34.0004
  22977117.0364     -13997.14849     -9199.25847                  22977114.7934
        46.2504         29.2504
 04  7  1 15 10  0.0000000  0  8G 6G15G16G18G21G22G26G29
  21004362.2494    3043225.50849   2364720.80148                  21004360.5444
        51.2504         39.5004
  22545643.0164   -9997260.48049  -7784860.18747                  22545641.1514
        44.5004         31.2504
  23055250.5574   -5000094.48049  -3893053.95347                  23055247.4674
        43.2504         28.2504
  20419646.5594   -7897881.04349  -6136430.47748                  20419643.1604
        50.0004         41.5004
  20478528.0874   -4185617.93749  -3255294.31648                  20478524.2684
        50.7504         41.2504
  22115621.9014  -12355949.91449  -9622459.39547                  22115618.4384
        49.5004         35.0004
  21902368.7494   -3563332.96149  -2766993.77047                  21902366.6264
        45.7504         33.7504
  22979776.2344        -20.27749      1691.80147                  22979774.6604
        44.5004         29.0004
 04  7  1 15 10 15.0000000  0  8G 6G15G16G18G21G22G26G29
  21009013.4274    3067667.31649   2383766.36348                  21009011.7114
        50.5004         40.0004
  22537507.3814  -10040009.98449  -7818171.47747                  22537505.7214
        44.7504         30.7504
  23053757.0894   -5007940.29749  -3899167.59047                  23053754.1704
        45.2504         28.0004
  20415329.7704   -7920565.53549  -6154106.69948                  20415326.5464
        50.0004         42.0004
  20475884.1634   -4199511.07449  -3266120.14548                  20475880.5404
        49.2504         41.5004
  22106618.9094  -12403262.71149  -9659326.50447                  22106615.0354
        49.7504         35.5004
  21902721.4994   -3561477.84049  -2765548.21947                  21902719.9224
        44.7504         34.2504
  22982457.6784      14070.71149     12671.78147                  22982456.2944
        45.5004         29.0004
 04  7  1 15 10 30.0000000  0  8G 6G15G16G18G21G22G26G29
  21013682.1804    3092201.68849   2402884.04347                  21013680.3154
        50.5004         39.2504
  22529374.3804  -10082751.69949  -7851476.69147                  22529372.2814
        45.5004         29.7504
  23052287.3384   -5015665.01649  -3905186.87147                  23052283.6194
        44.2504         29.2504
  20411031.9094   -7943150.30149  -6171705.22748                  20411028.5034
        50.0004         42.2504
  20473247.9074   -4213365.37149  -3276915.70748                  20473244.4944
        51.0004         41.7504
  22097628.6234  -12450506.96949  -9696140.20747                  22097625.0604
        49.7504         35.5004
  21903103.6044   -3559470.07449  -2763983.73447                  21903101.9684
        47.0004         34.0004
  22985161.2194      28276.85249     23741.49247                  22985159.5654
        45.5004         30.0004
 04  7  1 15 10 45.0000000  0  8G 6G15G16G18G21G22G26G29
  21018368.6494    3116828.81349   2422073.98448                  21018366.9334
        51.0004         39.5004
  22521242.0334  -10125485.26649  -7884775.59447                  22521240.0044
        46.0004         30.7504
  23050841.1344   -5023268.32849  -3911111.53547                  23050837.4094
        44.5004         28.0004
  20406753.4394   -7965635.19549  -6189225.93048                  20406750.1084
        49.7504         41.5004
  20470619.0434   -4227180.80949  -3287680.98848                  20470615.3334
        50.7504         41.2504
  22088651.1874  -12497682.20749  -9732900.11747                  22088647.7794
        49.2504         35.0004
  21903514.6104   -3557309.40649  -2762300.10547                  21903513.0124
        45.5004         33.5004
  22987886.0734      42598.46549     34901.17647                  22987884.3224
        45.2504         29.0004
 04  7  1 15 11  0.0000000  0  8G 6G15G16G18G21G22G26G29
  21023072.8604    3141548.84449   2441336.30947                  21023070.9034
        50.7504         39.0004
  22513111.6784  -10168210.46949  -7918067.94147                  22513110.4334
        45.5004         32.0004
  23049417.1264   -5030750.15649  -3916941.55147                  23049414.2044
        44.2504         29.0004
  20402493.6214   -7988019.71149  -6206668.40648                  20402490.6294
        50.0004         41.7504
  20467997.5104   -4240957.00049  -3298415.69548                  20467993.7894
        50.2504         41.2504
  22079687.3464  -12544788.06649  -9769605.96947                  22079683.5554
        49.2504         34.5004
  21903955.0744   -3554995.49649  -2760497.06647                  21903953.0364
        47.2504         33.7504
  22990633.6194      57035.59849     46150.88747                  22990630.9504
        45.5004         29.0004
 04  7  1 15 11 15.0000000  0  8G 6G15G16G18G21G22G26G29
  21027794.1984    3166360.95749   2460670.41048                  21027792.3734
        50.7504         39.5004
  22504983.2124  -10210927.90649  -7951354.25447                  22504981.6644
        45.2504         32.0004
  23048016.0804   -5038111.28149  -3922677.52047                  23048013.6344
        45.0004         29.0004
  20398253.1414   -8010304.64149  -6224033.28948                  20398249.6954
        50.0004         42.2504
  20465382.9714   -4254694.67649  -3309120.39148                  20465379.3724
        51.0004         41.2504
  22070736.4374  -12591825.07049  -9806258.16447                  22070732.7424
        49.5004         36.0004
  21904424.4334   -3552529.39549  -2758575.42647                  21904422.6294
        46.7504         33.5004
  22993402.7784      71587.30549     57489.86747                  22993400.6764
        45.5004         29.0004
 04  7  1 15 11 30.0000000  0  8G 6G15G16G18G21G22G26G29
  21032533.6154    3191264.82449   2480076.00847                  21032531.2064
        51.0004         39.2504
  22496856.1094  -10253637.65649  -7984634.57047                  22496853.3644
        45.0004         30.7504
  23046638.0944   -5045351.81249  -3928319.49247                  23046634.5384
        44.5004         28.5004
  20394031.1604   -8032490.10949  -6241320.66848                  20394027.8504
        50.0004         41.5004
  20462776.3614   -4268393.96149  -3319795.15648                  20462772.3724
        50.5004         41.5004
  22061798.7904  -12638793.13749  -9842856.66847                  22061794.9724
        50.0004         35.7504
  21904922.6484   -3549910.97749  -2756535.10547                  21904921.0444
        46.5004         33.5004
  22996193.4174      86253.44549     68918.02047                  22996190.9324
        44.7504         29.0004
 04  7  1 15 11 45.0000000  0  8G 6G15G16G18G21G22G26G29
  21037290.0314    3216260.93049   2499553.46548                  21037288.1844
        50.7504         40.0004
  22488729.3934  -10296339.10249  -8017908.41847                  22488728.1474
        42.5004         31.5004
  23045284.0074   -5052471.32049  -3933867.15647                  23045280.3964
        43.5004         29.5004
  20389828.4874   -8054575.71149  -6258530.22748                  20389825.0104
        49.5004         41.7504
  20460176.8944   -4282053.75449  -3330439.15648                  20460172.8044
        51.0004         41.5004
  22052874.3254  -12685691.72349  -9879401.00047                  22052870.4904
        49.2504         35.2504
  21905450.0354   -3547139.84049  -2754375.78147                  21905448.7484
        46.7504         33.7504
  22999006.3314     101034.36749     80435.61747                  22999004.4344
        45.2504         29.7504
 04  7  1 15 12  0.0000000  0  8G 6G15G16G18G21G22G26G29
  21042064.2654    3241349.97349   2519103.34448                  21042062.2684
        50.2504         39.5004
  22480605.7484  -10339031.28149  -8051175.05147                  22480603.7794
        43.7504         31.2504
  23043951.9364   -5059468.91049  -3939319.85947                  23043948.9514
        44.5004         28.2504
  20385645.1524   -8076560.37149  -6275661.12948                  20385641.4724
        50.0004         41.7504
  20457585.0374   -4295673.07449  -3341051.62948                  20457581.4804
        51.0004         41.5004
  22043963.1574  -12732519.61749  -9915890.26247                  22043959.4324
        48.5004         35.2504
  21906006.9074   -3544215.12949  -2752096.80147                  21906004.9694
        46.7504         33.5004
  23001841.2014     115930.76249     92043.18047                  23001839.2804
        45.7504         30.0004
 04  7  1 15 12 15.0000000  0  8G 6G15G16G18G21G22G26G29
  21046856.3504    3266531.55949   2538725.32848                  21046854.8424
        51.0004         40.0004
  22472483.3384  -10381714.45749  -8084434.67247                  22472481.4564
        45.0004         31.2504
  23042643.2724   -5066345.14149  -3944677.98847                  23042640.2774
        42.2504         28.2504
  20381480.5684   -8098444.51249  -6292713.70748                  20381477.1814
        48.5004         41.7504
  20455001.2174   -4309252.41849  -3351632.94148                  20454997.2354
        51.2504         41.7504
  22035065.2804  -12779277.01249  -9952324.58647                  22035061.6154
        48.7504         35.7504
  21906592.3054   -3541137.28149  -2749698.47747                  21906590.5844
        46.0004         34.2504
  23004697.3024     130942.05949    103740.28947                  23004695.7664
        45.0004         29.2504
 04  7  1 15 12 30.0000000  0  8G 6G15G16G18G21G22G26G29
  21351457.6704    3291803.75049   2558417.91048                  21351455.9624
        50.7504         39.5004
  22764156.0064  -10424385.91049  -8117685.14547                  22764153.9934
        44.7504         30.7504
  23341150.4774   -5073099.74649  -3949941.34047                  23341146.5544
        41.5004         28.7504
  20677127.9764   -8120226.85949  -6309686.96948                  20677124.3104
        49.7504         42.5004
  20752216.9514   -4322791.19949  -3362182.64148                  20752213.4884
        50.0004         41.2504
  22325974.4994  -12825960.86749  -9988701.62147                  22325970.6454
        50.2504         36.0004
  22206999.3704   -3537906.60949  -2747181.07447                  22206997.6764
        46.5004         33.5004
  23307368.2264     146067.16849    115526.07447                  23307366.4914
        45.0004         29.5004
 04  7  1 15 12 45.0000000  0  8G 6G15G16G18G21G22G26G29
  21356284.5114    3317168.62149   2578182.73448                  21356282.6514
        51.0004         39.7504
  22756036.6404  -10467052.20349  -8150931.61747                  22756034.8294
        44.5004         31.5004
  23339888.1914   -5079734.59849  -3955111.37147                  23339884.4464
        42.7504         28.2504
  20673001.7344   -8141911.25449  -6326583.90248                  20672998.1334
        49.2504         42.0004
  20749648.2064   -4336291.93749  -3372702.71148                  20749644.5194
        50.7504         41.5004
  22317103.6394  -12872578.27049 -10025026.84847                  22317099.6024
        50.0004         36.5004
  22207642.7704   -3534523.95349  -2744545.25047                  22207641.5454
        47.2504         33.5004
  23310268.1284     161306.73449    127401.05147                  23310266.0254
        44.7504         29.0004
 04  7  1 15 13  0.0000000  0  8G 6G15G16G18G21G22G26G29
  21361128.6994    3342625.21149   2598019.02347                  21361126.9544
        50.0004         39.2504
  22747919.1574  -10509709.84849  -8184171.33647                  22747917.5534
        46.0004         32.5004
  23338648.5924   -5086248.68049  -3960187.29347                  23338645.4024
        43.5004         28.5004
  20668894.2304   -8163495.46549  -6343402.76648                  20668890.9594
        50.0004         41.7504
  20747086.8414   -4349752.89149  -3383191.77348                  20747082.6124
        50.7504         41.5004
  22308245.9614  -12919125.17649 -10061297.16447                  22308241.7394
        49.5004         36.5004
  22208315.6664   -3530988.59849  -2741790.43047                  22208314.7274
        48.0004         34.5004
  23313189.8274     176660.45749    139364.96147                  23313187.9674
        44.5004         28.2504
 04  7  1 15 13 15.0000000  0  8G 6G15G16G18G21G22G26G29
  21365990.4134    3368174.08249   2617927.21947                  21365988.7224
        49.7504         39.2504
  22739803.5774  -10552357.99249  -8217403.66447                  22739801.7174
        45.2504         32.5004
  23337432.0924   -5092641.34049  -3965168.62147                  23337429.4504
        44.0004         29.0004
  20664805.9414   -8184978.87549  -6360143.09048                  20664802.8784
        50.0004         41.7504
  20744532.8684   -4363173.35949  -3393649.28148                  20744529.0074
        50.2504         41.2504
  22299401.8014  -12965600.68449 -10097511.83647                  22299397.7024
        49.5004         36.2504
  22209017.7654   -3527299.95349  -2738916.17247                  22209016.3204
        47.7504         33.7504
  23316133.2494     192128.84049    151418.24647                  23316131.8124
        43.7504         28.5004
 04  7  1 15 13 30.0000000  0  8G 6G15G16G18G21G22G26G29
  21370869.9194    3393814.50049   2637906.74247                  21370867.7384
        50.2504         38.5004
  22731690.3864  -10594997.27749  -8250629.07847                  22731688.2034
        45.0004         32.2504
  23336238.4034   -5098913.34849  -3970055.89147                  23336236.0024
        43.5004         28.5004
  20660737.1114   -8206362.14849  -6376805.37948                  20660733.4764
        49.2504         42.2504
  20741986.8694   -4376553.62549  -3404075.46948                  20741983.1074
        50.5004         42.0004
  22290571.2224  -13012005.27049 -10133671.25847                  22290567.2744
        49.5004         36.2504
  22209748.8104   -3523458.73049  -2735923.03947                  22209747.1094
        48.0004         33.5004
  23319098.1794     207711.09449    163560.25847                  23319097.3994
        45.2504         29.0004
 04  7  1 15 13 45.0000000  0  8G 6G15G16G18G21G22G26G29
  21375766.5444    3419545.95749   2657957.20347                  21375764.7784
        51.2504         39.2504
  22723577.2674  -10637627.99649  -8283847.81647                  22723575.6344
        45.0004         32.0004
  23335067.6464   -5105065.01649  -3974849.41447                  23335065.3894
        43.7504         30.0004
  20656686.7714   -8227645.53549  -6393389.83648                  20656683.4234
        49.5004         42.2504
  20739447.9134   -4389894.21549  -3414470.74248                  20739444.5084
        51.2504         41.5004
  22281754.2504  -13058339.25849 -10169775.64547                  22281750.3754
        49.7504         36.7504
  22210509.0894   -3519465.31249  -2732811.29347                  22210507.1894
        47.5004         34.0004
  23322085.2924     223406.73049    175790.62147                  23322084.0264
        43.7504         30.0004
 04  7  1 15 14  0.0000000  0  8G 6G15G16G18G21G22G26G29
  21380679.8044    3445367.12549   2678077.57047                  21380678.3864
        51.0004         38.7504
  22715466.5084  -10680251.07449  -8317060.60247                  22715464.3164
        44.5004         31.7504
  23333919.8544   -5111097.43749  -3979550.02347                  23333917.3004
        44.2504         29.7504
  20652655.2764   -8248830.05949  -6409897.26248                  20652652.1434
        50.7504         42.0004
  20736917.0734   -4403196.27749  -3424835.99648                  20736912.8914
        50.7504         42.0004
  22272950.5524  -13104603.37949 -10205825.60247                  22272946.9044
        50.2504         36.7504
  22211297.6854   -3515320.83249  -2729581.83247                  22211296.2944
        48.0004         33.2504
  23325093.5624     239214.58249    188108.41847                  23325092.0694
        43.5004         28.0004
 04  7  1 15 14 15.0000000  0  8G 6G15G16G18G21G22G26G29
  21385611.1924    3471280.06349   2698269.43047                  21385609.3514
        50.0004         39.0004
  22707356.9794  -10722864.50849  -8350265.86747                  22707355.7324
        44.5004         31.7504
  23332794.8774   -5117008.85249  -3984156.33647                  23332792.3654
        43.0004         29.0004
  20648643.3284   -8269913.99649  -6426326.31248                  20648640.4454
        49.5004         41.7504
  20734393.1364   -4416457.48849  -3435169.41048                  20734389.5164
        50.0004         41.7504
  22264160.3214  -13150795.74249 -10241819.65247                  22264156.7764
        50.0004         36.5004
  22212115.0404   -3511023.34849  -2726233.14147                  22212113.3624
        47.5004         33.7504
  23328123.2904     255136.28949    200514.93047                  23328120.6114
        42.0004         28.0004
 04  7  1 15 14 30.0000000  0  8G 6G15G16G18G21G22G26G29
  21390559.5264    3497283.99249   2718532.21147                  21390557.5594
        51.0004         38.5004
  22699250.3014  -10765468.72349  -8383463.94147                  22699248.1974
        46.0004         32.0004
  23331692.6744   -5122799.75049  -3988668.74647                  23331690.2724
        42.2504         29.2504
  20644650.4564   -8290897.84049  -6442677.35548                  20644646.9354
        49.0004         41.5004
  20731877.2374   -4429678.43749  -3445471.45348                  20731873.4904
        51.0004         41.2504
  22255383.8724  -13196916.65649 -10277758.01247                  22255380.2274
        50.0004         36.2504
  22212962.1264   -3506573.44549  -2722765.70347                  22212960.0134
        48.5004         33.5004
  23331174.7944     271171.40249    213009.82047                  23331171.9964
        43.2504         28.7504
 04  7  1 15 14 45.0000000  0  8G 6G15G16G18G21G22G26G29
  21395525.5704    3523380.01249   2738866.75847                  21395523.6614
        50.7504         39.0004
  22691144.9594  -10808062.39849  -8416653.83247                  22691142.0544
        46.0004         32.0004
  23330614.2604   -5128469.03949  -3993086.39847                  23330611.8524
        44.0004         28.5004
  20640676.4914   -8311780.23849  -6458949.37148                  20640673.0314
        50.0004         41.7504
  20729369.2384   -4442857.48849  -3455740.85548                  20729365.6964
        50.7504         41.5004
  22246621.4404  -13242964.66449 -10313639.57847                  22246617.4124
        50.2504         36.7504
  22213838.3394   -3501969.91449  -2719178.54347                  22213836.3004
        48.5004         33.7504
  23334247.8724     287320.91449    225593.83247                  23334246.5594
        42.5004         28.0004
 04  7  1 15 15  0.0000000  0  8G 6G15G16G18G21G22G26G29
  21400508.8204    3549568.53549   2759273.38747                  21400506.8164
        51.0004         39.0004
  22683041.2654  -10850645.10249  -8449835.14847                  22683039.4734
        44.5004         31.7504
  23329558.0834   -5134016.47749  -3997409.08247                  23329555.6394
        44.2504         28.7504
  20636722.2954   -8332560.80549  -6475142.01648                  20636718.5944
        50.0004         42.0004
  20726869.7414   -4455994.28549  -3465977.32848                  20726866.0914
        50.5004         40.7504
  22237872.7964  -13288939.16449 -10349463.86747                  22237868.9484
        49.0004         36.0004
  22214743.5844   -3497212.45749  -2715471.44147                  22214741.5284
        48.2504         33.0004
  23337342.5604     303584.93849    238267.08247                  23337341.7304
        41.0004         28.7504
 04  7  1 15 15 15.0000000  0  8G 6G15G16G18G21G22G26G29
  21405509.8524    3575848.82449   2779751.49647                  21405508.2244
        50.5004         38.7504
  22674940.0914  -10893217.30149  -8483008.29347                  22674938.2904
        44.2504         32.0004
  23328525.7694   -5139442.43749  -4001637.10947                  23328522.9164
        45.0004         27.7504
  20632787.1944   -8353240.03149  -6491255.69548                  20632783.4374
        50.2504         42.0004
  20724377.7294   -4469089.43749  -3476181.34848                  20724374.4204
        50.2504         41.7504
  22229137.9554  -13334840.51649 -10385231.14147                  22229134.4894
        49.7504         36.2504
  22215678.1684   -3492301.60549  -2711644.80547                  22215676.5234
        48.5004         33.5004
  23340460.0474     319962.96149    251029.15647                  23340458.5164
        41.5004         28.5004
 04  7  1 15 15 30.0000000  0  8G 6G15G16G18G21G22G26G29
  21410528.7444    3602221.23849   2800301.40647                  21410527.0984
        51.0004         39.0004
  22666841.0694  -10935778.34849  -8516172.74647                  22666839.1624
        45.2504         31.5004
  23327517.0964   -5144746.49249  -4005770.17647                  23327513.6014
        44.2504         28.0004
  20628871.2424   -8373817.40649  -6507290.01648                  20628868.0084
        50.2504         41.7504
  20721893.6724   -4482142.20349  -3486352.34448                  20721890.0344
        50.0004         41.2504
  22220417.3134  -13380668.11749 -10420940.94947                  22220413.0354
        49.7504         36.2504
  22216642.2434   -3487236.91849  -2707698.30947                  22216640.0024
        48.5004         33.2504
  23343598.1804     336455.29349    263880.31347                  23343596.0944
        41.0004         28.5004
 04  7  1 15 15 45.0000000  0  8G 6G15G16G18G21G22G26G29
  21415565.0044    3628687.37949   2820924.34447                  21415562.9244
        50.5004         39.2504
  22658744.5644  -10978326.51649  -8549327.15247                  22658742.6684
        44.5004         32.2504
  23326531.1354   -5149927.22749  -4009807.11347                  23326527.8174
        44.7504         28.5004
  20624975.3384   -8394291.31249  -6523243.71148                  20624972.0864
        50.2504         42.0004
  20719418.3894   -4495150.95349  -3496489.03948                  20719414.5234
        50.2504         41.2504
  22211710.5744  -13426420.13749 -10456591.86347                  22211706.5004
        49.5004         36.0004
  22217634.7344   -3482016.88349  -2703630.75847                  22217632.9484
        47.7504         34.0004
  23346758.1184     353063.32849    276821.63347                  23346755.9824
        42.2504         28.2504
 04  7  1 15 16  0.0000000  0  8G 6G15G16G18G21G22G26G29
  21420619.0494    3655246.81649   2841619.98447                  21420617.4714
        49.7504         39.0004
  22650650.6024  -11020861.94149  -8582471.63747                  22650647.8344
        46.2504         32.2504
  23325568.3664   -5154984.83649  -4013748.13747                  23325564.8604
        44.0004         28.0004
  20621098.7524   -8414662.00049  -6539116.98048                  20621095.5424
        49.5004         42.0004
  20716951.5264   -4508115.67649  -3506591.43048                  20716947.9334
        50.0004         41.2504
  22203018.7134  -13472096.62949 -10492183.93447                  22203014.9184
        49.7504         36.2504
  22218657.5994   -3476641.56649  -2699442.21147                  22218655.9504
        48.0004         33.2504
  23349941.1724     369786.92249    289853.02047                  23349939.0554
        39.5004         28.5004
 04  7  1 15 16 15.0000000  0  8G 6G15G16G18G21G22G26G29
  21425690.4124    3681897.66449   2862386.85247                  21425688.9404
        50.2504         38.5004
  22642557.9574  -11063386.33649  -8615607.53947                  22642556.4614
        44.7504         32.0004
  23324629.3294   -5159921.16049  -4017594.64147                  23324626.2104
        45.2504         28.7504
  20617241.5974   -8434931.16049  -6554911.12948                  20617238.3254
        50.2504         42.0004
  20714492.2694   -4521038.11349  -3516660.86748                  20714488.6194
        50.5004         41.2504
  22194340.7954  -13517699.17649 -10527718.37147                  22194336.9764
        50.0004         36.7504
  22219709.9294   -3471112.98849  -2695134.25447                  22219708.4514
        48.5004         33.7504
  23353144.4314     386623.99649    302972.77347                  23353143.0104
        41.7504         28.5004
 04  7  1 15 16 30.0000000  0  8G 6G15G16G18G21G22G26G29
  21430779.3634    3708640.54349   2883225.44147                  21430777.9424
        50.5004         39.0004
  22634468.3254  -11105899.00449  -8648734.28947                  22634466.6124
        43.5004         32.5004
  23323713.2344   -5164735.68049  -4021346.24247                  23323709.8634
        43.0004         29.0004
  20613404.2774   -8455098.23049  -6570625.72748                  20613400.5324
        50.0004         42.2504
  20712041.3834   -4533917.60949  -3526696.83648                  20712037.8184
        50.0004         41.5004
  22185677.5734  -13563226.99649 -10563194.57447                  22185673.6574
        50.5004         36.5004
  22220791.0704   -3465430.46549  -2690706.31647                  22220790.3314
        47.7504         33.5004
  23356370.1644     403575.04749    316181.37147                  23356368.9404
        41.7504         29.0004
 04  7  1 15 16 45.0000000  0  8G 6G15G16G18G21G22G26G29
  21435886.4164    3735476.59049   2904136.63347                  21435884.7814
        51.0004         39.2504
  22626380.9774  -11148398.45749  -8681850.73847                  22626378.7904
        44.7504         32.7504
  23322820.5034   -5169427.12549  -4025001.94147                  23322817.5424
        45.5004         29.0004
  20609586.1034   -8475161.84049  -6586259.71148                  20609582.5604
        49.7504         42.2504
  20709599.1694   -4546752.50849  -3536698.07048                  20709595.2254
        50.5004         41.5004
  22177028.3134  -13608678.61749 -10598611.42247                  22177024.2054
        49.7504         37.0004
  22221902.3714   -3459592.75049  -2686157.46547                  22221900.5244
        47.5004         32.5004
  23359617.4694     420641.33249    329479.76247                  23359616.7934
        42.5004         29.0004
 04  7  1 15 17  0.0000000  0  8G 6G15G16G18G21G22G26G29
  21441010.2004    3762404.07049   2925119.07447                  21441008.4504
        50.5004         39.2504
  22618295.4874  -11190886.25849  -8714958.11347                  22618294.4994
        45.0004         32.7504
  23321951.1344   -5173997.14549  -4028563.00847                  23321947.2534
        45.5004         29.5004
  20605787.7734   -8495123.68449  -6601814.39848                  20605784.1874
        49.5004         42.0004
  20707164.8174   -4559544.47349  -3546665.84448                  20707161.0164
        50.7504         41.0004
  22168393.3634  -13654055.52049 -10633970.03547                  22168389.2344
        49.5004         36.0004
  22223041.9324   -3453601.57049  -2681489.01247                  22223040.6374
        47.5004         33.0004
  23362887.2614     437821.00049    342866.50047                  23362885.7924
        42.0004         27.5004
 04  7  1 15 17 15.0000000  0  8G 6G15G16G18G21G22G26G29
  21446151.8014    3789423.08249   2946172.82047                  21446150.2974
        50.7504         39.0004
  22610212.3344  -11233362.13749  -8748056.19547                  22610211.0854
        45.5004         32.5004
  23321104.6514   -5178445.61349  -4032029.36347                  23321101.3444
        43.7504         28.7504
  20602008.3124   -8514983.44149  -6617289.54348                  20602005.0404
        49.5004         42.5004
  20704738.5714   -4572293.27049  -3556599.97348                  20704735.2004
        50.2504         41.0004
  22159772.5524  -13699357.34449 -10669270.15247                  22159769.1744
        49.2504         36.7504
  22224211.5624   -3447456.72749  -2676700.84047                  22224209.5534
        47.2504         33.5004
  23366178.0274     455114.09049    356341.61747                  23366176.7634
        42.5004         29.0004
 04  7  1 15 17 30.0000000  0  8G 6G15G16G18G21G22G26G29
  21451310.9254    3816532.28549   2967296.85247                  21451309.1854
        50.0004         39.2504
  22602132.5114  -11275827.17649  -8781145.83647                  22602129.8764
        45.5004         32.7504
  23320280.8504   -5182773.82449  -4035402.01647                  23320277.9784
        44.5004         28.7504
  20598248.3694   -8534742.37549  -6632686.11748                  20598244.7594
        50.0004         41.5004
  20702320.5264   -4584999.88349  -3566501.24248                  20702316.8694
        49.7504         41.0004
  22151166.1494  -13744585.06249 -10704512.52747                  22151161.8244
        50.0004         37.0004
  22225409.8544   -3441159.38749  -2671793.83247                  22225408.4704
        47.5004         33.0004
  23369490.4464     472519.34449    369904.13747                  23369488.2614
        40.7504         28.2504
 04  7  1 15 17 45.0000000  0  8G 6G15G16G18G21G22G26G29
  21456486.8664    3843732.99249   2988492.17247                  21456485.4434
        50.7504         38.5004
  22594053.9034  -11318279.83649  -8814225.83647                  22594051.3764
        46.5004         32.0004
  23319480.4904   -5186980.35949  -4038679.85547                  23319477.2884
        45.5004         29.2504
  20594507.7104   -8554398.96149  -6648002.93448                  20594504.2784
        49.7504         42.0004
  20699911.2054   -4597663.07449  -3576368.66448                  20699907.6294
        49.5004         41.5004
  22142573.6744  -13789737.03549 -10739695.87947                  22142570.2564
        49.7504         37.0004
  22226637.5034   -3434708.31249  -2666767.03147                  22226636.5174
        47.7504         34.0004
  23372824.1514     490038.00049    383555.03947                  23372821.7684
        43.2504         27.5004
 04  7  1 15 18  0.0000000  0  8G 6G15G16G18G21G22G26G29
  21461680.3194    3871024.61349   3009758.35247                  21461678.9704
        50.0004         39.0004
  22585976.9454  -11360720.56649  -8847296.53547                  22585975.5484
        45.7504         32.7504
  23318702.4604   -5191065.78549  -4041863.31647                  23318700.1054
        44.5004         28.7504
  20590786.4564   -8573953.73449  -6663240.42248                  20590783.6024
        49.7504         42.2504
  20697509.5074   -4610283.04349  -3586202.41048                  20697505.7814
        50.2504         41.5004
  22133995.8964  -13834813.65649 -10774820.50447                  22133992.5204
        49.5004         36.7504
  22227894.4304   -3428103.83249  -2661620.69547                  22227893.1254
        47.5004         34.0004
  23376178.8764     507669.56649    397293.90647                  23376176.9274
        42.5004         28.0004
 04  7  1 15 18 15.0000000  0  8G 6G15G16G18G21G22G26G29
  21466891.2504    3898407.15249   3031095.36347                  21466889.7054
        50.2504         39.0004
  22577903.8824  -11403149.16049  -8880357.78147                  22577901.3634
        46.0004         32.7504
  23317948.5174   -5195030.18049  -4044952.47747                  23317946.0454
        43.2504         28.5004
  20587084.9044   -8593406.69949  -6678398.57448                  20587081.7864
        50.0004         41.5004
  20695116.4614   -4622859.12149  -3596001.96548                  20695112.5124
        50.5004         41.7504
  22125432.7094  -13879814.65649 -10809886.21147                  22125428.8504
        49.5004         37.2504
  22229180.8964   -3421346.21149  -2656355.03947                  22229178.9534
        47.5004         33.2504
  23379555.9194     525413.78149    411120.55947                  23379553.5354
        41.2504         27.5004
 04  7  1 15 18 30.0000000  0  8G 6G15G16G18G21G22G26G29
  21472119.3604    3925881.08249   3052503.59447                  21472117.9264
        50.5004         38.5004
  22569832.4354  -11445564.84049  -8913408.96547                  22569830.0064
        44.0004         32.2504
  23317217.4084   -5198872.89549  -4047946.82047                  23317214.5234
        43.0004         28.5004
  20583402.3604   -8612757.17649  -6693476.87148                  20583399.1524
        50.2504         41.5004
  20692731.8124   -4635390.84449  -3605766.94948                  20692728.0184
        50.2504         41.5004
  22116883.5604  -13924739.19949 -10844892.33247                  22116880.0674
        49.5004         36.7504
  22230495.9354   -3414434.64849  -2650969.41447                  22230494.0444
        48.0004         33.5004
  23382953.5514     543271.20349    425035.42647                  23382951.7514
        42.0004         27.7504
 04  7  1 15 18 45.0000000  0  8G 6G15G16G18G21G22G26G29
  21477364.2814    3953445.84849   3073982.61747                  21477363.1314
        50.5004         38.0004
  22561763.0744  -11487967.89149  -8946450.29747                  22561761.8034
        45.2504         32.7504
  23316508.8634   -5202594.52049  -4050846.78147                  23316506.1954
        42.0004         28.7504
  20579739.6104   -8632005.35949  -6708475.45348                  20579736.3224
        49.0004         41.5004
  20690355.3384   -4647878.62549  -3615497.69148                  20690351.6034
        50.2504         42.0004
  22108349.8214  -13969587.60249 -10879839.13347                  22108345.6704
        48.7504         36.2504
  22231840.4214   -3407369.67649  -2645464.25847                  22231838.7624
        48.0004         33.7504
  23386372.8864     561241.22749    439038.00847                  23386371.2654
        40.7504         26.7504
 04  7  1 15 19  0.0000000  0  8G 6G15G16G18G21G22G26G29
  21482627.4824    3981101.71949   3095532.61747                  21482625.4634
        50.7504         38.2504
  22553696.4554  -11530357.86749  -8979481.44147                  22553694.9744
        44.5004         32.2504
  23315823.6634   -5206194.49649  -4053651.99247                  23315821.7224
        42.7504         29.0004
  20576096.5574   -8651150.91049  -6723394.07048                  20576092.9764
        49.5004         42.0004
  20687987.6944   -4660321.77049  -3625193.65248                  20687983.9064
        50.7504         41.2504
  22099829.5144  -14014359.15249 -10914726.03947                  22099825.9304
        49.5004         37.0004
  22233213.8704   -3400151.00849  -2639839.33247                  22233212.2204
        48.5004         33.5004
  23389814.1694     579324.26649    453128.68047                  23389812.9534
        42.5004         27.5004
 04  7  1 15 19 15.0000000  0  8G 6G15G16G18G21G22G26G29
  21487907.1994    4008847.56349   3117152.73847                  21487905.7474
        51.0004         38.5004
  22545632.1974  -11572735.80949  -9012503.20747                  22545630.9374
        44.7504         32.5004
  23315161.6024   -5209674.26249  -4056363.49647                  23315159.1084
        44.7504         28.2504
  20572472.5644   -8670195.01249  -6738233.63748                  20572469.2574
        50.0004         41.7504
  20685627.8174   -4672721.29349  -3634855.62548                  20685623.8924
        50.7504         41.2504
  22091324.4184  -14059054.82849 -10949553.83247                  22091320.5014
        49.2504         37.2504
  22234616.2564   -3392779.77349  -2634095.50847                  22234614.6944
        48.0004         33.5004
  23393276.5104     597518.99649    467306.38347                  23393275.2574
        41.0004         28.0004
 04  7  1 15 19 30.0000000  0  9G 6G 3G15G16G18G21G22G26G29
  21493204.2384    4036684.26249   3138843.64147                  21493202.7434
        50.5004         38.0004
  24683609.4054     -43236.80559
        40.7504
  22537570.6134  -11615100.61749  -9045514.74647                  22537568.9634
        44.2504         33.0004
  23314522.6024   -5213032.82049  -4058980.56247                  23314520.1854
        42.0004         28.5004
  20568867.8394   -8689136.64149  -6752993.34448                  20568864.7794
        49.0004         42.2504
  20683276.7244   -4685076.28149  -3644482.90248                  20683273.0394
        50.5004         41.7504
  22082833.4314  -14103673.47749 -10984321.60947                  22082830.1934
        49.0004         37.2504
  22236048.3514   -3385254.93049  -2628232.01247                  22236046.5494
        47.5004         33.5004
  23396760.1094     615826.08249    481571.64147                  23396758.8924
        41.5004         28.2504
 04  7  1 15 19 45.0000000  0  9G 6G 3G15G16G18G21G22G26G29
  21498518.8504    4064612.28149   3160605.72747                  21498517.0684
        50.0004         37.7504
  24672432.1664    -101974.65649    -56383.87956                  24672429.0534
        38.7504         18.5004
  22529511.1934  -11657451.49649  -9078515.41447                  22529509.4144
        44.7504         32.2504
  23313906.2614   -5216269.58649  -4061502.73447                  23313904.1264
        43.2504         28.0004
  20565283.3414   -8707975.19549  -6767672.73848                  20565280.1454
        50.5004         42.0004
  20680934.2324   -4697386.06249  -3654074.94148                  20680930.6034
        50.5004         41.5004
  22074357.4824  -14148214.27349 -11019028.71147                  22074354.3294
        48.7504         37.2504
  22237509.7804   -3377576.05549  -2622248.48847                  22237508.1044
        48.0004         33.5004
  23400265.3414     634246.21149    495924.96147                  23400264.1644
        42.0004         29.5004
 04  7  1 15 20  0.0000000  0  9G 6G 3G15G16G18G21G22G26G29
  21503849.9384    4092627.73049   3182435.92647                  21503848.2414
        49.5004         38.2504
  24661257.8744    -160693.34449   -102138.65246                  24661255.5894
        38.2504         18.5004
  22521454.6364  -11699791.96549  -9111508.00447                  22521452.0984
        46.5004         32.5004
  23313312.8564   -5219388.27049  -4063932.89547                  23313310.6074
        42.2504         27.7504
  20561717.0694   -8726714.41449  -6782274.72748                  20561713.9864
        49.7504         42.0004
  20678599.9834   -4709653.91449  -3663634.31248                  20678596.2674
        51.0004         41.2504
  22065895.8854  -14192680.85249 -11053677.98047                  22065892.5994
        49.5004         36.7504
  22238999.3674   -3369746.95349  -2616147.89147                  22238997.9134
        47.0004         33.5004
  23403791.4434     652775.53949    510363.38347                  23403790.4484
        42.2504         29.5004
 04  7  1 15 20 15.0000000  0  9G 6G 3G15G16G18G21G22G26G29
  21509198.5544    4120733.11749   3204336.19147                  21509196.3704
        50.0004         38.2504
  24650088.7944    -219390.08649   -147876.33646                  24650086.9414
        40.5004         21.0004
  22513399.3684  -11742119.61749  -9144490.59447                  22513397.5754
        46.0004         32.5004
  23312742.6004   -5222386.48449  -4066269.19547                  23312740.2454
        43.5004         28.2504
  20558170.6464   -8745351.71549  -6796797.30548                  20558167.2144
        50.0004         42.0004
  20676273.7314   -4721877.33649  -3673159.07048                  20676270.2054
        50.5004         41.2504
  22057449.1284  -14237070.52349 -11088267.33647                  22057444.6384
        49.2504         36.5004
  22240518.4084   -3361765.16449  -2609928.32847                  22240516.4944
        48.0004         33.7504
  23407339.0904     671416.22349    524888.58647                  23407337.3694
        43.0004         29.7504
 04  7  1 15 20 30.0000000  0  9G 6G 3G15G16G18G21G22G26G29
  21514562.9404    4148925.58649   3226304.31347                  21514561.8734
        49.5004         38.0004
  24638922.0184    -278067.09049   -193598.69146                  24638921.6394
        39.5004         22.0004
  22505346.6594  -11784436.91449  -9177465.09447                  22505344.3824
        46.0004         31.5004
  23312194.2644   -5225266.92649  -4068513.70347                  23312191.9504
        43.0004         28.5004
  20554643.1294   -8763889.68049  -6811242.46948                  20554639.8464
        49.2504         42.0004
  20673955.7814   -4734058.98849  -3682651.27348                  20673952.2354
        51.5004         41.2504
  22049015.9794  -14281385.73849 -11122798.67247                  22049012.2784
        49.2504         36.0004
  22242065.4604   -3353633.31649  -2603591.83247                  22242064.0514
        47.5004         33.7504
  23410906.5244     690165.59849    539498.46547                  23410905.3544
        43.2504         29.7504
 04  7  1 15 20 45.0000000  0  9G 6G 3G15G16G18G21G22G26G29
  21519944.5124    4177203.45749   3248338.99247                  21519942.6834
        50.0004         38.5004
  24627760.7534    -336725.71549   -239306.65246                  24627760.2354
        40.2504         22.5004
  22497295.0994  -11826745.35549  -9210432.73047                  22497293.9114
        45.7504         32.2504
  23311668.7794   -5228031.45349  -4070667.90247                  23311666.2054
        42.5004         29.0004
  20551133.9274   -8782329.99249  -6825611.55148                  20551130.6664
        50.2504         41.7504
  20671645.2364   -4746200.55549  -3692112.23448                  20671642.0724
        50.7504         41.0004
  22040596.8924  -14325627.99249 -11157273.13747                  22040593.0704
        49.2504         36.5004
  22243641.5404   -3345353.14549  -2597139.77347                  22243639.9904
        48.5004         34.0004
  23414495.8364     709021.87549    554191.64847                  23414493.0704
        44.7504         28.7504
 04  7  1 15 21  0.0000000  0  9G 6G 3G15G16G18G21G22G26G29
  21525341.8654    4205566.85949   3270440.32047                  21525340.2094
        48.2504         38.2504
  24616602.1994    -395365.34049   -284999.89546                  24616600.5904
        40.7504         22.2504
  22489246.2384  -11869044.58649  -9243393.16447                  22489244.3084
        45.2504         32.5004
  23311164.3274   -5230679.68749  -4072731.48047                  23311162.3714
        42.5004         27.7504
  20547643.4634   -8800672.45349  -6839904.37548                  20547640.0724
        50.0004         42.0004
  20669342.3964   -4758301.37549  -3701541.45348                  20669338.9724
        50.5004         41.5004
  22032192.0834  -14369796.72749 -11191690.32847                  22032187.8454
        49.5004         37.5004
  22245245.4354   -3336924.39849  -2590571.93447                  22245243.9514
        47.7504         34.5004
  23418103.8184     727985.14149    568968.22347                  23418102.4044
        44.0004         29.0004
 04  7  1 15 21 15.0000000  0  9G 6G 3G15G16G18G21G22G26G29
  21530755.4504    4234015.87149   3292608.34847                  21530753.6654
        49.5004         38.2504
  24605446.7994    -453985.35949   -330677.79746                  24605445.1724
        40.7504         21.0004
  22481198.9234  -11911334.32849  -9276346.21547                  22481196.8374
        46.2504         32.7504
  23310682.6924   -5233211.60249  -4074704.43047                  23310680.1064
        41.0004         28.0004
  20544171.9964   -8818916.80949  -6854120.77048                  20544168.6434
        49.0004         42.0004
  20667047.6314   -4770360.85249  -3710938.45348                  20667044.2584
        51.0004         41.2504
  22023800.8904  -14413891.56249 -11226049.93447                  22023797.0154
        49.5004         38.0004
  22246877.5364   -3328347.04749  -2583888.29747                  22246876.4084
        48.0004         34.2504
  23421732.6344     747055.53549    583828.23847                  23421731.5334
        44.5004         29.2504
